     2.11           OBSERVATION DATA    G (GPS)             RINEX VERSION / TYPE
teqc 2010Oct21 OPUS Account 20111026 21:01:56UTC            PGM / RUN BY / DATE
N 1523                                                      MARKER NAME
1193                                                        MARKER NUMBER
CSMIDDLETON NGS                                             OBSERVER / AGENCY
0220390627 TRIMBLE R7 2.32                                  REC # / TYPE / VERS
60124849 TRM41249.00 NONE                                   ANT # / TYPE
  -751089.9867 -5514583.1656  3105142.8544                  APPROX POSITION XYZ
        2.0010        0.0000        0.0000                  ANTENNA: DELTA H/E/N
     1     1                                                WAVELENGTH FACT L1/2
     5    L1    L2    C1    P1    P2                        # / TYPES OF OBSERV
    15                                                      LEAP SECONDS
  2011     8    11     0     0   30.0000000     GPS         TIME OF FIRST OBS
                                                            END OF HEADER
 11  8 11  0  0 30.0000000  0  8G17G10G09G12G04G02G05G28
 -49085364.05958 -38212032.60955  22104996.8984                   22104995.2774
 -24912804.46957 -19382989.67255  21619513.8834                   21619512.8754
 -23794530.36357 -18500010.62155  22285912.7114                   22285912.0514
 -12419911.91857  -9642575.60555  23034361.2974                   23034359.3954
 -46086057.14558 -35870132.88756  20234651.3524                   20234649.8554
 -32815697.77058 -25553841.93056  20969531.4694                   20969527.7934
  -3419038.12957  -2628324.49654  24186000.1564                   24186002.5864
 -47647344.87157 -37105843.76653  23238715.4614                   23238713.7974
 11  8 11  0  1  0.0000000  0  8G17G10G09G12G04G02G05G28
 -49090035.98848 -38215673.09445  22104107.9454                   22104106.3984
 -25022475.30547 -19468447.41845  21598644.0004                   21598643.5824
 -23798777.55147 -18503320.16045  22285104.7504                   22285103.8364
 -12556094.80947  -9748692.08245  23008446.4614                   23008444.4064
 -46085078.71948 -35869370.48446  20234837.5864                   20234835.9144
 -32899923.52348 -25619472.35946  20953503.7034                   20953500.3134
  -3569061.54347  -2745225.53144  24157450.8914                   24157454.3094
 -47603092.05947 -37071361.14144  23247136.0634                   23247135.5664
 11  8 11  0  1 30.0000000  0  8G17G10G09G12G04G02G05G28
 -49094539.34448 -38219182.21945  22103251.1484                   22103248.7814
 -25131649.37947 -19553518.08245  21577868.9304                   21577867.8914
 -23802433.77747 -18506169.19945  22284409.2734                   22284408.4494
 -12692052.74647  -9854633.30545  22982574.6024                   22982572.5704
 -46083623.87548 -35868236.85546  20235114.4304                   20235112.5314
 -32983708.11748 -25684759.02346  20937560.1804                   20937556.4654
  -3719045.06246  -2862095.44944  24128909.2734                   24128913.0784
 -47558476.64847 -37036595.96544  23255626.1804                   23255626.0354
 11  8 11  0  2  0.0000000  0  8G17G10G09G12G04G02G05G28
 -49098895.02048 -38222576.28545  22102421.8284                   22102420.0514
 -25240343.39848 -19638214.67245  21557185.5234                   21557183.8204
 -23805521.42248 -18508575.17245  22283821.5554                   22283821.2624
 -12827803.63347  -9960413.16845  22956742.0084                   22956740.3874
 -46081715.14848 -35866749.53546  20235477.9224                   20235475.7974
 -33067071.37148 -25749717.37146  20921696.5944                   20921692.7074
  -3869005.66046  -2978947.52344  24100372.5314                   24100376.1954
 -47513520.23447 -37001565.08244  23264181.5784                   23264181.3674
 11  8 11  0  2 30.0000000  0  8G17G10G09G12G04G02G05G28
 -49103086.03148 -38225842.03545  22101624.9144                   22101622.6564
 -25348538.54747 -19722522.54345  21536596.4924                   21536595.7424
 -23808026.87947 -18510527.52745  22283344.7034                   22283344.4104
 -12963329.16047 -10066017.43445  22930952.5634                   22930950.3324
 -46079338.42248 -35864897.55146  20235929.8754                   20235928.3404
 -33149997.53148 -25814335.11746  20905915.8134                   20905912.7504
  -4018924.33646  -3095766.93744  24071843.8834                   24071847.2734
 -47468208.36346 -36966257.25444  23272803.7664                   23272803.7704
 11  8 11  0  3  0.0000000  0  8G17G10G09G12G04G02G05G28
 -49107110.96948 -38228978.37945  22100858.9304                   22100856.9654
 -25456231.45748 -19806439.05145  21516103.2894                   21516101.6684
 -23809952.28947 -18512027.89545  22282978.1094                   22282977.5124
 -13098626.43747 -10171443.84045  22905206.3984                   22905204.0594
 -46076496.01648 -35862682.69546  20236470.9224                   20236469.1914
 -33232486.34848 -25878612.09046  20890218.8834                   20890215.2344
  -4168798.49646  -3212551.64844  24043323.7894                   24043326.4304
 -47422542.38746 -36930673.48443  23281494.1724                   23281494.2894
 11  8 11  0  3 30.0000000  0  8G17G10G09G12G04G02G05G28
 -49110974.00848 -38231988.55945  22100123.9454                   22100121.6684
 -25563423.10548 -19889964.96145  21495705.3524                   21495704.5434
 -23811304.09847 -18513081.28945  22282721.1954                   22282720.5904
 -13233696.67247 -10276693.34845  22879503.3594                   22879500.8164
 -46073193.87548 -35860109.60546  20237099.1804                   20237097.0314
 -33314541.84848 -25942551.41046  20874604.4924                   20874600.8674
  -4318629.28546  -3329302.54744  24014811.7424                   24014814.4924
 -47376527.23047 -36894817.65644  23290250.6724                   23290250.2384
 11  8 11  0  4  0.0000000  0  8G17G10G09G12G04G02G05G28
 -49114694.07447 -38234887.33645  22099415.8054                   22099414.1094
 -25670130.07447 -19973113.21145  21475399.6174                   21475398.2464
 -23812104.46947 -18513705.00045  22282569.1414                   22282568.3714
 -13368557.33247 -10381779.55545  22853839.6174                   22853837.9694
 -46069453.79348 -35857195.25846  20237810.9454                   20237809.2234
 -33396183.78948 -26006168.48846  20859068.3284                   20859064.7034
  -4468433.32446  -3446032.62943  23986304.8754                   23986306.4734
 -47330184.80546 -36858706.78544  23299068.8524                   23299069.2194
 11  8 11  0  4 30.0000000  0  8G17G10G09G12G04G02G05G28
 -49118249.59448 -38237657.87545  22098739.4844                   22098737.1524
 -25776328.27347 -20055865.00445  21455190.6414                   21455189.0004
 -23812334.78547 -18513884.50445  22282524.9304                   22282524.0704
 -13503184.62147 -10486683.93045  22828220.9694                   22828219.2774
 -46065256.91048 -35853924.96546  20238609.7734                   20238607.9184
 -33477390.86748 -26069446.69946  20843615.3364                   20843611.1724
  -4618186.73847  -3562723.22744  23957807.4924                   23957809.3484
 -47283495.22747 -36822325.38743  23307955.0164                   23307953.7074
 11  8 11  0  5  0.0000000  0  8G17G10G09G12G04G02G05G28
 -49121635.48047 -38240296.24645  22098094.7584                   22098093.3834
 -25882011.09047 -20138215.22745  21435079.9304                   21435078.5864
 -23811993.95347 -18513618.94945  22282589.4144                   22282589.5514
 -13637572.34047 -10591401.62145  22802647.7974                   22802645.3014
 -46060601.60948 -35850297.46146  20239495.6484                   20239494.1334
 -33558159.38748 -26132383.18446  20828245.4614                   20828241.1914
  -4767882.70747  -3679369.14544  23929320.9454                   23929322.8954
 -47236456.25046 -36785671.73043  23316904.9454                   23316905.2114
 11  8 11  0  5 30.0000000  0  8G17G10G09G12G04G02G05G28
 -49124859.72747 -38242808.66045  22097481.3204                   22097479.4494
 -25987182.98447 -20220167.30945  21415066.1724                   21415065.5944
 -23811091.72347 -18512915.97345  22282761.8984                   22282761.0164
 -13771725.43747 -10695936.47345  22777119.1254                   22777118.2424
 -46055497.57448 -35846320.30146  20240466.6564                   20240464.9024
 -33638496.73848 -26194983.68746  20812957.7344                   20812953.6334
  -4917526.04747  -3795974.08244  23900844.4844                   23900846.2274
 -47189076.42646 -36748752.46943  23325921.6254                   23325920.9694
 11  8 11  0  6  0.0000000  0  8G17G10G09G12G04G02G05G28
 -49127915.97347 -38245190.17645  22096899.9844                   22096898.2464
 -26091835.43747 -20301714.64545  21395151.2814                   21395150.4534
 -23809625.28547 -18511773.32445  22283040.9534                   22283039.8204
 -13905635.58647 -10800282.02045  22751637.6644                   22751635.3874
 -46049941.27048 -35841990.71546  20241523.8134                   20241522.1644
 -33718397.60248 -26257244.06646  20797753.1484                   20797749.3204
  -5067108.62947  -3912531.62944  23872380.0164                   23872381.5124
 -47141352.14847 -36711564.80544  23335003.5164                   23335002.9454
 11  8 11  0  6 30.0000000  0  8G17G10G09G12G04G02G05G28
 -47555392.44947 -37019847.19545  22396140.9924                   22396139.5824
 -24620551.02048 -19155259.21945  21675127.6644                   21675126.7234
 -22232186.09447 -17282599.98845  22583217.5004                   22583216.7584
 -12463884.71947  -9676839.75045  23025992.7424                   23025990.9654
 -44468524.26248 -34609717.72746  20542457.5314                   20542455.8134
 -32222448.52748 -25091569.44546  21082422.7424                   21082418.7304
  -3641211.01647  -2801442.31644  24143718.9304                   24143721.1884
 -45517875.34847 -35446518.03543  23643940.8444                   23643940.1054
 11  8 11  0  7  0.0000000  0  8G17G10G09G12G04G02G05G28
 -47558131.15248 -37021981.26645  22395619.8594                   22395617.7384
 -24724176.85548 -19236006.59045  21655408.4694                   21655406.9414
 -22229619.64147 -17280600.19145  22583705.8054                   22583705.4384
 -12597322.23447  -9780817.00845  23000600.7034                   23000599.4104
 -44462091.28948 -34604705.02346  20543682.0704                   20543680.2304
 -32301497.82848 -25153166.27746  21067380.3834                   21067376.3094
  -3790683.50447  -2917914.08244  24115274.9454                   24115276.8984
 -45469487.36747 -35408813.18043  23653148.2664                   23653148.3794
 11  8 11  0  7 30.0000000  0  8G17G10G09G12G04G02G05G28
 -47560707.45748 -37023988.79745  22395129.7664                   22395127.7194
 -24827281.93748 -19316348.18045  21635788.2504                   21635786.6094
 -22226504.15247 -17278172.57845  22584298.2734                   22584298.5084
 -12730516.36347  -9884604.58645  22975255.4064                   22975253.1884
 -44455220.38348 -34599351.08246  20544989.2344                   20544987.5824
 -32380118.05948 -25214428.77746  21052419.2584                   21052415.3914
  -3940094.33247  -3034337.84044  24086842.3134                   24086844.1914
 -45420766.90647 -35370849.29743  23662420.7504                   23662419.3874
 11  8 11  0  8  0.0000000  0  8G17G10G09G12G04G02G05G28
 -47563114.35548 -37025864.32045  22394672.2034                   22394669.8794
 -24929856.81248 -19396276.61745  21616269.2274                   21616267.2274
 -22222835.65647 -17275314.05545  22584997.0864                   22584996.3714
 -12863458.31647  -9988195.64545  22949957.1254                   22949955.1604
 -44447907.14848 -34593652.45746  20546380.9304                   20546379.1134
 -32458303.21148 -25275352.25046  21037540.8834                   21037537.0354
  -4089433.30547  -3150705.59844  24058424.3284                   24058425.8054
 -45371709.00046 -35332622.44543  23671755.9534                   23671755.3984
 11  8 11  0  8 30.0000000  0  8G17G10G09G12G04G02G05G28
 -47565348.98048 -37027605.60545  22394246.6564                   22394245.1174
 -25031896.91848 -19475788.35245  21596851.1094                   21596849.5314
 -22218614.78947 -17272025.10245  22585799.9694                   22585799.5824
 -12996143.99247 -10091587.02745  22924707.9534                   22924705.9924
 -44440151.92248 -34587609.42646  20547857.0084                   20547855.1374
 -32536051.62548 -25335935.39846  21022746.1564                   21022742.0864
  -4238696.00447  -3267013.91444  24030019.9534                   24030021.4774
 -45322313.37546 -35294132.43743  23681154.8914                   23681154.3914
 11  8 11  0  9  0.0000000  0  8G17G10G09G12G04G02G05G28
 -47567427.02348 -37029224.87145  22393851.4224                   22393849.5594
 -25133415.32447 -19554893.54745  21577532.6174                   21577531.1994
 -22213860.21547 -17268320.28545  22586704.9144                   22586704.3134
 -13128586.19947 -10194788.65645  22899504.2504                   22899503.0434
 -44431972.73048 -34581236.03146  20549413.0704                   20549411.5594
 -32613378.94548 -25396190.41846  21008030.6954                   21008027.2464
  -4387895.21547  -3383272.77744  24001627.8594                   24001630.2384
 -45272597.22346 -35255392.67243  23690615.7344                   23690614.8674
 11  8 11  0  9 30.0000000  0  8G17G10G09G12G04G02G05G28
 -47569344.08248 -37030718.70345  22393486.5234                   22393484.3134
 -25234405.39847 -19633587.07045  21558314.8834                   21558313.2074
 -22208570.82447 -17264198.70345  22587711.0944                   22587711.4734
 -13260778.80147 -10297795.79345  22874349.1334                   22874347.8284
 -44423368.10948 -34574531.14546  20551050.7274                   20551048.9734
 -32690281.73048 -25456114.65246  20993396.8674                   20993392.8364
  -4537024.40246  -3499477.09044  23973250.1254                   23973251.7274
 -45222558.88746 -35216401.85543  23700137.5164                   23700137.5514
 11  8 11  0 10  0.0000000  0  8G17G10G09G12G04G02G05G28
 -47571084.19148 -37032074.64545  22393154.8914                   22393153.1054
 -25334848.94548 -19711854.72745  21539200.8524                   21539199.8364
 -22202734.03947 -17259650.61745  22588823.2424                   22588822.0904
 -13392703.63347 -10400594.30945  22849244.5704                   22849242.2424
 -44414324.83648 -34567484.44146  20552771.5234                   20552769.6524
 -32766744.98448 -25515696.38346  20978846.2504                   20978842.7504
  -4686065.31647  -3615612.63744  23944887.8984                   23944889.7624
 -45172184.48446 -35177149.17643  23709724.2894                   23709723.2504
 11  8 11  0 10 30.0000000  0  8G17G10G09G12G04G02G05G28
 -47572647.82047 -37033293.09845  22392857.4064                   22392855.9654
 -25434744.24648 -19789695.18745  21520191.9064                   21520190.3054
 -22196353.68447 -17254678.91845  22590036.3594                   22590035.5744
 -13524359.24647 -10503182.99645  22824191.1564                   22824189.5514
 -44404846.64848 -34560098.84846  20554575.3754                   20554573.6024
 -32842769.93748 -25574936.57846  20964379.1094                   20964375.4844
  -4835016.48447  -3731678.22744  23916543.2114                   23916545.6254
 -45121476.57446 -35137636.61743  23719373.1954                   23719372.8554
 11  8 11  0 11  0.0000000  0  8G17G10G09G12G04G02G05G28
 -47574033.34448 -37034372.75045  22392594.2274                   22392592.0474
 -25534087.73448 -19867105.65245  21501287.2584                   21501286.1024
 -22189431.74247 -17249285.24645  22591353.7814                   22591353.6174
 -13655742.68047 -10605559.62945  22799189.6804                   22799187.5234
 -44394934.69148 -34552375.24246  20556461.1804                   20556459.5124
 -32918355.69548 -25633834.54346  20949995.7894                   20949992.1564
  -4983873.46947  -3847670.43444  23888216.2814                   23888218.7424
 -45070436.01646 -35097864.88343  23729085.8054                   23729086.2934
 11  8 11  0 11 30.0000000  0  8G17G10G09G12G04G02G05G28
 -47575264.30147 -37035331.98045  22392359.7034                   22392357.8204
 -25632900.48448 -19944102.54746  21482483.7274                   21482482.1374
 -22181994.58247 -17243490.10945  22592768.8674                   22592768.5204
 -13786874.92247 -10707740.55545  22774235.7814                   22774233.9304
 -44384615.00448 -34544333.94546  20558425.0634                   20558423.5664
 -32993526.53148 -25692409.19546  20935691.3524                   20935687.5824
  -5132657.93747  -3963606.12544  23859904.0634                   23859905.3834
 -45019088.41046 -35057853.87943  23738857.2114                   23738857.5354
 11  8 11  0 12  0.0000000  0  8G17G10G09G12G04G02G05G28
 -47576315.37948 -37036151.01645  22392159.8364                   22392157.7194
 -25731154.98448 -20020664.45345  21463786.6174                   21463784.7504
 -22174020.41047 -17237276.48844  22594286.1174                   22594285.9964
 -13917728.41447 -10809704.25845  22749335.6094                   22749333.4964
 -44373865.12548 -34535957.42246  20560470.8284                   20560468.9774
 -33068258.04348 -25750641.52046  20921470.4304                   20921466.6884
  -5281341.93747  -4079463.55944  23831610.5634                   23831611.2114
 -44967410.71547 -35017585.65643  23748691.6254                   23748691.9804
 11  8 11  0 12 30.0000000  0  8G17G10G09G12G04G02G05G28
 -47577202.42648 -37036842.26245  22391991.2894                   22391989.0664
 -25828864.87148 -20096802.02045  21445193.1024                   21445191.4414
 -22165528.39147 -17230659.37945  22595902.6254                   22595901.8954
 -14048317.27347 -10911461.77745  22724485.4924                   22724483.2704
 -44362703.83648 -34527260.33246  20562594.7814                   20562592.9024
 -33142566.73448 -25808544.37546  20907329.9924                   20907326.1214
  -5429938.92647  -4195253.21944  23803333.2114                   23803334.3444
 -44915420.95346 -34977074.27044  23758584.9224                   23758585.5044
 11  8 11  0 13  0.0000000  0  8G17G10G09G12G04G02G05G28
 -47577907.94547 -37037392.03545  22391856.9924                   22391855.2154
 -25926010.17248 -20172499.61745  21426706.5164                   21426705.0704
 -22156504.28947 -17223627.64145  22597619.4924                   22597619.3754
 -14178621.90647 -11012997.82845  22699689.0084                   22699686.7074
 -44351116.60248 -34518231.32846  20564799.9304                   20564797.9574
 -33216435.84848 -25866104.70346  20893272.9694                   20893269.0394
  -5578429.16047  -4310959.66044  23775075.8834                   23775077.1024
 -44863104.02047 -34936307.93043  23768540.9144                   23768540.7664
 11  8 11  0 13 30.0000000  0  8G17G10G09G12G04G02G05G28
 -47578440.07048 -37037806.70745  22391755.3444                   22391754.1054
 -26022597.87548 -20247762.74245  21408326.5394                   21408324.9574
 -22146960.16847 -17216190.68445  22599435.6564                   22599435.2624
 -14308649.10947 -11114317.70345  22674946.1254                   22674943.8364
 -44339114.77048 -34508879.25846  20567083.4774                   20567082.0984
 -33289875.03148 -25923330.02746  20879298.2274                   20879293.9804
  -5726819.01247  -4426587.90244  23746838.1174                   23746839.5554
 -44810470.90646 -34895295.23044  23778556.6884                   23778556.9964
 11  8 11  0 14  0.0000000  0  8G17G10G09G12G04G02G05G28
 -47578802.23847 -37038088.94145  22391686.6954                   22391684.6254
 -26118628.64548 -20322591.88745  21390052.5234                   21390051.0864
 -22136902.05547 -17208353.23045  22601349.7114                   22601349.5434
 -14438399.26247 -11215421.71945  22650255.2974                   22650252.8164
 -44326703.93048 -34499208.48846  20569445.2974                   20569443.7074
 -33362887.62548 -25980222.93446  20865403.7114                   20865400.2464
  -5875108.27747  -4542137.77344  23718619.7664                   23718620.1134
 -44757526.28546 -34854039.78543  23788631.7734                   23788631.9534
 11  8 11  0 14 30.0000000  0  8G17G10G09G12G04G02G05G28
 -47578998.37547 -37038241.80145  22391649.2584                   22391647.8324
 -26214104.41448 -20396988.57046  21371884.1254                   21371882.2664
 -22126337.46547 -17200121.13345  22603359.9924                   22603359.8324
 -14567874.51247 -11316311.51645  22625616.8204                   22625614.2464
 -44313891.00848 -34489224.41046  20571883.6334                   20571882.0784
 -33435478.82848 -26036787.50446  20851590.4924                   20851587.1684
  -6023299.45347  -4657611.21144  23690419.7814                   23690420.4104
 -44704276.41047 -34812546.48043  23798764.7894                   23798765.0354
 11  8 11  0 15  0.0000000  0  8G17G10G09G12G04G02G05G28
 -47579031.02047 -37038267.27345  22391643.3054                   22391641.2814
 -26309026.30148 -20470953.65246  21353820.9144                   21353819.7664
 -22115273.08647 -17191499.57845  22605465.4144                   22605465.3834
 -14697076.07047 -11416988.05545  22601030.7034                   22601029.0664
 -44300681.90648 -34478931.62146  20574397.4384                   20574395.1804
 -33507652.59048 -26093026.77046  20837856.1954                   20837852.0594
  -6171392.93747  -4773008.54344  23662238.2194                   23662238.2154
 -44650727.12946 -34770819.87143  23808954.6564                   23808955.2544
 11  8 11  0 15 30.0000000  0  8G17G10G09G12G04G02G05G28
 -47578891.71947 -37038158.76645  22391669.5314                   22391667.9024
 -26403383.20748 -20544478.50045  21335865.5234                   21335863.9224
 -22103703.54747 -17182484.40645  22607667.3834                   22607667.1524
 -14825992.80147 -11517442.62945  22576498.5314                   22576496.2974
 -44287070.56648 -34468325.39146  20576987.3134                   20576985.8054
 -33579400.62148 -26148934.31646  20824203.3834                   20824198.9694
  -6319377.59847  -4888321.03944  23634077.3834                   23634078.4774
 -44596871.81246 -34728854.80143  23819203.2194                   23819203.5204
 11  8 11  0 16  0.0000000  0  8G17G10G09G12G04G02G05G28
 -47578593.27047 -37037926.24245  22391726.4454                   22391725.4964
 -26497186.10948 -20617571.64845  21318014.9064                   21318013.6414
 -22091644.91447 -17173088.11345  22609962.1334                   22609961.8444
 -14954635.19947 -11617683.46145  22552018.4694                   22552017.3244
 -44273072.73848 -34457418.00446  20579650.9614                   20579649.4024
 -33650736.99648 -26204521.08246  20810628.4384                   20810624.3714
  -6467263.58247  -5003556.64844  23605935.7114                   23605936.2664
 -44542725.41446 -34686662.89143  23829506.9694                   23829507.6484
 11  8 11  0 16 30.0000000  0  8G17G10G09G12G04G02G05G28
 -47578115.77047 -37037554.17245  22391817.6954                   22391815.4184
 -26590413.34448 -20690216.21945  21300274.7664                   21300273.5274
 -22079081.08647 -17163298.14545  22612353.2194                   22612352.7704
 -15082982.17647 -11717694.07445  22527595.0474                   22527593.4494
 -44258671.71948 -34446196.44946  20582391.9384                   20582389.8984
 -33721642.97348 -26259772.46546  20797135.3524                   20797131.2344
  -6615029.35947  -5118698.62144  23577815.9064                   23577816.9614
 -44488270.52346 -34644230.66443  23839869.8524                   23839869.8284
 11  8 11  0 17  0.0000000  0  8G17G10G09G12G04G02G05G28
 -47577455.32447 -37037039.56645  22391943.1644                   22391941.3134
 -26683059.17648 -20762407.75046  21282644.6174                   21282643.2544
 -22066011.85947 -17153114.36744  22614839.7504                   22614839.9304
 -15211027.50847 -11817469.64145  22503228.5314                   22503227.0314
 -44243866.58248 -34434659.98446  20585208.8204                   20585207.3484
 -33792115.49648 -26314686.10546  20783724.7344                   20783721.0274
  -6762668.23847  -5233741.71944  23549721.8204                   23549722.2544
 -44433506.09046 -34601557.23443  23850291.6484                   23850291.2074
 11  8 11  0 17 30.0000000  0  8G17G10G09G12G04G02G05G28
 -47576629.00447 -37036395.71545  22392100.2034                   22392098.6954
 -26775138.10548 -20834157.53946  21265122.9224                   21265121.4694
 -22052457.39547 -17142552.50445  22617419.5634                   22617419.3714
 -15338785.85247 -11917021.56245  22478916.9924                   22478915.4224
 -44228676.78548 -34422823.79346  20588099.6174                   20588098.0514
 -33862172.12548 -26369275.67246  20770393.0944                   20770389.4884
  -6910194.81647  -5348697.29344  23521648.4144                   23521648.6994
 -44378450.88746 -34558657.18443  23860767.6884                   23860767.9804
 11  8 11  0 18  0.0000000  0  8G17G10G09G12G04G02G05G28
 -47575628.74247 -37035616.30145  22392290.7274                   22392289.2544
 -26866640.61348 -20905458.17246  21247710.3134                   21247709.0124
 -22038413.47347 -17131609.21945  22620091.4534                   22620091.6374
 -15466247.56647 -12016342.33645  22454662.2114                   22454660.1724
 -44213097.15648 -34410683.83646  20591064.0394                   20591062.0594
 -33931806.26248 -26423536.02746  20757142.4224                   20757138.7664
  -7057599.02747  -5463557.53144  23493597.8364                   23493598.8014
 -44323099.44946 -34515526.31643  23871301.0704                   23871300.6484
 11  8 11  0 18 30.0000000  0  8G17G10G09G12G04G02G05G28
 -47574448.19947 -37034696.42645  22392515.2814                   22392513.9344
 -26957558.85548 -20976303.53545  21230409.0944                   21230407.9924
 -22023877.79347 -17120282.77345  22622857.6174                   22622857.9224
 -15593404.55147 -12115425.66045  22430464.5704                   22430462.2734
 -44197125.04348 -34398238.05546  20594103.3594                   20594101.7074
 -34001013.06248 -26477463.38346  20743972.8834                   20743969.0904
  -7204872.54347  -5578315.91844  23465571.8594                   23465573.1024
 -44267448.55946 -34472162.08643  23881891.0474                   23881891.4694
 11  8 11  0 19  0.0000000  0  8G17G10G09G12G04G02G05G28
 -47573104.60947 -37033649.51245  22392771.3444                   22392769.7704
 -27047907.33648 -21046704.92245  21213216.5944                   21213214.9224
 -22008870.17647 -17108588.59844  22625713.9534                   22625713.4384
 -15720271.54747 -12214283.00845  22406323.1254                   22406320.7854
 -44180779.84848 -34385501.56246  20597213.6334                   20597212.1214
 -34069809.55548 -26531071.02046  20730881.2424                   20730877.4414
  -7352029.29347  -5692983.33644  23437569.1724                   23437569.6054
 -44211516.83646 -34428579.03143  23892534.5474                   23892534.9804
 11  8 11  0 19 30.0000000  0  8G17G10G09G12G04G02G05G28
 -47571580.95747 -37032462.29345  22393061.0394                   22393059.3754
 -27137667.66448 -21116648.00046  21196135.7734                   21196134.0274
 -21993377.62947 -17096516.51645  22628662.3054                   22628661.2774
 -15846829.44547 -12312899.49645  22382239.3834                   22382237.3714
 -44164047.58648 -34372463.44546  20600397.8754                   20600396.2194
 -34138180.32448 -26584346.91846  20717870.9224                   20717866.9224
  -7499050.27347  -5807544.97745  23409592.6174                   23409592.1604
 -44155289.93746 -34384766.02343  23903234.3674                   23903235.0164
 11  8 11  0 20  0.0000000  0  8G17G10G09G12G04G02G05G28
 -47569878.95747 -37031136.08645  22393385.0084                   22393382.9844
 -27226839.74648 -21186132.71545  21179166.5164                   21179165.3324
 -21977405.84047 -17084071.02045  22631700.8754                   22631700.8014
 -15973078.36748 -12411275.22745  22358215.3524                   22358213.3674
 -44146933.09848 -34359127.51246  20603654.6414                   20603653.3984
 -34206128.38348 -26637293.43746  20704940.5084                   20704936.6374
  -7645935.08247  -5922000.48045  23381641.0394                   23381640.8754
 -44098772.32046 -34340726.43043  23913989.1954                   23913989.9264
 11  8 11  0 20 30.0000000  0  8G17G10G09G12G04G02G05G28
 -47567999.52047 -37029671.62945  22393742.7664                   22393740.5904
 -27315422.65248 -21255158.32046  21162309.7194                   21162308.5704
 -21960959.06247 -17071255.39845  22634830.9694                   22634830.0784
 -16099016.67247 -12509408.91845  22334249.7114                   22334248.0594
 -44129440.09448 -34345496.60546  20606983.3914                   20606981.8794
 -34273655.59848 -26689912.01646  20692090.5164                   20692086.6844
  -7792682.11747  -6036348.66045  23353716.1484                   23353715.7544
 -44041967.21146 -34296462.82443  23924799.3284                   23924799.4454
 11  8 11  0 21  0.0000000  0  8G17G10G09G12G04G02G05G28
 -47565939.28947 -37028066.28545  22394135.0554                   22394132.9024
 -27403411.31648 -21323720.88346  21145566.2814                   21145564.7274
 -21944037.46147 -17058069.78544  22638051.2974                   22638050.6294
 -16224639.45747 -12607296.74245  22310344.2274                   22310342.8634
 -44111568.31248 -34331570.57446  20610384.2584                   20610382.7704
 -34340759.41048 -26742200.67246  20679321.2034                   20679317.3834
  -7939285.87547  -6150585.19944  23325817.3984                   23325817.6294
 -43984873.72746 -34251974.54343  23935663.1564                   23935663.6954
 11  8 11  0 21 30.0000000  0  8G17G10G09G12G04G02G05G28
 -47563698.23847 -37026320.04345  22394561.3914                   22394559.6134
 -27490804.04348 -21391819.07046  21128935.7814                   21128934.3134
 -21926644.84847 -17044517.12944  22641361.4224                   22641360.1294
 -16349944.84447 -12704937.25445  22286499.5864                   22286497.6914
 -44093320.67648 -34317351.66046  20613856.8984                   20613855.5124
 -34407441.03548 -26794160.35946  20666632.3674                   20666628.1954
  -8085743.86347  -6264708.16444  23297947.6094                   23297947.7234
 -43927494.24246 -34207263.39543  23946582.3284                   23946582.9534
 11  8 11  0 22  0.0000000  0  8G17G10G09G12G04G02G05G28
 -47561294.40247 -37024446.94145  22395018.4144                   22395016.7114
 -27577616.88748 -21459465.41846  21112415.9774                   21112414.5554
 -21908802.62947 -17030614.17244  22644756.6644                   22644755.9884
 -16474948.30547 -12802342.50845  22262712.0704                   22262710.6954
 -44074717.71548 -34302855.85946  20617396.9774                   20617395.4024
 -34473719.47348 -26845805.87546  20654019.9064                   20654015.9494
  -8232071.60947  -6378729.66844  23270101.9454                   23270101.6994
 -43869849.46546 -34162345.52043  23957552.4774                   23957552.4104
 11  8 11  0 22 30.0000000  0  8G17G10G09G12G04G02G05G28
 -47558729.85547 -37022448.62145  22395506.4144                   22395504.8054
 -27663850.34048 -21526660.27346  21096006.1644                   21096004.8324
 -21890516.74247 -17016365.48444  22648235.9454                   22648235.4964
 -16599650.19547 -12899512.77745  22238982.3524                   22238979.6954
 -44055764.94148 -34288087.48846  20621003.7974                   20621002.2704
 -34539598.27748 -26897140.00046  20641483.3594                   20641479.4064
  -8378268.89147  -6492649.49244  23242281.5234                   23242281.5784
 -43811943.97746 -34117224.45743  23968571.3984                   23968571.2734
 11  8 11  0 23  0.0000000  0  8G17G10G09G12G04G02G05G28
 -47555978.37947 -37020304.63345  22396030.3284                   22396028.0124
 -27749476.83648 -21593382.18746  21079712.4144                   21079710.5514
 -21871764.97747 -17001753.75444  22651804.4224                   22651803.6024
 -16724022.27747 -12996426.03945  22215315.2114                   22215313.2114
 -44036438.55948 -34273027.99246  20624681.3984                   20624679.7274
 -34605051.82448 -26948142.75046  20629028.0474                   20629023.9144
  -8524307.07047  -6606445.36744  23214491.0474                   23214491.5044
 -43753753.82046 -34071881.63743  23979644.2274                   23979644.6564
 11  8 11  0 23 30.0000000  0  8G17G10G09G12G04G02G05G28
 -47553031.37147 -37018008.29745  22396591.4924                   22396589.8754
 -27834485.69548 -21659622.83246  21063535.2584                   21063534.0434
 -21852541.96547 -16986774.83644  22655462.5314                   22655462.5634
 -16848053.57447 -13093073.76245  22191712.8984                   22191710.8634
 -44016733.07048 -34257673.08246  20628431.0084                   20628429.3634
 -34670072.68748 -26998808.34046  20616655.0084                   20616650.7234
  -8670174.98047  -6720108.54744  23186734.0634                   23186733.1994
 -43695273.05146 -34026312.31643  23990772.9144                   23990773.4414
 11  8 11  0 24  0.0000000  0  8G17G10G09G12G04G02G05G28
 -47549903.89547 -37015571.32445  22397186.5394                   22397184.6294
 -27918890.44148 -21725392.73446  21047473.2504                   21047472.1334
 -21832866.93047 -16971443.67644  22659206.6254                   22659206.2424
 -16971757.76247 -13189466.62145  22168172.3754                   22168170.5044
 -43996666.55548 -34242036.85946  20632249.4064                   20632247.8444
 -34734677.28948 -27049149.57046  20604360.8754                   20604356.7504
  -8815885.89847  -6833649.41044  23159005.5554                   23159005.4534
 -43636519.13346 -33980530.19143  24001953.3914                   24001953.8134
 11  8 11  0 24 30.0000000  0  8G17G10G09G12G04G02G05G28
 -47546604.78147 -37013000.62145  22397814.6174                   22397812.3524
 -28002698.43748 -21790697.63346  21031525.2504                   21031524.0634
 -21812752.43747 -16955770.10544  22663033.9064                   22663033.9264
 -17095141.54347 -13285609.80145  22144693.5314                   22144690.8874
 -43976251.03148 -34226128.67246  20636134.4304                   20636133.0164
 -34798876.03548 -27099174.54746  20592144.3054                   20592140.5124
  -8961446.00847  -6947072.74244  23131306.4694                   23131306.3554
 -43577503.83646 -33934544.42243  24013184.9454                   24013184.5394
 11  8 11  0 25  0.0000000  0  8G17G10G09G12G04G02G05G28
 -45967720.18447 -35782700.96545  22698266.4304                   22698264.0744
 -26510491.32048 -20627938.81646  21315483.0554                   21315481.4804
 -20216788.37147 -15712161.78945  22966736.6954                   22966736.3484
 -15642784.66848 -12153903.13745  22421067.7814                   22421065.6024
 -42380075.64848 -32982355.65646  20939876.5314                   20939874.6414
 -33287253.41848 -25921286.78546  20879796.5234                   20879792.8754
  -7531433.91047  -5832777.47345  23403428.6724                   23403427.9104
 -41942817.16446 -32660762.72843  24324255.2504                   24324254.7704
 11  8 11  0 25 30.0000000  0  8G17G10G09G12G04G02G05G28
 -45964067.93747 -35779855.05945  22698961.2584                   22698959.3554
 -26593090.85548 -20692302.06246  21299764.9614                   21299763.6094
 -20195795.61347 -15695803.86744  22970730.1804                   22970730.5744
 -15765511.00047 -12249534.01645  22397713.4454                   22397711.6914
 -42358960.14848 -32965902.03946  20943895.0004                   20943893.6214
 -33350632.95748 -25970673.43046  20867735.9694                   20867732.0354
  -7676675.18747  -5945952.37544  23375789.5314                   23375789.3524
 -41883276.10546 -32614367.25443  24335584.8134                   24335585.6454
 11  8 11  0 26  0.0000000  0  8G17G10G09G12G04G02G05G28
 -45960226.35247 -35776861.64545  22699691.7194                   22699690.5354
 -26675071.25448 -20756182.87946  21284164.4384                   21284163.0394
 -20174356.89847 -15679098.43444  22974811.5864                   22974810.7664
 -15887893.09848 -12344896.68045  22374424.9144                   22374422.4574
 -42337486.58648 -32949169.41446  20947980.9454                   20947979.2464
 -33413592.07848 -26019732.47746  20855755.2194                   20855750.9844
  -7821740.75047  -6058990.33245  23348184.2424                   23348184.7704
 -41823463.33246 -32567759.99242  24346966.6804                   24346968.2504
 11  8 11  0 26 30.0000000  0  8G17G10G09G12G04G02G05G28
 -45956218.46547 -35773738.62945  22700454.4844                   22700452.7584
 -26756454.27748 -20819598.19946  21268677.8984                   21268676.4884
 -20152499.16847 -15662066.46144  22978970.0004                   22978969.2664
 -16009952.03548 -12440007.51645  22351197.8054                   22351195.6484
 -42315681.03548 -32932178.07446  20952130.7894                   20952128.9264
 -33476155.16848 -26068482.92646  20843849.8204                   20843845.3954
  -7966651.50047  -6171907.65645  23320609.3674                   23320609.0394
 -41763404.31246 -32520960.89542  24358396.9844                   24358396.9614
 11  8 11  0 27  0.0000000  0  8G17G10G09G12G04G02G05G28
 -45952020.50047 -35770467.51645  22701253.6644                   22701251.5204
 -26837214.33648 -20882528.08646  21253309.4144                   21253308.3244
 -20130202.28547 -15644692.33644  22983212.4774                   22983213.5004
 -16131661.84048 -12534846.27745  22328037.0944                   22328034.8714
 -42293522.11348 -32914911.40246  20956347.4144                   20956345.7704
 -33538299.30948 -26116906.91046  20832024.0864                   20832020.3054
  -8111381.03547  -6284683.78545  23293067.6804                   23293067.7034
 -41703077.97746 -32473953.52742  24369875.6484                   24369877.1374
 11  8 11  0 27 30.0000000  0  8G17G10G09G12G04G02G05G28
 -45947648.01647 -35767060.40645  22702085.6334                   22702083.1724
 -26917365.60548 -20944983.59846  21238057.8284                   21238055.9534
 -20107485.33647 -15626990.88745  22987536.3524                   22987535.8874
 -16253035.95748 -12629423.49646  22304940.8444                   22304938.3524
 -42271028.50848 -32897383.91846  20960627.7194                   20960625.9184
 -33600041.12548 -26165017.39146  20820274.9534                   20820270.9104
  -8255942.37147  -6397328.84045  23265559.0554                   23265558.1884
 -41642502.31646 -32426751.84442  24381403.5314                   24381404.3014
 11  8 11  0 28  0.0000000  0  8G17G10G09G12G04G02G05G28
 -45943098.69947 -35763515.52345  22702951.1094                   22702949.9494
 -26996904.21948 -21006961.71546  21222921.8594                   21222920.3484
 -20084349.69547 -15608963.18044  22991938.8444                   22991938.3164
 -16374069.92648 -12723735.64546  22281908.4304                   22281906.3484
 -42248200.83648 -32879596.12546  20964971.9924                   20964970.0004
 -33661379.67648 -26212813.64546  20808602.8834                   20808598.7854
  -8400330.94147  -6509839.28945  23238082.0784                   23238082.4454
 -41581677.55545 -32379356.09842  24392977.9614                   24392979.4884
 11  8 11  0 28 30.0000000  0  8G17G10G09G12G04G02G05G28
 -45938365.48847 -35759827.35245  22703852.1334                   22703850.5474
 -27075821.84848 -21068455.94146  21207904.3134                   21207902.9924
 -20060792.68747 -15590607.13344  22996421.2814                   22996421.3014
 -16494755.10948 -12817776.00446  22258942.9924                   22258940.8324
 -42225035.10248 -32861544.91446  20969380.0864                   20969378.3014
 -33722309.55548 -26260291.45346  20797008.0474                   20797004.0394
  -8544537.59847  -6622207.98845  23210640.5474                   23210640.1254
 -41520599.78546 -32331763.15642  24404601.3914                   24404602.4964
 11  8 11  0 29  0.0000000  0  7G17G10G09G12G04G02G05
 -45933452.67647 -35755999.21945  22704787.1724                   22704785.3954
 -27154121.50848 -21129468.64146  21193004.4694                   21193002.5354
 -20036822.28547 -15571928.96145  23000983.4064                   23000982.9884
 -16615093.82448 -12911546.39546  22236043.1804                   22236041.5084
 -42201538.73048 -32843236.06646  20973851.2504                   20973849.5664
 -33782836.22348 -26307455.07846  20785490.4064                   20785486.6094
  -8688564.33247  -6734436.48845  23183233.2424                   23183232.6094
 11  8 11  0 29 30.0000000  0  7G17G10G09G12G04G02G05
 -45928358.03147 -35752029.41445  22705756.7664                   22705754.7114
 -27231799.27748 -21189996.75446  21178222.7504                   21178221.2114
 -20012439.85547 -15552929.73845  23005622.6724                   23005623.2734
 -16735081.48048 -13005043.24646  22213210.1484                   22213208.0784
 -42177711.91448 -32824669.71946  20978385.4614                   20978383.8594
 -33842958.36748 -26354303.49646  20774049.0314                   20774045.0084
  -8832405.57447  -6846520.45745  23155860.3984                   23155860.2074
 11  8 11  0 30  0.0000000  0  7G17G10G09G12G04G02G05
 -45923079.28547 -35747916.14845  22706761.0314                   22706759.3714
 -27308851.87548 -21250037.72346  21163560.0394                   21163558.9184
 -19987647.13347 -15533610.77745  23010340.8134                   23010340.8484
 -16854713.92648 -13098263.29746  22190445.0164                   22190442.8714
 -42153555.31648 -32805846.40246  20982982.1724                   20982980.3324
 -33902674.96148 -26400835.89846  20762685.8364                   20762681.4104
  -8976057.65247  -6958457.02345  23128524.3754                   23128523.9614
 11  8 11  0 30 30.0000000  0  7G17G10G09G12G04G02G05
 -45917599.05547 -35743645.88745  22707803.7974                   22707802.5204
 -27385260.50448 -21309576.91046  21149019.6414                   21149018.7894
 -19962430.61347 -15513961.61345  23015139.1644                   23015139.4264
 -16973971.56248 -13191191.31645  22167750.8984                   22167748.8554
 -42129054.82448 -32786755.11746  20987644.4844                   20987642.6954
 -33961970.13748 -26447039.92646  20751402.2424                   20751398.1884
  -9119500.48847  -7070230.54745  23101228.0704                   23101227.6804
 11  8 11  0 31  0.0000000  0  7G17G10G09G12G04G02G05
 -45911930.05147 -35739228.51645  22708882.6414                   22708880.6484
 -27461036.44548 -21368623.07846  21134599.9454                   21134598.5784
 -19936807.25447 -15493995.43445  23020015.5474                   23020016.0274
 -17092865.77348 -13283836.14546  22145126.2114                   22145123.9734
 -42104226.10548 -32767408.07846  20992369.0634                   20992367.6024
 -34020858.00448 -26492926.57046  20740196.3364                   20740192.1094
  -9262744.35247  -7181849.03545  23073969.7894                   23073969.6564
 11  8 11  0 31 30.0000000  0  7G17G10G09G12G04G02G05
 -45906048.53547 -35734645.56645  22710002.2034                   22710000.4224
 -27536154.71548 -21427156.77746  21120305.7504                   21120304.2734
 -19910756.80947 -15473696.44544  23024972.9774                   23024973.0474
 -17211370.34848 -13376177.36346  22122575.6094                   22122573.0474
 -42079048.05548 -32747788.82046  20997160.2814                   20997158.8244
 -34079316.03548 -26538478.28146  20729071.7894                   20729068.0204
  -9405763.16447  -7293292.15645  23046754.5084                   23046753.9734
 11  8 11  0 32  0.0000000  0  7G17G10G09G12G04G02G05
 -45899959.58247 -35729900.96945  22711160.6334                   22711159.3094
 -27610619.17248 -21485181.00846  21106135.3134                   21106134.2624
 -19884288.00047 -15453071.44944  23030009.8284                   23030009.6524
 -17329487.81648 -13468216.92645  22100097.8914                   22100096.2424
 -42053528.64848 -32727903.59046  21002016.9144                   21002015.0984
 -34137350.30548 -26583699.77746  20718028.3754                   20718024.2034
  -9548559.50847  -7404561.94144  23019580.4144                   23019580.5274
 11  8 11  0 32 30.0000000  0  7G17G10G09G12G04G02G05
 -45893684.58247 -35725011.41045  22712354.8594                   22712353.1844
 -27684450.02048 -21542711.53146  21092086.0314                   21092084.7424
 -19857426.28147 -15432140.31245  23035121.4144                   23035121.3364
 -17447238.55148 -13559970.74246  22077691.2814                   22077689.1684
 -42027692.18748 -32707771.29346  21006933.4384                   21006931.4844
 -34194983.83248 -26628609.02346  20707061.4384                   20707056.8954
  -9691152.41447  -7515673.21145  22992446.6414                   22992445.9924
 11  8 11  0 33  0.0000000  0  7G17G10G09G12G04G02G05
 -45887207.60947 -35719964.45745  22713587.3284                   22713585.8094
 -27757630.25448 -21599735.07046  21078160.4534                   21078158.7304
 -19830159.76247 -15410893.72745  23040310.0474                   23040309.9574
 -17564604.11747 -13651424.42645  22055356.7814                   22055355.3404
 -42001525.84448 -32687381.96546  21011912.1724                   21011910.5434
 -34252202.08248 -26673194.66046  20696172.7504                   20696168.3484
  -9833523.65647  -7626611.75845  22965353.5704                   22965353.6604
 11  8 11  0 33 30.0000000  0  7G17G10G09G12G04G02G05
 -45880544.28547 -35714772.31645  22714855.8284                   22714853.4734
 -27830174.17248 -21656262.78946  21064355.5704                   21064354.4494
 -19802507.78147 -15389346.77744  23045571.8204                   23045572.3594
 -17681598.43048 -13742588.82046  22033094.0634                   22033091.4804
 -41975047.82848 -32666749.76646  21016951.0234                   21016949.5474
 -34309021.60248 -26717469.59446  20685360.4384                   20685356.1994
  -9975686.36347  -7737387.80945  22938300.8524                   22938301.1214
 11  8 11  0 34  0.0000000  0  7G17G10G09G12G04G02G05
 -45873695.68047 -35709435.79345  22716158.7814                   22716157.1214
 -27902081.83248 -21712294.71546  21050672.1724                   21050670.8444
 -19774475.69147 -15367503.65644  23050906.1484                   23050906.5314
 -17798220.48848 -13833463.14146  22010901.2584                   22010899.6414
 -41948262.80148 -32645878.33646  21022048.3834                   21022046.6294
 -34365445.38748 -26761436.16446  20674623.3754                   20674619.0554
 -10117639.36347  -7848000.42645  22911288.5944                   22911287.9104
 11  8 11  0 34 30.0000000  0  7G17G10G09G12G04G02G05
 -45866648.18447 -35703944.28145  22717499.7424                   22717498.3054
 -27973338.19148 -21767819.14546  21037112.7034                   21037110.7034
 -19746053.20347 -15345356.31245  23056314.9064                   23056315.1174
 -17914454.52048 -13924035.09446  21988783.0394                   21988781.1374
 -41921159.35948 -32624758.77746  21027205.8284                   21027203.9694
 -34421460.55148 -26805084.33246  20663964.2664                   20663959.8284
 -10259366.53147  -7958437.07845  22884318.2504                   22884318.1454
 11  8 11  0 35  0.0000000  0  7G17G10G09G12G04G02G05
 -45859413.92647 -35698307.23445  22718876.3674                   22718874.8164
 -28043954.55948 -21822844.85946  21023674.5394                   21023672.9414
 -19717256.44147 -15322917.32044  23061794.7504                   23061794.9224
 -18030310.65648 -14014312.59046  21966736.3444                   21966734.0354
 -41893752.62948 -32603402.91446  21032421.2814                   21032419.2704
 -34477080.93448 -26848424.87946  20653379.7504                   20653375.7854
 -10400877.65247  -8068705.39845  22857389.8364                   22857389.0044
 11  8 11  0 35 30.0000000  0  7G17G10G09G12G04G02G05
 -45851979.80147 -35692514.43045  22720291.7194                   22720289.5824
 -28113916.82848 -21877360.89146  21010361.1564                   21010359.7194
 -19688076.72747 -15300179.91444  23067347.1644                   23067347.1524
 -18145773.83248 -14104283.86746  21944764.4844                   21944762.0514
 -41866032.60248 -32581802.90646  21037696.4534                   21037694.4694
 -34532295.12148 -26891448.91446  20642873.1334                   20642869.1484
 -10542157.26247  -8178793.29345  22830505.2194                   22830504.8094
 11  8 11  0 36  0.0000000  0  7G17G10G09G12G04G02G05
 -45844353.42647 -35686571.83645  22721742.1564                   22721741.0234
 -28183231.85248 -21931372.57846  20997171.0394                   20997169.5354
 -19658525.19147 -15277152.77744  23072970.3674                   23072970.3164
 -18260849.58248 -14193953.25446  21922866.0704                   21922864.0394
 -41838009.75848 -32559966.94946  21043028.8134                   21043027.3204
 -34587112.00848 -26934163.35946  20632441.3754                   20632437.1174
 -10683210.55147  -8288704.84445  22803663.2814                   22803662.8244
 11  8 11  0 36 30.0000000  0  7G17G10G09G12G04G02G05
 -45836543.36747 -35680486.10545  22723228.9224                   22723226.9344
 -28251906.60248 -21984885.34046  20984102.6414                   20984100.7664
 -19628614.41847 -15253845.75044  23078662.4304                   23078662.3364
 -18375544.62148 -14283325.97346  21901040.4534                   21901038.4844
 -41809695.35948 -32537903.81246  21048416.5704                   21048415.1914
 -34641541.09048 -26976575.62146  20622083.9614                   20622079.8054
 -10824043.48847  -8398444.68045  22776864.0234                   22776863.3054
 11  8 11  0 37  0.0000000  0  7G17G10G09G12G04G02G05
 -45828538.75447 -35674248.76645  22724751.7584                   22724750.0554
 -28319929.26648 -22037889.99646  20971158.5394                   20971156.7344
 -19598337.35547 -15230253.27044  23084423.9694                   23084423.7774
 -18489846.10248 -14372392.03546  21879289.3914                   21879286.8954
 -41781081.47348 -32515607.28946  21053862.0554                   21053860.2624
 -34695572.81248 -27018678.24646  20611802.1884                   20611797.8014
 -10964642.92247  -8508002.55945  22750108.2504                   22750108.0234
 11  8 11  0 37 30.0000000  0  7G17G10G09G12G04G02G05
 -45820341.65647 -35667861.44945  22726312.0394                   22726310.7154
 -28387301.59448 -22090387.89146  20958337.9774                   20958335.9884
 -19567700.51247 -15206380.46944  23090253.8054                   23090253.4614
 -18603754.30148 -14461151.63746  21857613.5474                   21857611.4534
 -41752173.22748 -32493081.41846  21059363.0234                   21059361.4494
 -34749211.32848 -27060474.48846  20601595.1094                   20601590.9024
 -11105008.75847  -8617378.42245  22723397.3594                   22723397.1564
 11  8 11  0 38  0.0000000  0  7G17G10G09G12G04G02G05
 -45811945.99647 -35661319.41045  22727909.7194                   22727907.9104
 -28454016.12548 -22142373.20746  20945642.1334                   20945640.5204
 -19536701.24647 -15182225.25844  23096153.0084                   23096152.6954
 -18717260.78148 -14549598.21546  21836013.7584                   21836011.9574
 -41722967.01648 -32470323.35946  21064920.7974                   21064918.8134
 -34802451.48048 -27101960.31646  20591464.0634                   20591459.8324
 -11245132.08247  -8726565.30945  22696732.6804                   22696732.4884
 11  8 11  0 38 30.0000000  0  7G17G10G09G12G04G02G05
 -45803372.77347 -35654639.00845  22729541.2194                   22729539.7734
 -28520092.97348 -22193861.63346  20933068.1644                   20933066.3594
 -19505365.09847 -15157807.52744  23102116.9844                   23102116.8674
 -18830385.19148 -14637747.07446  21814487.5234                   21814484.6214
 -41693487.31648 -32447352.18046  21070530.3524                   21070528.6374
 -34855316.27748 -27143153.64846  20581404.3134                   20581399.6024
 -11385031.85247  -8835578.00845  22670110.9304                   22670110.3754
 11  8 11  0 39  0.0000000  0  7G17G10G09G12G04G02G05
 -45794605.34447 -35647807.27345  22731210.0164                   22731208.4224
 -28585514.65648 -22244839.54746  20920618.9614                   20920617.3484
 -19473679.13747 -15133117.23044  23108146.5164                   23108146.3244
 -18943108.57848 -14725583.45346  21793036.2814                   21793033.9924
 -41663719.78948 -32424156.72746  21076195.1024                   21076193.3284
 -34907790.04348 -27184042.28146  20571418.4064                   20571414.1644
 -11524689.07047  -8944401.71145  22643534.5634                   22643534.4414
 11  8 11  0 39 30.0000000  0  7G17G10G09G12G04G02G05
 -45785637.36347 -35640819.23845  22732916.0084                   22732914.6094
 -28650274.01248 -22295301.34446  20908295.6174                   20908293.9574
 -19441640.78147 -15108152.31244  23114242.4224                   23114242.4264
 -19055422.53948 -14813100.80546  21771663.7664                   21771661.5514
 -41633661.32848 -32400734.56246  21081914.9924                   21081913.4384
 -34959867.98848 -27224622.49246  20561508.5084                   20561504.2894
 -11664094.85947  -9053029.50845  22617006.3984                   22617006.1134
 11  8 11  0 40  0.0000000  0  7G17G10G09G12G04G02G05
 -45776478.18447 -35633682.23045  22734658.8054                   22734657.5474
 -28714379.67248 -22345253.78146  20896096.6334                   20896094.6054
 -19409263.57847 -15082923.39544  23120404.0554                   23120403.7814
 -19167334.35948 -14900304.80546  21750367.6254                   21750365.5864
 -41603323.74648 -32377094.91446  21087688.3834                   21087686.6844
 -35011560.94548 -27264902.71146  20551671.6724                   20551667.3204
 -11803256.12147  -9161466.76245  22590525.5634                   22590524.2584
 11  8 11  0 40 30.0000000  0  7G17G10G09G12G04G02G05
 -45767133.83247 -35626400.94945  22736437.1564                   22736435.8484
 -28777836.64148 -22394700.75046  20884021.3134                   20884019.3054
 -19376557.21947 -15057437.99244  23126627.6954                   23126628.8324
 -19278848.07448 -14987198.57846  21729147.2894                   21729145.1564
 -41572715.82048 -32353244.60246  21093512.4694                   21093510.6294
 -35062875.72748 -27304888.24246  20541906.5314                   20541902.8794
 -11942176.32047  -9269716.17645  22564089.4774                   22564089.4884
 11  8 11  0 41  0.0000000  0  7G17G10G09G12G04G02G05
 -45757587.38347 -35618962.18045  22738253.8364                   22738252.2934
 -28840627.79748 -22443628.90246  20872072.5784                   20872070.7974
 -19343509.30147 -15031686.43444  23132917.4064                   23132917.2234
 -19389945.29348 -15073767.82446  21708006.1254                   21708004.1884
 -41541824.12948 -32329173.17646  21099391.1174                   21099389.7544
 -35113797.82448 -27344567.80946  20532216.6334                   20532212.1524
 -12080836.62147  -9377763.09445  22537702.7424                   22537702.8284
 11  8 11  0 41 30.0000000  0  7G17G10G09G12G04G02G05
 -45747845.02747 -35611370.77045  22740108.4774                   22740106.7854
 -28902757.95748 -22492041.99646  20860249.8674                   20860247.6844
 -19310129.37947 -15005676.17244  23139268.7974                   23139269.1844
 -19500629.87548 -15160015.53146  21686943.7664                   21686941.4924
 -41510656.87148 -32304887.01646  21105321.9844                   21105320.6804
 -35164334.52748 -27383947.05946  20522599.7664                   20522595.6884
 -12219240.25047  -9485609.97345  22511365.7424                   22511365.5634
 11  8 11  0 42  0.0000000  0  7G17G10G09G12G04G02G05
 -45737926.85247 -35603642.37945  22741995.1954                   22741993.8054
 -28964246.66048 -22539955.25046  20848548.3984                   20848546.8244
 -19276441.46947 -14979425.96144  23145680.0634                   23145680.1484
 -19610919.93448 -15245955.83246  21665956.3284                   21665953.8634
 -41479237.59448 -32280404.48446  21111301.1484                   21111299.3284
 -35214507.29348 -27423042.70346  20513052.2424                   20513048.1484
 -12357404.75447  -9593270.54745  22485074.0784                   22485073.2854
 11  8 11  0 42 30.0000000  0  7G17G10G09G12G04G02G05
 -45727814.19547 -35595762.43045  22743919.7274                   22743917.8244
 -29025074.31248 -22587353.41846  20836973.3754                   20836971.6484
 -19242431.23447 -14952924.52344  23152152.0864                   23152151.8244
 -19720794.70348 -15331572.53146  21645047.6644                   21645045.5704
 -41447549.92248 -32255712.81646  21117331.4064                   21117329.4774
 -35264298.80148 -27461841.27347  20503577.0634                   20503572.8714
 -12495309.64147  -9700728.80545  22458830.6254                   22458831.0944
 11  8 11  0 43  0.0000000  0  8G17G10G09G12G04G02G05G25
 -45717501.27747 -35587726.43445  22745881.9774                   22745880.4384
 -29085234.77048 -22634231.68046  20825525.3674                   20825523.6134
 -19208096.96547 -14926170.62544  23158685.6334                   23158686.0274
 -19830246.63348 -15416859.73846  21624219.1094                   21624217.4734
 -41415591.26248 -32230809.97746  21123412.2034                   21123411.0044
 -35313705.20348 -27500339.75846  20494175.8204                   20494171.3954
 -12632946.65647  -9807978.32445  22432639.8594                   22432639.2304
   2942035.30156   2326593.09854  24525271.6254                   24525274.1914
 11  8 11  0 43 30.0000000  0  8G17G10G09G12G04G02G05G25
 -45706996.75447 -35579541.13345  22747880.9224                   22747879.4534
 -29144736.10248 -22680596.34046  20814202.7194                   20814200.8364
 -19173451.13747 -14899173.94544  23165278.3834                   23165279.0554
 -19939282.75848 -15501822.94546  21603471.1414                   21603468.3134
 -41383372.98048 -32205704.85246  21129543.4614                   21129542.0554
 -35362736.38748 -27538545.88346  20484844.6094                   20484840.8914
 -12770321.92647  -9915023.89845  22406498.0704                   22406497.5824
   2799625.21147   2215624.22744  24498172.4224                   24498174.0984
 11  8 11  0 44  0.0000000  0  8G17G10G09G12G04G02G05G25
 -45696315.63747 -35571218.22745  22749913.2034                   22749911.8014
 -29203592.74648 -22726458.64846  20803002.6024                   20803001.0784
 -19138512.72747 -14871949.27344  23171926.7504                   23171927.5234
 -20047915.97748 -15586472.18446  21582798.5314                   21582796.9574
 -41350913.03948 -32180411.39546  21135720.1414                   21135719.1884
 -35411408.84848 -27576472.47746  20475583.2034                   20475579.3484
 -12907448.11747 -10021875.37545  22380403.7814                   22380402.7894
   2657356.91847   2104765.84844  24471099.6254                   24471101.1174
 11  8 11  0 44 30.0000000  0  8G17G10G09G12G04G02G05G25
 -45685440.70747 -35562744.28145  22751983.1094                   22751980.8754
 -29261786.86748 -22771804.70746  20791928.4144                   20791926.9884
 -19103268.51647 -14844486.30944  23178634.0164                   23178634.2624
 -20156127.19948 -15670792.59846  21562206.7344                   21562204.1524
 -41318196.63348 -32154918.12146  21141946.4774                   21141944.4614
 -35459706.78948 -27614107.22346  20466392.6954                   20466388.7464
 -13044305.62147 -10128517.48845  22354360.8524                   22354360.2734
   2515249.44947   1994032.77044  24444057.3754                   24444058.7774
 11  8 11  0 45  0.0000000  0  8G17G10G09G12G04G02G05G25
 -44098956.02047 -34326522.46145  23053880.7274                   23053879.4494
 -27743899.52048 -21589035.33646  21080773.0944                   21080771.0784
 -17492307.44947 -13589192.06244  23485189.6094                   23485190.0704
 -18688494.63348 -14527182.79746  21841487.5784                   21841485.3484
 -39709811.68048 -30901631.16446  21448011.8364                   21448010.3914
 -33932214.24648 -26423853.28946  20757064.5004                   20757060.2274
 -11605471.25847  -9007347.76645  22628161.3054                   22628160.9184
   3948725.71547   3111027.27044  24716838.0234                   24716839.7194
 11  8 11  0 45 30.0000000  0  8G17G10G09G12G04G02G05G25
 -44087699.45747 -34317751.15245  23056023.2114                   23056021.5984
 -27800772.78948 -21633352.16446  21069950.2034                   21069948.5044
 -17456469.68747 -13561266.59444  23492008.6174                   23492010.0204
 -18795861.82848 -14610845.52746  21821056.5084                   21821054.2544
 -39676597.13348 -30875749.72746  21454332.6804                   21454330.8794
 -33979774.20348 -26460912.99646  20748014.3364                   20748009.7034
 -11741789.98447  -9113570.06245  22602221.2814                   22602220.1334
   3806939.61747   3000544.61343  24689857.2034                   24689858.0514
 11  8 11  0 46  0.0000000  0  8G17G10G09G12G04G02G05G25
 -44076249.75847 -34308829.34044  23058201.4304                   23058200.1374
 -27856982.60248 -21677152.02046  21059254.1334                   21059252.4734
 -17420338.76247 -13533112.73044  23498884.2504                   23498885.4654
 -18902801.51648 -14694175.15246  21800706.6414                   21800704.2704
 -39643135.41048 -30849675.67646  21460699.7664                   21460698.3714
 -34026964.85948 -26497684.93046  20739033.9454                   20739029.6414
 -11877833.14547  -9219577.63745  22576333.0234                   22576332.1954
   3665319.52747   2890191.33643  24662907.6254                   24662908.6414
 11  8 11  0 46 30.0000000  0  8G17G10G09G12G04G02G05G25
 -44064596.89547 -34299749.23845  23060419.5554                   23060417.8524
 -27912518.41048 -21720426.66046  21048685.8914                   21048684.4104
 -17383908.80146 -13504725.80944  23505816.7734                   23505818.1994
 -19009302.30148 -14777162.77346  21780439.9694                   21780437.9144
 -39609418.98448 -30823403.16846  21467115.8754                   21467114.2704
 -34073777.74648 -26534162.48847  20730125.9224                   20730121.6804
 -12013588.46547  -9325360.92245  22550499.5314                   22550499.1954
   3523877.27746   2779976.66043  24635992.5314                   24635993.6374
 11  8 11  0 47  0.0000000  0  8G17G10G09G12G04G02G05G25
 -44052753.72747 -34290520.83245  23062673.0004                   23062671.6994
 -27967392.55948 -21763185.72746  21038243.8284                   21038241.8834
 -17347196.61346 -13476119.00844  23512803.1884                   23512804.0634
 -19115374.91848 -14859816.72346  21760254.8594                   21760252.8284
 -39575463.82048 -30796944.61346  21473576.7344                   21473576.2344
 -34120227.71148 -26570357.25446  20721286.8984                   20721282.5084
 -12149066.89847  -9430928.45745  22524718.8754                   22524717.8874
   3382601.84046   2669891.96943  24609108.0234                   24609109.4694
 11  8 11  0 47 30.0000000  0  8G17G10G09G12G04G02G05G25
 -44040710.23047 -34281136.34845  23064964.5864                   23064963.6884
 -28021594.68748 -21805421.14146  21027929.0944                   21027927.8204
 -17310196.02746 -13447287.43444  23519844.0234                   23519844.8594
 -19221007.37148 -14942127.72346  21740153.6884                   21740151.9844
 -39541262.38348 -30770294.18046  21480085.1884                   21480084.1094
 -34166306.08248 -26606262.46546  20712518.2734                   20712513.8914
 -12284255.72347  -9536270.32445  22498992.7114                   22498992.2544
   3241505.14846   2559946.64543  24582258.3204                   24582260.4734
 11  8 11  0 48  0.0000000  0  8G17G10G09G12G04G02G05G25
 -44028489.19947 -34271613.49245  23067290.7664                   23067289.3364
 -28075147.32048 -21847150.44946  21017738.2734                   21017736.5274
 -17272933.89846 -13418252.09444  23526934.8204                   23526935.8364
 -19326220.48048 -15024111.93746  21720132.3984                   21720130.4494
 -39506840.21147 -30743471.72346  21486635.6414                   21486634.7624
 -34212036.87548 -26641896.85246  20703815.9064                   20703811.6334
 -12419175.35547  -9641402.43045  22473318.5944                   22473317.9224
   3100566.48846   2450124.39843  24555438.5704                   24555439.9494
 11  8 11  0 48 30.0000000  0  8G17G10G09G12G04G02G05G25
 -44016066.65247 -34261933.64145  23069654.8754                   23069652.7854
 -28128026.10548 -21888354.68746  21007675.9304                   21007674.4344
 -17235390.00847 -13388997.16044  23534079.2584                   23534079.9694
 -19430988.57048 -15105749.39846  21700195.8444                   21700193.2304
 -39472176.12548 -30716460.77046  21493232.5084                   21493231.1174
 -34257398.00448 -26677243.17246  20695183.9924                   20695179.8714
 -12553799.05947  -9746303.94945  22447700.7274                   22447699.7424
   2959811.77346   2340445.47743  24528654.0634                   24528655.2584
 11  8 11  0 49  0.0000000  0  8G17G10G09G12G04G02G05G25
 -44003457.30947 -34252108.20345  23072054.2894                   23072052.7464
 -28180245.22348 -21929044.88346  20997738.8054                   20997737.4614
 -17197583.04746 -13359537.26244  23541273.8524                   23541274.7194
 -19535324.37148 -15187049.99246  21680341.0634                   21680339.5004
 -39437287.28148 -30689274.67646  21499871.6484                   21499870.0394
 -34302405.27048 -26712313.75046  20686619.2504                   20686614.9144
 -12688139.16847  -9850984.48045  22422136.4384                   22422135.3094
   2819228.30547   2230900.04744  24501902.3594                   24501903.0634
 11  8 11  0 49 30.0000000  0  8G17G10G09G12G04G02G05G25
 -43990644.72747 -34242124.39145  23074492.1254                   23074491.3754
 -28231788.32048 -21969208.31646  20987930.6414                   20987928.7464
 -17159500.88347 -13329862.90644  23548521.2274                   23548520.8444
 -19639209.78548 -15267999.65246  21660572.8674                   21660570.3244
 -39402160.51648 -30661903.19946  21506556.0704                   21506554.3284
 -34347044.42648 -26747097.49246  20678125.0314                   20678120.7424
 -12822177.35947  -9955429.76245  22396629.3914                   22396628.3714
   2678834.16847   2121502.11344  24475185.2504                   24475187.2504
 11  8 11  0 50  0.0000000  0  8G17G10G09G12G04G02G05G25
 -43977642.88347 -34231993.12145  23076966.5864                   23076965.5354
 -28282668.65248 -22008855.31246  20978248.1024                   20978246.2384
 -17121161.23047 -13299987.89844  23555817.1094                   23555816.4184
 -19742656.60248 -15348607.54746  21640887.2034                   21640884.7704
 -39366811.88748 -30634358.82446  21513282.8364                   21513281.3164
 -34391330.50048 -26781606.11346  20669697.1564                   20669692.7894
 -12955924.83647 -10059648.49645  22371178.1724                   22371176.8204
   2538617.63347   2012242.54744  24448503.3364                   24448504.9414
 11  8 11  0 50 30.0000000  0  8G17G10G09G12G04G02G05G25
 -43964460.39847 -34221721.10545  23079475.1024                   23079473.5474
 -28332894.66448 -22047992.45746  20968690.3984                   20968688.8094
 -17082577.07046 -13269922.38344  23563158.7504                   23563159.4774
 -19845671.93448 -15428879.20746  21621284.1954                   21621282.0314
 -39331253.22748 -30606650.80146  21520049.0474                   21520048.0824
 -34435273.80148 -26815847.63347  20661335.3134                   20661331.2584
 -13089388.25047 -10163645.89845  22345781.0394                   22345779.9494
   2398571.81647   1903115.99644  24421852.9304                   24421854.4344
 11  8 11  0 51  0.0000000  0  8G17G10G09G12G04G02G05G25
 -43951082.68747 -34211296.94945  23082020.3754                   23082019.6294
 -28382451.91048 -22086608.48046  20959260.4694                   20959258.6524
 -17043737.68447 -13239657.97344  23570550.0634                   23570550.8204
 -19948239.09448 -15508801.65646  21601766.0314                   21601763.7664
 -39295472.41048 -30578769.66846  21526857.7894                   21526856.5594
 -34478861.37548 -26849811.97746  20653041.0474                   20653036.6214
 -13222550.48447 -10267408.60245  22320441.2034                   22320439.7584
   2258713.41447   1794135.45744  24395238.8834                   24395240.2814
 11  8 11  0 51 30.0000000  0  8G17G10G09G12G04G02G05G25
 -43937507.83247 -34200719.19145  23084604.3524                   23084602.8594
 -28431337.53948 -22124701.16846  20949957.6094                   20949956.0004
 -17004644.71947 -13209195.95744  23577989.3754                   23577989.1294
 -20050353.89848 -15588371.62146  21582334.2894                   21582332.1054
 -39259470.07448 -30550715.92645  21533708.6954                   21533707.6804
 -34522092.77348 -26883498.76246  20644813.8444                   20644809.4414
 -13355406.75847 -10370932.90645  22295159.0084                   22295158.2464
   2119046.60247   1685304.21144  24368660.9774                   24368663.4304
 11  8 11  0 52  0.0000000  0  8G17G10G09G12G04G02G05G25
 -43923739.88347 -34189990.96545  23087224.1334                   23087222.6374
 -28479555.91448 -22162273.91846  20940781.9454                   20940780.1884
 -16965306.37147 -13178542.77744  23585475.2504                   23585475.8284
 -20152019.04748 -15667591.20746  21562988.1024                   21562985.8284
 -39223253.01248 -30522494.85945  21540601.0314                   21540599.7074
 -34564973.65648 -26916912.43446  20636654.2114                   20636649.7154
 -13487958.91848 -10474220.24245  22269935.9304                   22269934.1604
   1979568.99247   1576620.39144  24342119.4454                   24342121.3054
 11  8 11  0 52 30.0000000  0  8G17G10G09G12G04G02G05G25
 -43909780.11347 -34179113.25845  23089880.3594                   23089879.0514
 -28527108.27348 -22199327.68746  20931733.0164                   20931731.6374
 -16925728.07047 -13147702.60544  23593006.9534                   23593008.0664
 -20253233.85948 -15746459.88346  21543727.5864                   21543725.6374
 -39186825.10548 -30494109.51645  21547533.0704                   21547531.9304
 -34607507.03148 -26950055.31646  20628560.2504                   20628555.9064
 -13620205.90647 -10577269.78146  22244769.5314                   22244768.7304
   1840281.32046   1468084.56644  24315613.7034                   24315615.5004
 11  8 11  0 53  0.0000000  0  8G17G10G09G12G04G02G05G25
 -43895616.29747 -34168076.53545  23092575.9304                   23092575.0664
 -28573982.05948 -22235852.69946  20922812.8984                   20922811.8284
 -16885901.44147 -13116668.93044  23600585.5004                   23600586.0004
 -20353984.05548 -15824966.52346  21524555.5234                   21524553.0164
 -39150176.81648 -30465552.43045  21554506.6954                   21554505.3554
 -34649681.93048 -26982918.86746  20620535.0164                   20620530.6414
 -13752133.35947 -10680070.32446  22219664.3984                   22219663.6564
   1701198.04346   1359708.01643  24289147.1724                   24289148.1994
 11  8 11  0 53 30.0000000  0  8G17G10G09G12G04G02G05G25
 -43881253.23447 -34156884.59045  23095308.5164                   23095307.9264
 -28620182.00848 -22271852.66046  20914021.8834                   20914020.0664
 -16845835.32446 -13085448.66844  23608210.0784                   23608211.0824
 -20454272.83248 -15903113.59446  21505470.9534                   21505468.7584
 -39113315.53148 -30436829.36745  21561521.3984                   21561520.3484
 -34691505.09848 -27015508.32846  20612576.1094                   20612571.9454
 -13883743.38347 -10782623.53146  22194620.1804                   22194619.3794
   1562316.24646   1251488.45743  24262719.2344                   24262719.8134
 11  8 11  0 54  0.0000000  0  8G17G10G09G12G04G02G05G25
 -43866690.81247 -34145537.28944  23098079.8984                   23098078.8484
 -28665707.94948 -22307327.40646  20905358.3364                   20905356.4884
 -16805533.34047 -13054044.59844  23615878.9534                   23615879.1804
 -20554098.40647 -15980899.74246  21486475.0704                   21486472.4884
 -39076243.71948 -30407942.25845  21568575.6724                   21568574.4574
 -34732977.91448 -27047824.79346  20604684.1484                   20604679.4884
 -14015033.67648 -10884927.58246  22169636.6644                   22169635.8404
   1423638.10546   1143427.53943  24236329.3444                   24236330.2464
 11  8 11  0 54 30.0000000  0  8G17G10G09G12G04G02G05G25
 -43851929.41047 -34134034.93044  23100888.6644                   23100887.5554
 -28710560.59848 -22342277.51646  20896823.0394                   20896821.5514
 -16765000.16047 -13022460.38344  23623592.2344                   23623592.8874
 -20653459.25048 -16058323.75846  21467567.2114                   21467565.2544
 -39038964.59048 -30378893.60245  21575669.5634                   21575668.5204
 -34774102.23848 -27079869.71946  20596857.9384                   20596854.0554
 -14146002.20747 -10986980.91846  22144713.5634                   22144712.4774
   1285165.13746   1035526.52743  24209979.4844                   24209979.8204
 11  8 11  0 55  0.0000000  0  8G17G10G09G12G04G02G05G25
 -43836975.35947 -34122382.48044  23103734.7274                   23103733.1414
 -28754745.82048 -22376707.54746  20888414.7584                   20888413.2704
 -16724245.48446 -12990703.56644  23631347.0394                   23631348.1414
 -20752359.60248 -16135388.94546  21448747.0554                   21448744.9024
 -39001486.91848 -30349690.26245  21582801.6954                   21582800.5394
 -34814886.02348 -27111649.28146  20589097.3364                   20589093.2774
 -14276652.76647 -11088786.48446  22119851.6884                   22119850.2584
   1146893.33647    927782.26643  24183666.6174                   24183667.6564
 11  8 11  0 55 30.0000000  0  8G17G10G09G12G04G02G05G25
 -43821822.30947 -34110574.94544  23106618.1414                   23106617.2464
 -28798257.45348 -22410612.71546  20880135.0474                   20880133.4454
 -16683267.34846 -12958772.66044  23639145.4534                   23639146.7934
 -20850791.41847 -16212089.04746  21430016.2274                   21430013.4344
 -38963806.89148 -30320329.21145  21589971.9534                   21589970.8794
 -34855324.52348 -27143159.79346  20581402.4144                   20581397.9804
 -14406976.68447 -11190337.54745  22095051.8444                   22095050.0434
   1008830.94147    820201.22343  24157393.6254                   24157395.5904
 11  8 11  0 56  0.0000000  0  8G17G10G09G12G04G02G05G25
 -43806468.64847 -34098611.09445  23109539.7664                   23109539.0514
 -28841094.19148 -22443991.98446  20871983.5474                   20871981.3164
 -16642068.46147 -12926669.73044  23646985.2734                   23646986.3444
 -20948751.53948 -16288421.59046  21411375.1254                   21411372.9024
 -38925925.57848 -30290811.34445  21597180.2894                   21597179.5864
 -34895417.87548 -27174401.35546  20573772.6414                   20573768.8014
 -14536970.16847 -11291631.11346  22070314.8914                   22070313.9614
    870981.55947    712786.15244  24131162.6804                   24131163.6024
 11  8 11  0 56 30.0000000  0  8G17G10G09G12G04G02G05G25
 -43790919.22747 -34086494.70344  23112499.0784                   23112498.1214
 -28883260.59848 -22476848.90646  20863959.3524                   20863957.6564
 -16600657.42646 -12894401.49644  23654865.5234                   23654867.3594
 -21046242.84448 -16364388.82846  21392822.8134                   21392820.6954
 -38887850.55548 -30261142.52045  21604426.3834                   21604424.7934
 -34935172.31648 -27205378.82446  20566207.7344                   20566203.1604
 -14666635.55547 -11392669.02045  22045640.3834                   22045639.1334
    733342.44147    605534.95744  24104970.8984                   24104972.2034
 11  8 11  0 57  0.0000000  0  8G17G10G09G12G04G02G05G25
 -43775169.03947 -34074221.85545  23115496.5394                   23115495.7894
 -28924751.75448 -22509179.66846  20856064.0704                   20856062.1684
 -16559032.80547 -12861966.80144  23662786.6094                   23662787.9104
 -21143258.16048 -16439985.16846  21374361.8204                   21374359.2114
 -38849579.10548 -30231320.63345  21611709.1414                   21611707.5204
 -34974584.62548 -27236089.70346  20558707.5864                   20558703.1604
 -14795965.42647 -11493445.49646  22021029.6024                   22021028.2894
    595920.80147    498453.19944  24078819.7894                   24078821.3244
 11  8 11  0 57 30.0000000  0  8G17G10G09G12G04G02G05G25
 -43759222.02747 -34061795.62944  23118530.6254                   23118530.0234
 -28965571.35548 -22540987.12946  20848295.9694                   20848294.2274
 -16517202.36347 -12829371.76244  23670747.2034                   23670748.2424
 -21239800.15248 -16515212.68446  21355990.2034                   21355987.4964
 -38811117.48448 -30201350.56245  21619027.5704                   21619026.6254
 -35013660.19948 -27266538.19946  20551271.9224                   20551267.6374
 -14924961.27747 -11593961.69945  21996482.1644                   21996480.9304
    458714.80547    391539.47344  24052710.1094                   24052711.7344
 11  8 11  0 58  0.0000000  0  8G17G10G09G12G04G02G05G25
 -43743082.82847 -34049219.67244  23121601.9844                   23121600.8714
 -29005724.79748 -22572275.51646  20840655.5234                   20840653.2734
 -16475175.16047 -12796623.35944  23678744.7584                   23678746.1804
 -21335871.78947 -16590073.69546  21337708.4384                   21337705.7664
 -38772473.45348 -30171238.35545  21626381.6484                   21626380.2114
 -35052405.33648 -27296729.21146  20543898.8284                   20543894.8914
 -15053625.55547 -11694219.52045  21971998.3754                   21971997.2734
    321721.58647    284791.57044  24026641.5634                   24026642.6564
 11  8 11  0 58 30.0000000  0  8G17G10G09G12G04G02G05G25
 -43726746.89547 -34036490.39544  23124711.2894                   23124709.7624
 -29045207.32848 -22603041.10946  20833141.6954                   20833139.9414
 -16432950.39146 -12763721.05544  23686779.6334                   23686781.2974
 -21431466.17247 -16664562.81646  21319517.6024                   21319514.7424
 -38733644.64548 -30140982.16445  21633770.6724                   21633769.4804
 -35090817.06248 -27326660.41846  20536589.2344                   20536585.1454
 -15181951.07047 -11794213.37546  21947579.1334                   21947577.4384
    184948.03547    178214.83644  24000614.4774                   24000615.6094
 11  8 11  0 59  0.0000000  0  8G17G10G09G12G04G02G05G25
 -43710216.26647 -34023609.41444  23127856.1024                   23127855.0664
 -29084021.74247 -22633286.09846  20825756.1024                   20825754.4064
 -16390534.05146 -12730669.43044  23694851.3674                   23694852.4884
 -21526584.25447 -16738680.80146  21301417.2734                   21301414.6684
 -38694635.93048 -30110585.80145  21641193.6414                   21641192.4734
 -35128899.15648 -27356334.78146  20529342.5784                   20529338.1564
 -15309937.86747 -11893943.28946  21923223.9064                   21923222.5634
     48393.95747     71809.11344  23974628.6884                   23974630.2774
 11  8 11  0 59 30.0000000  0  8G17G10G09G12G04G02G05G25
 -43693477.39847 -34010566.17244  23131041.6174                   23131040.5594
 -29122154.21548 -22662999.69946  20818499.1094                   20818497.7734
 -16347916.57447 -12697461.08244  23702961.3674                   23702962.8634
 -21621210.32047 -16812415.38746  21283410.0234                   21283408.0664
 -38655435.88748 -30080040.32845  21648653.2504                   21648652.0704
 -35166639.56248 -27385742.87946  20522161.0864                   20522157.1804
 -15437569.89147 -11993396.76246  21898936.0784                   21898934.8794
    -87924.70347    -34413.13344  23948687.4694                   23948689.8984
 11  8 11  1  0  0.0000000  0  8G17G10G09G12G04G02G05G25
 -43676525.51247 -33997356.94144  23134268.0084                   23134266.2934
 -29159600.70348 -22692178.77746  20811373.3834                   20811372.0204
 -16305097.12147 -12664095.37144  23711110.3834                   23711110.9614
 -21715337.98448 -16885761.62146  21265498.3364                   21265495.9924
 -38616042.27348 -30049344.02745  21656149.6954                   21656148.3054
 -35204035.05948 -27414882.21546  20515044.9454                   20515040.4574
 -15564840.18047 -12092568.35946  21874717.3674                   21874716.4064
   -224001.28546   -140446.71944  23922792.8444                   23922795.0984
 11  8 11  1  0 30.0000000  0  8G17G10G09G12G04G02G05G25
 -43659390.50447 -33984005.03944  23137528.4844                   23137527.1684
 -29196390.72747 -22720846.30546  20804372.6644                   20804370.8284
 -16262108.84847 -12630598.10544  23719290.3524                   23719291.1214
 -21808994.97347 -16958741.08246  21247676.3204                   21247673.0744
 -38576487.24248 -30018521.95745  21663677.0234                   21663675.0474
 -35241116.80148 -27443777.07446  20507988.3754                   20507983.8134
 -15691775.66447 -12191479.06246  21850562.3134                   21850561.2624
   -359863.04746   -246312.89843  23896939.1484                   23896941.8794
 11  8 11  1  1  0.0000000  0  8G17G10G09G12G04G02G05G25
 -43642047.75847 -33970491.24244  23140828.6174                   23140828.1254
 -29232500.16048 -22748983.51646  20797501.3364                   20797499.5744
 -16218931.30547 -12596953.35544  23727506.4774                   23727507.4964
 -21902155.20348 -17031333.47746  21229948.2894                   21229945.8834
 -38536748.76648 -29987556.94145  21671238.4304                   21671237.4494
 -35277862.15648 -27472409.82046  20500996.0084                   20500991.8914
 -15818349.38747 -12290107.88746  21826476.0084                   21826475.2274
   -495483.51246   -351991.09444  23871131.9694                   23871133.4344
 11  8 11  1  1 30.0000000  0  8G17G10G09G12G04G02G05G25
 -43624516.02747 -33956830.18744  23144164.3674                   23144163.5084
 -29267948.50048 -22776605.57446  20790755.4144                   20790753.7814
 -16175587.38347 -12563178.93444  23735755.1334                   23735755.5434
 -21994836.01647 -17103552.27346  21212311.3754                   21212309.0274
 -38496848.55548 -29956465.89145  21678831.6564                   21678830.2384
 -35314291.45348 -27500796.28146  20494063.6724                   20494059.5124
 -15944578.50847 -12388468.19946  21802455.5004                   21802454.4654
   -630879.46947   -457494.36343  23845367.1484                   23845368.0314
 11  8 11  1  2  0.0000000  0  8G17G10G09G12G04G02G05G25
 -43606792.74247 -33943019.87544  23147537.2664                   23147536.3014
 -29302733.27748 -22803710.58246  20784135.8914                   20784134.3164
 -16132078.41447 -12529275.94144  23744034.7194                   23744035.5554
 -22087032.77748 -17175393.89546  21194767.1724                   21194764.7034
 -38456785.93048 -29925248.28545  21686455.7734                   21686454.0904
 -35350403.93048 -27528935.86746  20487191.8364                   20487187.8094
 -16070457.80547 -12486555.90646  21778501.2814                   21778500.2464
   -766046.24247   -562819.03944  23819645.5864                   23819646.3364
 11  8 11  1  2 30.0000000  0  8G17G10G09G12G04G02G05G25
 -43588858.30147 -33929045.00444  23150950.4454                   23150949.1414
 -29336835.34847 -22830283.60546  20777647.1334                   20777644.9654
 -16088388.68747 -12495232.09444  23752348.3524                   23752349.4574
 -22178723.97348 -17246841.56646  21177318.8594                   21177316.4104
 -38416543.95348 -29893890.92645  21694113.1094                   21694111.2234
 -35386181.48448 -27556814.47746  20480383.2424                   20480379.2854
 -16195965.32447 -12584353.92646  21754618.1414                   21754617.3134
   -900962.00047   -667948.16444  23793972.2814                   23793972.9844
 11  8 11  1  3  0.0000000  0  8G17G10G09G12G04G02G05G25
 -43570724.60547 -33914914.87544  23154401.2344                   23154400.1604
 -29370267.10248 -22856334.31246  20771284.5944                   20771283.4184
 -16044534.00847 -12461059.72743  23760693.0004                   23760694.7734
 -22269920.45748 -17317903.75446  21159964.7734                   21159962.3094
 -38376136.95348 -29862404.96945  21701801.7814                   21701800.5824
 -35421637.74248 -27584442.71946  20473636.2814                   20473632.3014
 -16321110.55947 -12681869.65246  21730803.6884                   21730802.8204
  -1035636.51647   -772889.26644  23768344.2814                   23768344.8014
 11  8 11  1  3 30.0000000  0  8G17G10G09G12G04G02G05G25
 -43552391.88747 -33900629.68044  23157890.3914                   23157889.0314
 -29403029.13747 -22881863.17646  20765050.8834                   20765048.9534
 -16000518.00447 -12426761.64143  23769070.0944                   23769070.7584
 -22360620.32048 -17388578.96146  21142705.2584                   21142702.6684
 -38335567.46948 -29830792.41045  21709522.2114                   21709521.1054
 -35456774.21948 -27611821.79346  20466950.0634                   20466945.9384
 -16445891.40647 -12779101.44946  21707058.6804                   21707057.3984
  -1170067.71947   -877640.84444  23742763.0704                   23742763.2814
 11  8 11  1  4  0.0000000  0  8G17G10G09G12G04G02G05G25
 -43533852.67647 -33886183.57444  23161417.4304                   23161416.1174
 -29435114.55547 -22906864.80146  20758944.7274                   20758943.0744
 -15956337.44547 -12392335.33643  23777477.2114                   23777478.9344
 -22450814.85548 -17458860.40646  21125541.6414                   21125539.0704
 -38294830.65248 -29799049.46945  21717274.2344                   21717272.8794
 -35491585.31248 -27638947.32046  20460326.0084                   20460321.6414
 -16570297.96947 -12876041.55946  21683384.9924                   21683384.0314
  -1304246.22747   -982195.54744  23717229.5704                   23717229.4184
 11  8 11  1  4 30.0000000  0  8G17G10G09G12G04G02G05G25
 -43515116.37947 -33871583.88344  23164983.1254                   23164982.6764
 -29466533.09448 -22931346.76646  20752966.0944                   20752964.6804
 -15912005.44947 -12357791.04344  23785913.5634                   23785914.3834
 -22540511.30948 -17528753.72346  21108472.9304                   21108470.4064
 -38253938.06648 -29767185.14145  21725056.0084                   21725054.6024
 -35526081.78548 -27665827.68747  20453761.2034                   20453757.0744
 -16694337.35947 -12972695.58246  21659780.9924                   21659779.6724
  -1438179.07447  -1086558.78144  23691743.1954                   23691743.8094
 11  8 11  1  5  0.0000000  0  8G17G10G09G12G04G02G05G25
 -43496167.00047 -33856818.17644  23168589.4534                   23168588.0084
 -29497269.07848 -22955296.88346  20747117.3284                   20747115.5944
 -15867509.79746 -12323119.19544  23794380.4924                   23794381.8874
 -22629692.25448 -17598245.35246  21091502.4844                   21091500.0744
 -38212875.91048 -29735188.69545  21732869.9924                   21732868.8874
 -35560249.44948 -27692451.83246  20447259.4224                   20447255.2424
 -16817991.52347 -13069049.42646  21636250.3284                   21636249.2074
  -1571848.10247  -1190716.44144  23666306.5784                   23666307.3754
 11  8 11  1  5 30.0000000  0  8G17G10G09G12G04G02G05G25
 -41901588.54347 -32614289.53144  23472027.4064                   23472026.6804
 -27951906.02348 -21751117.85546  21041190.0474                   21041188.3054
 -14247439.59046 -11060726.94943  24102669.8984                   24102670.7934
 -21142936.51648 -16439734.37146  21374422.6174                   21374420.0664
 -36596231.57848 -28475465.86345  22040506.7894                   22040506.0704
 -34018672.26248 -26491222.84046  20740612.0314                   20740607.4884
 -15365837.15247 -11937500.50846  21912586.1484                   21912584.7664
   -129830.17647    -67066.08644  23940713.0474                   23940714.5124
 11  8 11  1  6  0.0000000  0  8G17G10G09G12G04G02G05G25
 -41882234.70347 -32599208.64844  23475710.2734                   23475709.4144
 -27981301.08648 -21774023.10246  21035596.4224                   21035594.6644
 -14202650.25046 -11025826.30543  24111192.8444                   24111193.8714
 -21231103.13348 -16508435.60546  21357644.9144                   21357642.7934
 -36554859.55948 -28443227.94545  22048379.8284                   22048378.3794
 -34052208.71948 -26517355.13346  20734229.9694                   20734225.7074
 -15488735.08648 -12033265.08646  21889199.2814                   21889197.9574
   -262986.82047   -170824.48044  23915374.8754                   23915376.1294
 11  8 11  1  6 30.0000000  0  8G17G10G09G12G04G02G05G25
 -41862677.28947 -32583969.13745  23479432.1484                   23479431.3164
 -28010025.34448 -21796405.63346  21030130.2504                   21030128.3874
 -14157718.36346 -10990814.56243  24119743.7664                   24119744.8524
 -21318758.85248 -16576738.76246  21340964.4454                   21340962.4104
 -36513334.96548 -28410871.15645  22056281.7814                   22056280.4264
 -34085430.67648 -26543242.35547  20727907.9844                   20727903.7464
 -15611250.38747 -12128731.50846  21865885.4844                   21865884.2194
   -395882.87147   -274379.81244  23890085.3204                   23890086.7974
 11  8 11  1  7  0.0000000  0  8G17G10G09G12G04G02G05G25
 -41842920.05547 -32568573.92644  23483191.9774                   23483190.4574
 -28038082.71548 -21818268.51246  21024791.3364                   21024789.4064
 -14112651.20746 -10955697.41443  24128318.9694                   24128320.9844
 -21405905.70748 -16644645.39546  21324381.2114                   21324378.7664
 -36471663.46547 -28378399.87145  22064211.4064                   22064210.2974
 -34118343.37148 -26568888.61346  20721645.1024                   20721640.8554
 -15733384.12148 -12223900.59446  21842644.4064                   21842642.9104
   -528519.46547   -377732.96144  23864845.0004                   23864846.5984
 11  8 11  1  7 30.0000000  0  8G17G10G09G12G04G02G05G25
 -41822957.91447 -32553019.03544  23486990.2664                   23486989.6844
 -28065469.00848 -21839608.47746  21019579.7664                   21019578.2774
 -14067447.57446 -10920473.93444  24136921.0634                   24136922.7424
 -21492537.02048 -16712150.29746  21307895.8834                   21307893.5864
 -36429842.32048 -28345811.99245  22072169.8674                   22072168.7464
 -34150943.25848 -26594291.12146  20715441.4304                   20715437.3134
 -15855128.91848 -12318766.61346  21819476.8054                   21819475.1484
   -660889.34447   -480878.31644  23839655.7114                   23839657.9964
 11  8 11  1  8  0.0000000  0  8G17G10G09G12G04G02G05G25
 -41802796.44147 -32537308.80945  23490827.2894                   23490825.8794
 -28092190.51648 -21860430.44546  21014494.7114                   21014493.1884
 -14022116.99246 -10885151.53544  24145547.8524                   24145549.5314
 -21578656.67248 -16779256.51246  21291507.9534                   21291505.2504
 -36387879.42248 -28313113.66445  22080154.7894                   22080153.9614
 -34183237.87548 -26619455.75446  20709296.0474                   20709291.9224
 -15976488.32847 -12413332.34046  21796382.7424                   21796381.5904
   -792995.94547   -583818.50044  23814516.8674                   23814518.9104
 11  8 11  1  8 30.0000000  0  8G17G10G09G12G04G02G05G25
 -41782442.01647 -32521448.25844  23494700.2194                   23494699.9104
 -28118253.96148 -21880739.62146  21009535.1254                   21009533.5274
 -13976669.69147 -10849738.17644  24154196.2584                   24154197.8014
 -21664269.43448 -16845967.75446  21275216.2424                   21275214.0274
 -36345783.36348 -28280311.56245  22088166.0394                   22088164.7384
 -34215234.95348 -26644388.54346  20703206.9224                   20703202.8244
 -16097466.18048 -12507600.73046  21773361.0944                   21773360.2974
   -924843.28147   -686556.64844  23789427.0784                   23789428.4104
 11  8 11  1  9  0.0000000  0  8G17G10G09G12G04G02G05G25
 -41761888.53147 -32505432.57844  23498611.6094                   23498610.9264
 -28143654.00848 -21900531.85546  21004701.1334                   21004699.6644
 -13931102.94947 -10814231.76244  24162866.7894                   24162869.6094
 -21749367.51648 -16912277.93446  21259022.6484                   21259020.6684
 -36303550.39548 -28247402.78945  22096202.5864                   22096201.5124
 -34246929.89148 -26669085.89146  20697175.6174                   20697171.4384
 -16218053.96148 -12601565.18046  21750414.5634                   21750413.1524
  -1056423.21147   -789086.43744  23764388.5634                   23764390.0984
 11  8 11  1  9 30.0000000  0  8G17G10G09G12G04G02G05G25
 -41741127.66847 -32489255.32845  23502562.3364                   23502561.8284
 -28168383.52348 -21919801.60946  20999995.9844                   20999994.3054
 -13885412.48446 -10778628.93444  24171562.6094                   24171563.9694
 -21833941.17648 -16978179.47746  21242928.4304                   21242926.0944
 -36261174.44548 -28214382.59045  22104266.4064                   22104265.1644
 -34278315.91848 -26693542.53546  20691203.0944                   20691198.6724
 -16338241.22348 -12695217.54346  21727543.6254                   21727542.2504
  -1187725.15647   -891399.63344  23739402.4844                   23739403.4844
 11  8 11  1 10  0.0000000  0  8G17G10G09G12G04G02G05G25
 -41720171.44947 -32472925.82845  23506550.3674                   23506549.2034
 -28192455.59848 -21938559.06646  20995414.9064                   20995412.8324
 -13839614.39547 -10742942.25444  24180277.3914                   24180279.3484
 -21918001.67648 -17043681.15646  21226932.5634                   21226930.4304
 -36218670.09448 -28181262.33245  22112355.0234                   22112353.7504
 -34309407.10948 -26717769.43747  20685286.8204                   20685282.8324
 -16458037.99648 -12788565.62946  21704746.6024                   21704745.3714
  -1318759.11347   -993503.99244  23714468.0164                   23714468.3914
 11  8 11  1 10 30.0000000  0  8G17G10G09G12G04G02G05G25
 -41699001.78946 -32456430.02044  23510578.1484                   23510577.7344
 -28215852.32448 -21956790.27346  20990962.8444                   20990960.8284
 -13793693.81646 -10707160.09444  24189015.6564                   24189017.6334
 -22001528.43048 -17108766.93446  21211038.0944                   21211035.3674
 -36176020.99648 -28148029.29345  22120471.0864                   22120470.0944
 -34340186.43448 -26741753.31246  20679429.6564                   20679425.4694
 -16577423.75447 -12881593.43746  21682028.3284                   21682027.1884
  -1449504.39847  -1095383.41844  23689587.8204                   23689588.3914
 11  8 11  1 11  0.0000000  0  8G17G10G09G12G04G02G05G25
 -41677633.77747 -32439779.64844  23514644.2504                   23514644.1414
 -28238589.52348 -21974507.56246  20986636.0394                   20986634.4734
 -13747669.50046 -10671297.14144  24197773.6954                   24197775.7584
 -22084534.98848 -17173447.36746  21195242.4304                   21195239.8754
 -36133244.34847 -28114696.87145  22128610.9844                   22128609.4884
 -34370670.65648 -26765507.25446  20673628.8674                   20673624.4304
 -16696411.06648 -12974310.76646  21659385.6254                   21659384.3284
  -1579973.74647  -1197047.81244  23664760.1254                   23664760.9304
 11  8 11  1 11 30.0000000  0  8G17G10G09G12G04G02G05G25
 -41656068.09446 -32422975.24244  23518748.8754                   23518747.8284
 -28260668.85248 -21991712.23046  20982434.4064                   20982432.5904
 -13701545.95347 -10635356.85944  24206550.6724                   24206552.6844
 -22167020.62148 -17237721.88346  21179545.8914                   21179543.2194
 -36090343.21548 -28081267.42245  22136774.6254                   22136773.3914
 -34400862.05148 -26789033.02046  20667883.2814                   20667879.2234
 -16814998.44947 -13066716.46946  21636819.0004                   21636818.1054
  -1710165.77347  -1298496.15644  23639985.5864                   23639986.2704
 11  8 11  1 12  0.0000000  0  8G17G10G09G12G04G02G05G25
 -41634302.37547 -32406014.99244  23522890.1954                   23522889.6914
 -28282089.02348 -22008403.27046  20978358.1334                   20978356.6524
 -13655324.80946 -10599340.53543  24215346.5634                   24215348.0354
 -22248981.60248 -17301587.57846  21163949.3524                   21163946.9454
 -36047317.75047 -28047741.11345  22144962.1484                   22144960.8794
 -34430760.33248 -26812330.37546  20662194.0704                   20662189.9884
 -16933181.52348 -13158807.13746  21614329.5394                   21614328.0984
  -1840076.02747  -1399724.90644  23615264.0394                   23615265.9884
 11  8 11  1 12 30.0000000  0  8G17G10G09G12G04G02G05G25
 -41612333.72746 -32388896.58244  23527070.7894                   23527070.2934
 -28302848.02748 -22024579.12146  20974407.9144                   20974406.4064
 -13609006.79347 -10563248.69543  24224160.3914                   24224162.6214
 -22330413.44548 -17365040.94946  21148453.2974                   21148451.1484
 -36004166.99647 -28014117.17645  22153173.3134                   22153172.1804
 -34460363.69148 -26835397.93046  20656560.6174                   20656556.7504
 -17050954.93748 -13250578.58646  21591917.8984                   21591916.6174
  -1969699.21147  -1500729.93744  23590598.0004                   23590599.3714
 11  8 11  1 13  0.0000000  0  8G17G10G09G12G04G02G05G25
 -41590162.15647 -32371620.07444  23531290.8364                   23531288.9384
 -28322946.70348 -22040240.41446  20970583.2894                   20970582.0744
 -13562595.33646 -10527084.05943  24232992.6804                   24232993.8484
 -22411314.26248 -17428080.53946  21133058.2664                   21133056.1134
 -35960892.67647 -27980396.95745  22161408.0554                   22161407.1724
 -34489673.58648 -26858236.82046  20650982.9304                   20650979.3834
 -17168316.33647 -13342028.97346  21569584.8754                   21569583.2194
  -2099032.96947  -1601509.46544  23565986.3444                   23565987.5864
 11  8 11  1 13 30.0000000  0  8G17G10G09G12G04G02G05G25
 -41567791.63347 -32354188.51644  23535546.8284                   23535546.1414
 -28342390.49248 -22055391.40246  20966883.3914                   20966881.5824
 -13516098.75047 -10490853.11743  24241840.7034                   24241842.0904
 -22491687.39148 -17490708.94146  21117763.8594                   21117761.5164
 -35917501.65647 -27946585.79745  22169665.2504                   22169663.9964
 -34518696.14548 -26880851.81246  20645460.4224                   20645456.3834
 -17285268.01648 -13433160.10946  21547329.7894                   21547328.5204
  -2228079.38347  -1702065.09444  23541429.6334                   23541431.2734
 11  8 11  1 14  0.0000000  0  8G17G10G09G12G04G02G05G25
 -41545219.51247 -32336599.88344  23539841.7194                   23539841.4264
 -28361176.87148 -22070030.12546  20963308.0864                   20963306.6254
 -13469517.27046 -10454556.00443  24250705.5634                   24250706.9144
 -22571528.29348 -17552922.62146  21102570.3524                   21102568.2344
 -35873992.94147 -27912682.94145  22177945.0314                   22177943.5234
 -34547429.80948 -26903241.66846  20639992.6804                   20639988.4264
 -17401804.48047 -13523967.70746  21525153.5394                   21525152.3914
  -2356833.07047  -1802392.61744  23516928.2664                   23516930.4774
 11  8 11  1 14 30.0000000  0  8G17G10G09G12G04G02G05G25
 -41522440.63347 -32318850.13744  23544177.3674                   23544176.0084
 -28379301.64548 -22084153.32046  20959859.3984                   20959857.5514
 -13422849.60546 -10418191.75043  24259586.2274                   24259587.2034
 -22650830.27348 -17614716.35946  21087480.1174                   21087477.6134
 -35830363.39147 -27878685.89845  22186247.7344                   22186246.1604
 -34575870.69948 -26925403.40646  20634580.4924                   20634576.5204
 -17517918.14848 -13614445.85246  21503058.3284                   21503056.4024
  -2485286.60547  -1902486.23844  23492483.8754                   23492485.8284
 11  8 11  1 15  0.0000000  0  8G17G10G09G12G04G02G05G25
 -41499449.47347 -32300934.96944  23548552.3444                   23548551.1374
 -28396760.61748 -22097757.70346  20956536.9064                   20956535.2304
 -13376093.75846 -10381758.75043  24268483.4774                   24268484.7464
 -22729585.97748 -17676084.43446  21072493.0704                   21072491.0594
 -35786609.34447 -27844591.85245  22194573.3204                   22194571.8054
 -34604015.35948 -26947334.31246  20629224.7584                   20629220.8594
 -17633601.45748 -13704588.64546  21481044.0704                   21481042.7114
  -2613432.11347  -2002339.84044  23468098.9454                   23468100.7704
 11  8 11  1 15 30.0000000  0  8G17G10G09G12G04G02G05G25
 -41476244.99247 -32282853.55944  23552968.0234                   23552966.3914
 -28413553.93448 -22110843.38746  20953341.1484                   20953339.6844
 -13329252.48846 -10345259.22743  24277397.4144                   24277398.3984
 -22807793.31248 -17737025.21146  21057610.9064                   21057608.4614
 -35742732.24247 -27810401.91845  22202923.0554                   22202921.7464
 -34631864.00448 -26969034.55546  20623925.2114                   20623920.8954
 -17748851.40248 -13794393.75046  21459112.6334                   21459110.5274
  -2741266.35947  -2101950.92244  23443773.1414                   23443774.7814
 11  8 11  1 16  0.0000000  0  8G17G10G09G12G04G02G05G25
 -41452831.81247 -32264609.53544  23557423.8594                   23557422.4024
 -28429687.10247 -22123414.68446  20950271.1414                   20950269.5274
 -13282334.04346 -10308699.57443  24286325.1414                   24286327.0354
 -22885455.55948 -17797541.24246  21042832.0944                   21042829.6564
 -35698738.98847 -27776121.47745  22211294.5864                   22211293.4264
 -34659422.97748 -26990509.07846  20618680.9534                   20618676.5204
 -17863670.37548 -13883863.03946  21437263.3364                   21437261.7894
  -2868791.88347  -2201321.43044  23419505.8674                   23419507.4384
 11  8 11  1 16 30.0000000  0  8G17G10G09G12G04G02G05G25
 -41429223.68047 -32246213.58644  23561915.9924                   23561914.8284
 -28445174.93448 -22135483.12146  20947324.2734                   20947322.5124
 -13235355.80146 -10272093.30143  24295265.2114                   24295266.7344
 -22962585.21548 -17857642.26246  21028154.8834                   21028152.7304
 -35654645.04347 -27741762.59045  22219685.1484                   22219684.2384
 -34686707.72748 -27011769.91846  20613488.9534                   20613484.5514
 -17978069.67648 -13973005.29346  21415494.2034                   21415492.1604
  -2996019.90647  -2300460.14145  23395295.4774                   23395296.3794
 11  8 11  1 17  0.0000000  0  8G17G10G09G12G04G02G05G25
 -41405411.17647 -32227658.41044  23566447.5004                   23566446.3014
 -28460009.33648 -22147042.38346  20944500.9774                   20944499.5004
 -13188311.51246 -10235435.60543  24304217.5314                   24304219.6214
 -23039171.05148 -17917319.54346  21013581.2584                   21013578.6564
 -35610443.01247 -27707319.49645  22228096.9144                   22228095.9144
 -34713710.14148 -27032810.76646  20608350.2894                   20608346.4534
 -18092037.88348 -14061811.65246  21393806.5474                   21393804.7074
  -3122938.76247  -2399357.90245  23371143.3204                   23371144.7424
 11  8 11  1 17 30.0000000  0  8G17G10G09G12G04G02G05G25
 -41381384.29347 -32208936.18044  23571019.3524                   23571018.2934
 -28474181.40247 -22158085.54346  20941804.2814                   20941802.3754
 -13141195.16446 -10198721.74643  24313184.1414                   24313185.4654
 -23115201.81648 -17976564.28146  20999112.8364                   20999110.6524
 -35566124.98847 -27672785.98445  22236530.3754                   22236529.2624
 -34740421.82048 -27053625.05546  20603267.4534                   20603263.0984
 -18205562.61348 -14150272.43446  21372203.2664                   21372201.5824
  -3249536.07447  -2498005.12945  23347052.5234                   23347054.5744
 11  8 11  1 18  0.0000000  0  8G17G10G09G12G04G02G05G25
 -41357154.30947 -32190055.68444  23575630.0004                   23575629.9574
 -28487703.72748 -22168622.40246  20939231.2034                   20939229.0514
 -13094021.80946 -10161963.43743  24322160.4064                   24322163.0474
 -23190687.57448 -18035384.34046  20984748.1564                   20984745.7854
 -35521704.40647 -27638172.57845  22244983.3134                   22244982.1994
 -34766855.96548 -27074223.09446  20598237.0704                   20598233.0234
 -18318653.31648 -14238395.01646  21350682.7344                   21350681.3404
  -3375821.05547  -2596408.96145  23323021.7664                   23323022.3324
 11  8 11  1 18 30.0000000  0  8G17G10G09G12G04G02G05G25
 -41332715.03547 -32171012.11744  23580281.1094                   23580279.9884
 -28500570.84847 -22178648.70746  20936782.7194                   20936780.7584
 -13046788.41046 -10125158.34043  24331149.3834                   24331150.8244
 -23265620.40648 -18093773.55146  20970489.4064                   20970486.7664
 -35477176.52047 -27603475.54345  22253456.6644                   22253455.9454
 -34793007.12148 -27094600.60546  20593260.5554                   20593256.9694
 -18431301.12948 -14326172.47746  21329246.5394                   21329245.1254
  -3501784.73447  -2694562.41845  23299051.7194                   23299052.3634
 11  8 11  1 19  0.0000000  0  8G17G10G09G12G04G02G05G25
 -41308061.77047 -32151801.79744  23584972.7424                   23584971.5474
 -28512779.51648 -22188161.93446  20934459.4064                   20934457.6334
 -12999493.80946 -10088305.54343  24340149.2274                   24340151.3324
 -23339994.52048 -18151727.39146  20956336.0314                   20956333.8364
 -35432538.91447 -27568693.01245  22261950.6804                   22261949.8754
 -34818872.31648 -27114755.30546  20588338.7034                   20588334.9144
 -18543499.40248 -14413599.65646  21307896.3524                   21307894.3404
  -3627420.20747  -2792460.14145  23275143.4694                   23275144.7584
 11  8 11  1 19 30.0000000  0  8G17G10G09G12G04G02G05G25
 -41283198.88347 -32132428.14544  23589703.6724                   23589702.3674
 -28524335.10248 -22197166.28946  20932260.5314                   20932258.7464
 -12952145.86746 -10051411.19943  24349159.3134                   24349161.1764
 -23413813.00448 -18209248.27746  20942288.8134                   20942286.8794
 -35387797.91847 -27533829.91845  22270464.7664                   22270463.9454
 -34844457.86348 -27134692.08646  20583469.8284                   20583465.8054
 -18655250.43748 -14500678.34046  21286629.9534                   21286629.1844
  -3752729.64147  -2890103.79345  23251297.7504                   23251298.5234
 11  8 11  1 20  0.0000000  0  8G17G10G09G12G04G02G05G25
 -41258147.90246 -32112907.92244  23594470.3984                   23594469.9224
 -28535260.51248 -22205679.57446  20930181.4694                   20930179.3164
 -12904769.85947 -10014494.96544  24358174.2504                   24358177.1134
 -23487095.59848 -18266351.58646  20928343.8054                   20928341.4064
 -35342977.05947 -27498904.58245  22278994.0394                   22278993.0904
 -34869786.29748 -27154428.52346  20578650.1024                   20578645.8594
 -18766573.57048 -14587423.57446  21265445.9774                   21265444.3794
  -3877732.12147  -2987508.24645  23227510.7894                   23227511.7704
 11  8 11  1 20 30.0000000  0  8G17G10G09G12G04G02G05G25
 -41232887.33647 -32093224.37544  23599277.5944                   23599276.8674
 -28545535.59848 -22213686.12146  20928226.2194                   20928224.3524
 -12857347.59047  -9977542.70344  24367199.3674                   24367200.8874
 -23559819.85948 -18323019.82046  20914504.6094                   20914502.1914
 -35298056.37147 -27463901.47745  22287542.3364                   22287541.1524
 -34894837.81248 -27173949.17646  20573883.0314                   20573878.8094
 -18877445.09048 -14673816.92246  21244348.0864                   21244346.1764
  -4002403.80147  -3084654.93045  23203786.6174                   23203787.2544
 11  8 11  1 21  0.0000000  0  8G17G10G09G12G04G02G05G25
 -41207423.16047 -32073382.19944  23604123.2814                   23604122.7814
 -28555167.71148 -22221191.65646  20926392.9304                   20926391.7814
 -12809888.46946  -9940561.70343  24376229.6174                   24376233.2934
 -23631990.52748 -18379256.69546  20900771.1024                   20900768.4574
 -35253044.22747 -27428827.09845  22296107.3834                   22296106.7034
 -34919619.70348 -27193259.73046  20569167.0864                   20569163.3484
 -18987868.69548 -14759861.23846  21223335.0634                   21223333.3404
  -4126748.35547  -3181546.71544  23180124.2814                   23180124.5204
 11  8 11  1 21 30.0000000  0  8G17G10G09G12G04G02G05G25
 -41181750.94547 -32053377.90644  23609008.4304                   23609007.6684
 -28564153.74247 -22228193.74246  20924683.1254                   20924681.2854
 -12762391.76646  -9903551.45343  24385268.6024                   24385271.5354
 -23703601.46148 -18435057.40246  20887144.0634                   20887141.5274
 -35207937.82447 -27393679.28945  22304690.9534                   22304690.5744
 -34944129.50448 -27212358.27046  20564503.1724                   20564499.4344
 -19097837.86348 -14845551.45346  21202408.6884                   21202407.0784
  -4250759.02347  -3278178.33244  23156525.8134                   23156526.0124
 11  8 11  1 22  0.0000000  0  8G17G10G09G12G04G02G05G25
 -41155873.21947 -32033213.47744  23613932.8834                   23613932.3014
 -28572497.52347 -22234695.37546  20923095.4064                   20923093.3554
 -12714863.45347  -9866516.54744  24394313.8054                   24394316.1024
 -23774654.47347 -18490423.36346  20873622.9144                   20873620.2734
 -35162741.58647 -27358461.46545  22313292.0164                   22313290.8834
 -34968371.02348 -27231247.76246  20559890.1174                   20559886.0904
 -19207353.19948 -14930888.02346  21181568.5474                   21181566.9384
  -4374436.06247  -3374549.99244  23132990.8524                   23132991.3554
 11  8 11  1 22 30.0000000  0  8G17G10G09G12G04G02G05G25
 -41129792.06246 -32012890.52744  23618895.5704                   23618895.1724
 -28580202.18748 -22240699.00046  20921629.1334                   20921627.6454
 -12667309.02346  -9829461.30144  24403362.4064                   24403365.4304
 -23845150.13748 -18545355.03546  20860208.4304                   20860205.8594
 -35117459.58247 -27323176.80145  22321908.5164                   22321907.4264
 -34992347.86748 -27249931.00846  20555327.3674                   20555323.1804
 -19316414.48048 -15015870.79346  21160814.8524                   21160812.9654
  -4497779.19547  -3470661.46944  23109518.6884                   23109520.5664
 11  8 11  1 23  0.0000000  0  8G17G10G09G12G04G02G05G25
 -41103499.53146 -31992402.87544  23623898.7894                   23623898.8754
 -28587261.58647 -22246199.82846  20920285.7194                   20920284.1724
 -12619723.99246  -9792382.19944  24412417.8914                   24412421.0204
 -23915079.16048 -18599845.16846  20846901.1334                   20846898.9184
 -35072085.61747 -27287820.46145  22330543.0704                   22330541.7114
 -35016053.51248 -27268402.92246  20550816.3204                   20550812.3364
 -19425011.55548 -15100491.84046  21140149.4224                   21140147.5234
  -4620777.98847  -3566504.63744  23086113.4304                   23086114.9264
 11  8 11  1 23 30.0000000  0  8G17G10G09G12G04G02G05G25
 -41077000.12946 -31971754.00444  23628942.2814                   23628941.3634
 -28593681.18748 -22251202.11746  20919064.4694                   20919062.1374
 -12572116.20346  -9755285.39543  24421477.8594                   24421480.3714
 -23984445.04748 -18653896.50046  20833701.1334                   20833698.8014
 -35026625.75447 -27252397.21145  22339193.9454                   22339193.0044
 -35039493.74248 -27286668.03146  20546355.9144                   20546351.6484
 -19533146.96948 -15184753.14846  21119572.0084                   21119570.1604
  -4743434.57447  -3662081.15244  23062771.8364                   23062773.5474
 11  8 11  1 24  0.0000000  0  8G17G10G09G12G04G02G05G25
 -41050295.67646 -31950945.37144  23634023.5164                   23634023.1454
 -28599464.34848 -22255708.48046  20917963.6484                   20917962.2774
 -12524490.90246  -9718174.89543  24430539.9844                   24430542.7504
 -24053248.07048 -18707509.23846  20820608.3364                   20820605.6994
 -34981083.84447 -27216910.01245  22347860.4694                   22347858.7974
 -35062671.87148 -27304728.89146  20541945.4304                   20541941.1804
 -19640820.39848 -15268654.48446  21099082.5864                   21099080.4224
  -4865748.44147  -3757390.62544  23039496.6644                   23039497.8364
 11  8 11  1 24 30.0000000  0  8G17G10G09G12G04G02G05G25
 -41023386.06246 -31929976.87544  23639144.1024                   23639144.2584
 -28604612.60948 -22259720.12546  20916984.1174                   20916982.2854
 -12476851.84846  -9681053.74243  24439605.8284                   24439608.0944
 -24121487.37148 -18760682.71546  20807622.9064                   20807620.3754
 -34935461.92647 -27181360.46545  22356541.7974                   22356540.3364
 -35085589.51248 -27322586.78946  20537584.2034                   20537580.1374
 -19748029.81248 -15352194.24646  21078680.7584                   21078679.4024
  -4987717.27747  -3852431.25045  23016286.9774                   23016288.0634
 11  8 11  1 25  0.0000000  0  8G17G10G09G12G04G02G05G25
 -40996271.43446 -31908848.62944  23644304.4064                   23644303.3404
 -28609127.49247 -22263238.21946  20916124.8834                   20916122.9654
 -12429202.03946  -9643924.21943  24448672.4844                   24448675.8364
 -24189161.24248 -18813415.59846  20794745.3054                   20794742.6094
 -34889761.53147 -27145749.78945  22365238.1024                   22365237.3754
 -35108248.04348 -27340242.77746  20533272.6254                   20533268.4104
 -19854772.98448 -15435370.71146  21058368.1954                   21058366.7274
  -5109338.64147  -3947201.12545  22993142.9614                   22993144.3914
 11  8 11  1 25 30.0000000  0  8G17G10G09G12G04G02G05G25
 -40968948.69546 -31887558.18044  23649503.5474                   23649503.2154
 -28613007.30548 -22266261.45346  20915386.8594                   20915384.9104
 -12381541.67646  -9606786.45343  24457742.5704                   24457745.8094
 -24256265.96948 -18865704.99646  20781975.4304                   20781972.6994
 -34843981.25047 -27110076.85545  22373949.7504                   22373948.8404
 -35130645.87148 -27357695.62546  20529010.0314                   20529005.9804
 -19961044.68048 -15518179.77746  21038145.3914                   21038143.8204
  -5230607.06247  -4041695.98445  22970066.9924                   22970067.6374
 11  8 11  1 26  0.0000000  0  8G17G10G09G12G04G02G05G25
 -40941416.77346 -31866104.74244  23654742.6254                   23654742.2384
 -28616252.66048 -22268790.30546  20914768.9844                   20914767.3204
 -12333873.13746  -9569642.37543  24466814.4844                   24466816.9024
 -24322799.14148 -18917549.02046  20769314.7664                   20769311.8484
 -34798121.76647 -27074342.21545  22382676.5084                   22382675.8204
 -35152783.53948 -27374945.76646  20524797.5394                   20524793.5234
 -20066842.18448 -15600619.36346  21018012.9614                   21018011.4064
  -5351519.18747  -4135913.20345  22947057.9694                   22947059.0354
 11  8 11  1 26 30.0000000  0  8G17G10G09G12G04G02G05G25
 -40913679.09846 -31844491.00044  23660020.9144                   23660019.7464
 -28618868.37548 -22270828.52046  20914271.4694                   20914269.6134
 -12286203.60546  -9532497.52743  24475884.8364                   24475888.1914
 -24388763.19148 -18968949.57846  20756761.9304                   20756759.1564
 -34752188.32047 -27038549.91845  22391417.9064                   22391416.6134
 -35174665.75048 -27391996.83246  20520633.4384                   20520629.3754
 -20172166.50848 -15682690.22746  20997970.3834                   20997968.3164
  -5472076.06247  -4229853.61345  22924117.2194                   22924117.6994
 11  8 11  1 27  0.0000000  0  8G17G10G09G12G04G02G05G25
 -39310313.15646 -30595114.98844  23965131.2734                   23965130.7114
 -27045432.18047 -21044774.35246  21213686.5084                   21213684.6564
 -10663113.94946  -8267752.53143  24784749.6174                   24784751.9694
 -22878730.90248 -17792301.04746  21044111.5944                   21044109.0044
 -33130760.57447 -25775099.74645  22699965.2504                   22699963.9304
 -33620869.37148 -26181246.39146  20816311.1254                   20816306.8164
 -18701588.83648 -14536785.50846  21277812.4384                   21277810.1334
  -4016847.64147  -3095909.35945  23201038.0634                   23201038.1564
 11  8 11  1 27 30.0000000  0  8G17G10G09G12G04G02G05G25
 -39282166.91846 -30573182.87944  23970487.2894                   23970486.8014
 -27046795.89848 -21045836.97346  21213426.7424                   21213424.9844
 -10615454.06246  -8230615.14843  24793819.5314                   24793822.1884
 -22943555.71148 -17842813.88746  21031776.2974                   21031773.3874
 -33084687.10947 -25739198.35944  22708732.6094                   22708731.6174
 -33642247.62548 -26197904.76646  20812242.6954                   20812238.8094
 -18805963.86748 -14618116.65646  21257949.9924                   21257948.1804
  -4136689.53147  -3189292.64545  23178232.3524                   23178232.8404
 11  8 11  1 28  0.0000000  0  8G17G10G09G12G04G02G05G25
 -39253815.58646 -30551091.00044  23975882.8134                   23975881.8714
 -27047535.31248 -21046413.12546  21213286.3674                   21213284.2734
 -10567803.48046  -8193485.08243  24802885.8674                   24802888.7584
 -23007808.61748 -17892881.09046  21019549.1954                   21019546.5434
 -33038545.52347 -25703243.88745  22717513.2894                   22717511.8284
 -33663375.26648 -26214367.84846  20808222.4844                   20808218.2034
 -18909860.26648 -14699074.84846  21238179.3754                   21238177.2854
  -4256169.68047  -3282394.01645  23155496.0394                   23155497.0234
 11  8 11  1 28 30.0000000  0  8G17G10G09G12G04G02G05G25
 -39225265.71146 -30528844.35244  23981314.7274                   23981314.7974
 -27047658.39548 -21046509.03546  21213262.6724                   21213260.5044
 -10520171.77046  -8156369.67643  24811950.7344                   24811953.8874
 -23071494.68448 -17942506.59846  21007430.0394                   21007427.1604
 -32992343.75047 -25667242.51644  22726304.2894                   22726303.7934
 -33684260.09848 -26230641.73046  20804247.7194                   20804244.1844
 -19013282.66848 -14779663.69146  21218498.4774                   21218496.6334
  -4375292.02347  -3375216.60245  23132827.2894                   23132828.6524
 11  8 11  1 29  0.0000000  0  8G17G10G09G12G04G02G05G25
 -39196512.64246 -30506439.40044  23986787.8594                   23986786.6334
 -27047162.00048 -21046122.22346  21213356.8284                   21213355.4304
 -10472557.52746  -8119267.90243  24821011.7114                   24821014.6174
 -23134608.36348 -17991686.09446  20995419.9384                   20995417.0354
 -32946078.71947 -25631191.85944  22735108.7584                   22735108.2114
 -33704898.96948 -26246723.96146  20800320.6884                   20800316.5044
 -19116224.37948 -14859877.97746  21198909.0314                   21198907.2664
  -4494049.59447  -3467754.92245  23110228.9694                   23110229.9064
 11  8 11  1 29 30.0000000  0  8G17G10G09G12G04G02G05G25
 -39167555.75846 -30483875.62944  23992297.7344                   23992297.1134
 -27046047.21548 -21045253.55146  21213569.1174                   21213567.3324
 -10424963.75046  -8082182.07843  24830068.7504                   24830070.9774
 -23197147.79748 -18040418.11346  20983518.6334                   20983516.4734
 -32899751.62147 -25595092.84844  22743924.0234                   22743923.2304
 -33725292.59848 -26262615.08246  20796439.8914                   20796435.7464
 -19218682.64148 -14939715.53946  21179412.0314                   21179410.5744
  -4612439.39847  -3560006.69145  23087699.8674                   23087701.4184
 11  8 11  1 30  0.0000000  0  8G17G10G09G12G04G02G05G25
 -39138401.16846 -30461157.82044  23997845.0864                   23997845.3364
 -27044322.36348 -21043909.50846  21213897.4454                   21213895.6804
 -10377399.81247  -8045119.50443  24839120.7274                   24839123.2274
 -23259118.75448 -18088707.16846  20971726.3204                   20971723.6644
 -32853370.32847 -25558951.60545  22752750.3834                   22752749.4654
 -33745448.67248 -26278321.10946  20792604.5554                   20792600.2344
 -19320661.80548 -15019179.78546  21160006.1954                   21160004.4454
  -4730465.37947  -3651974.95345  23065240.6484                   23065241.9144
 11  8 11  1 30 30.0000000  0  8G17G10G09G12G04G02G05G25
 -39109041.53546 -30438280.23044  24003431.7664                   24003431.4844
 -27041981.31648 -21042085.31646  21214342.5864                   21214340.7624
 -10329861.38346  -8008076.79343  24848166.2734                   24848170.0124
 -23320512.68048 -18136546.59446  20960043.3754                   20960040.6294
 -32806929.31647 -25522763.80544  22761588.0164                   22761587.4964
 -33765361.37548 -26293837.48846  20788815.0164                   20788810.9734
 -19422152.86748 -15098263.68046  21140693.1804                   21140691.0354
  -4848117.77347  -3743652.12145  23042851.7814                   23042853.2894
 11  8 11  1 31  0.0000000  0  8G17G10G09G12G04G02G05G25
 -39079478.27747 -30415243.97744  24009057.7814                   24009057.3054
 -27039026.78148 -21039783.08246  21214904.8754                   21214902.9414
 -10282352.78546  -7971057.36343  24857207.6254                   24857210.4774
 -23381329.39848 -18183936.23046  20948470.3444                   20948467.8874
 -32760430.64147 -25486531.09044  22770436.3444                   22770435.6054
 -33785032.97748 -26309166.00446  20785071.7194                   20785067.6454
 -19523154.51248 -15176966.23046  21121473.1644                   21121471.0824
  -4965395.11747  -3835037.03945  23020534.6564                   23020535.5394
 11  8 11  1 31 30.0000000  0  8G17G10G09G12G04G02G05G25
 -39049715.06646 -30392051.89844  24014722.0634                   24014721.2424
 -27035464.45748 -21037007.24246  21215582.8364                   21215581.4304
 -10234881.14846  -7934066.71143  24866240.7974                   24866244.1844
 -23441571.88348 -18230878.41846  20937006.6804                   20937004.0124
 -32713880.18047 -25450258.00845  22779295.0634                   22779293.7624
 -33804468.60948 -26324310.65246  20781373.2664                   20781369.1994
 -19623668.92648 -15255289.10546  21102345.8284                   21102344.0124
  -5082298.98847  -3926130.91445  22998288.5784                   22998289.4804
 11  8 11  1 32  0.0000000  0  8G17G10G09G12G04G02G05G25
 -39019741.71147 -30368696.09044  24020425.8754                   24020425.0234
 -27031286.08248 -21033751.36346  21216377.9774                   21216376.6524
 -10187439.38346  -7897099.33243  24875269.3284                   24875273.0204
 -23501228.98048 -18277364.45346  20925654.2504                   20925651.5354
 -32667268.99647 -25413937.62144  22788164.5474                   22788163.7774
 -33823659.41048 -26339264.52746  20777721.4064                   20777716.8634
 -19723683.59848 -15333222.57446  21083313.3984                   21083311.5944
  -5198816.73847  -4016923.93445  22976116.0704                   22976117.0864
 11  8 11  1 32 30.0000000  0  8G17G10G09G12G04G02G05G25
 -38989562.06247 -30345179.50844  24026168.2814                   24026168.5784
 -27026497.18448 -21030019.76246  21217289.3754                   21217287.1994
 -10140034.59446  -7860160.78143  24884290.2814                   24884293.6374
 -23560303.67648 -18323396.66846  20914412.5554                   20914409.7774
 -32620602.76647 -25377574.34844  22797045.0784                   22797044.0514
 -33842611.03948 -26354032.02046  20774114.9694                   20774110.7584
 -19823200.76648 -15410768.37946  21064375.8284                   21064374.2384
  -5314949.98847  -4107417.32845  22954016.2664                   22954017.5004
 11  8 11  1 33  0.0000000  0  8G17G10G09G12G04G02G05G25
 -38959182.44147 -30321507.12544  24031949.7504                   24031949.3094
 -27021105.57048 -21025818.52046  21218315.1484                   21218313.3404
 -10092676.26246  -7823258.40243  24893301.8204                   24893306.2344
 -23618800.90248 -18368978.90646  20903280.9224                   20903278.4024
 -32573889.02047 -25341174.04345  22805934.3984                   22805932.8954
 -33861330.39548 -26368618.52746  20770553.0474                   20770548.5824
 -19922224.54748 -15487929.73446  21045532.3284                   21045530.6054
  -5430702.38747  -4197613.97745  22931989.4924                   22931990.3554
 11  8 11  1 33 30.0000000  0  8G17G10G09G12G04G02G05G25
 -38928601.33647 -30297677.69944  24037769.2734                   24037768.3674
 -27015111.65248 -21021147.93046  21219455.9304                   21219453.8914
 -10045365.85546  -7786393.35243  24902304.9694                   24902309.3554
 -23676718.37948 -18414109.39546  20892259.7814                   20892257.1484
 -32527127.91847 -25304736.83244  22814833.1724                   22814831.9494
 -33879817.59848 -26383024.14146  20767034.6094                   20767030.8634
 -20020751.62948 -15564704.03946  21026783.2974                   21026781.4924
  -5546070.21147  -4287510.94545  22910035.9844                   22910036.4884
 11  8 11  1 34  0.0000000  0  8G17G10G09G12G04G02G05G25
 -38897816.97346 -30273689.91844  24043627.4844                   24043627.2854
 -27008515.32448 -21016007.94146  21220711.3364                   21220709.6994
  -9998104.53946  -7749566.57443  24911298.9774                   24911302.8284
 -23734053.66848 -18458786.23046  20881348.9774                   20881346.4344
 -32480319.30147 -25268262.60544  22823739.7734                   22823739.4844
 -33898072.28548 -26397248.56646  20763561.1484                   20763556.7304
 -20118778.53548 -15641088.60946  21008129.3364                   21008127.5124
  -5661049.21947  -4377104.94545  22888156.0004                   22888156.8874
 11  8 11  1 34 30.0000000  0  7G17G10G12G04G02G05G25
 -38866828.04346 -30249542.72744  24049524.8364                   24049523.6454
 -27001317.37948 -21010399.14146  21222080.6564                   21222079.1524
 -23790804.67248 -18503007.78146  20870549.8134                   20870547.3834
 -32433463.29347 -25231751.48444  22832656.0554                   22832655.6454
 -33916094.60248 -26411291.93046  20760131.5474                   20760127.3164
 -20216302.13748 -15717080.98046  20989571.2034                   20989569.4614
  -5775635.91047  -4466393.25045  22866351.0784                   22866351.7154
 11  8 11  1 35  0.0000000  0  7G17G10G12G04G02G05G25
 -38835622.41446 -30225226.69544  24055463.2814                   24055461.9384
 -26993506.96948 -21004313.11345  21223567.2734                   21223565.3524
 -23846957.82448 -18546763.48846  20859864.1254                   20859861.6604
 -32386548.85547 -25195194.79344  22841583.5314                   22841583.3794
 -33933873.26248 -26425145.42646  20756748.2734                   20756744.0164
 -20313307.99248 -15792669.91446  20971111.4774                   20971109.3914
  -5889815.46547  -4555364.31245  22844622.7734                   22844624.1564
 11  8 11  1 35 30.0000000  0  7G17G10G12G04G02G05G25
 -38804215.53946 -30200753.84443  24061439.2034                   24061438.8324
 -26985101.84047 -20997763.66046  21225166.8524                   21225164.8094
 -23902528.10548 -18590064.98846  20849289.0784                   20849286.9654
 -32339592.97747 -25158605.80944  22850519.0784                   22850518.4574
 -33951425.23848 -26438822.29746  20753408.0944                   20753403.9384
 -20409809.67248 -15867865.98446  20952747.8364                   20952746.0824
  -6003600.95747  -4644028.30545  22822970.3834                   22822971.3984
 11  8 11  1 36  0.0000000  0  7G17G10G12G04G02G05G25
 -38772600.74646 -30176118.96143  24067455.8524                   24067454.5984
 -26976097.07048 -20990746.94146  21226880.0084                   21226878.3134
 -23957507.87548 -18632906.36346  20838827.2424                   20838824.6024
 -32292590.20347 -25121980.29744  22859463.5164                   22859462.6484
 -33968745.11348 -26452318.29346  20750112.3984                   20750107.9384
 -20505798.92648 -15942662.76246  20934481.5394                   20934480.2274
  -6116983.26647  -4732378.14145  22801394.2274                   22801395.3484
 11  8 11  1 36 30.0000000  0  7G17G10G12G04G02G05G25
 -38740771.19546 -30151316.76643  24073512.0164                   24073511.6684
 -26966487.51247 -20983258.98046  21228708.8284                   21228706.8714
 -24011889.31648 -18675281.50446  20828478.5634                   20828476.0434
 -32245535.43747 -25085314.28144  22868417.9774                   22868417.2854
 -33985827.34848 -26465629.11346  20746861.7584                   20746857.9224
 -20601266.84448 -16017053.30546  20916314.6954                   20916313.1294
  -6229953.16047  -4820406.62545  22779896.8834                   22779897.5084
 11  8 11  1 37  0.0000000  0  7G17G10G12G04G02G05G25
 -38708739.16046 -30126356.76643  24079607.5394                   24079607.6024
 -26956287.63748 -20975311.03545  21230649.7734                   21230647.9774
 -24065683.77048 -18717199.25846  20818242.1484                   20818239.8634
 -32198442.00047 -25048618.14144  22877379.6254                   22877378.5554
 -34002684.99648 -26478764.93746  20743654.0084                   20743649.6564
 -20696223.68748 -16091045.60246  20898245.1024                   20898243.3404
  -6342520.51247  -4908121.43745  22758476.2664                   22758476.9964
 11  8 11  1 37 30.0000000  0  7G17G10G12G04G02G05G25
 -38676486.88346 -30101225.13743  24085745.1334                   24085744.3204
 -26945481.26248 -20966890.46945  21232706.2814                   21232704.5084
 -24118873.00448 -18758645.40646  20808120.6484                   20808117.8094
 -32151294.01247 -25011879.47344  22886351.6414                   22886350.6844
 -34019301.97748 -26491713.21146  20740491.7664                   20740487.6914
 -20790650.14548 -16164624.60946  20880276.3524                   20880274.1524
  -6454665.32047  -4995506.98445  22737135.5164                   22737136.4574
 11  8 11  1 38  0.0000000  0  7G17G10G12G04G02G05G25
 -38644038.66846 -30075940.88343  24091919.6564                   24091918.9064
 -26934094.75847 -20958017.89145  21234873.1564                   21234870.9924
 -24171480.50048 -18799638.27746  20798109.4384                   20798106.9574
 -32104116.72747 -24975118.00444  22895328.7114                   22895327.8484
 -34035704.19548 -26504494.17246  20737370.5234                   20737366.6914
 -20884568.89148 -16237808.02746  20862404.0084                   20862401.7624
  -6566409.52047  -5082580.40645  22715871.6024                   22715871.9844
 11  8 11  1 38 30.0000000  0  7G17G10G12G04G02G05G25
 -38611377.48047 -30050490.68443  24098135.8054                   24098134.8364
 -26922112.62548 -20948681.15646  21237153.2664                   21237151.4414
 -24223488.22748 -18840163.78546  20788212.7584                   20788210.1134
 -32056894.14547 -24938321.21944  22904315.2664                   22904314.2074
 -34051875.13348 -26517094.89146  20734293.2424                   20734288.7034
 -20977960.68048 -16310580.80946  20844632.1254                   20844630.3834
  -6677733.32047  -5169326.18745  22694687.4144                   22694687.9384
 11  8 11  1 39  0.0000000  0  7G17G10G12G04G02G05G25
 -38578516.23846 -30024884.53143  24104388.8204                   24104387.3634
 -26909550.10948 -20938892.18745  21239543.5784                   21239542.0314
 -24274908.50048 -18880231.53146  20778427.9924                   20778425.2814
 -32009640.69147 -24901500.35544  22913307.3834                   22913306.4804
 -34067829.04748 -26529526.50846  20731257.4384                   20731252.9964
 -21070836.89148 -16382951.84446  20826958.2664                   20826956.1484
  -6788647.28947  -5255752.65245  22673580.6334                   22673581.6884
 11  8 11  1 39 30.0000000  0  7G17G10G12G04G02G05G25
 -38545448.82046 -29999117.71944  24110681.1094                   24110680.3874
 -26896402.96548 -20928647.66046  21242045.7734                   21242043.5664
 -24325734.10248 -18919835.89546  20768756.1024                   20768753.4104
 -31962351.42647 -24864651.60944  22922306.5084                   22922305.6804
 -34083561.21148 -26541785.34846  20728263.8754                   20728259.5164
 -21163189.18748 -16454914.63746  20809384.5084                   20809382.0704
  -6899142.91048  -5341853.12145  22652554.3984                   22652554.9144
 11  8 11  1 40  0.0000000  0  7G17G10G12G04G02G05G25
 -38512174.32846 -29973189.61743  24117012.5474                   24117012.1334
 -26882672.11747 -20917948.29746  21244658.6884                   21244656.5274
 -24375963.89148 -18958975.98846  20759197.3134                   20759194.8134
 -31915026.88347 -24827775.35544  22931311.8674                   22931311.0944
 -34099071.90648 -26553871.60246  20725312.2974                   20725307.6134
 -21255015.30148 -16526467.41046  20791910.4384                   20791908.2154
  -7009217.06648  -5427625.16045  22631608.2504                   22631608.4454
 11  8 11  1 40 30.0000000  0  7G17G10G12G04G02G05G25
 -38478693.89546 -29947100.99243  24123383.9144                   24123382.9384
 -26868360.96948 -20906796.76646  21247381.5784                   21247380.1374
 -24425598.38348 -18997652.21546  20749752.0554                   20749750.0004
 -31867669.53947 -24790873.56244  22940323.7584                   22940322.9064
 -34114363.39848 -26565787.04746  20722402.6414                   20722398.1094
 -21346314.64148 -16597609.72346  20774536.5164                   20774534.4734
  -7118868.50447  -5513067.82445  22610741.8984                   22610742.4654
 11  8 11  1 41  0.0000000  0  7G17G10G12G04G02G05G25
 -38445009.75846 -29920853.67243  24129793.7504                   24129794.1024
 -26853473.22748 -20895195.94146  21250214.7814                   21250213.1724
 -24474638.67648 -19035865.43446  20740420.5554                   20740418.2194
 -31820282.48047 -24753948.59844  22949340.8054                   22949339.9844
 -34129438.73448 -26577534.06246  20719533.6334                   20719529.5234
 -21437087.31248 -16668341.64546  20757263.0164                   20757261.2814
  -7228096.70748  -5598180.68045  22589956.5704                   22589956.7234
 11  8 11  1 41 30.0000000  0  7G17G10G12G04G02G05G25
 -38411107.39846 -29894436.30943  24136245.4454                   24136244.6804
 -26837997.02748 -20883136.57045  21253159.7034                   21253158.0004
 -24523069.73448 -19073603.91846  20731204.0784                   20731201.9804
 -31772852.75847 -24716990.39544  22958367.0234                   22958365.6884
 -34144285.02348 -26589102.59846  20716708.1644                   20716704.1564
 -21527317.41848 -16738650.77746  20740092.9064                   20740091.1094
  -7336885.10948  -5682950.83245  22569254.6094                   22569255.6954
 11  8 11  1 42  0.0000000  0  7G17G10G12G04G02G05G25
 -38377001.75446 -29867860.46543  24142736.4144                   24142734.8164
 -26821948.97348 -20870631.59846  21256213.5704                   21256212.1024
 -24570905.70748 -19110878.70746  20722101.3914                   20722098.7154
 -31725396.28147 -24680011.34844  22967397.5864                   22967396.6804
 -34158917.90648 -26600504.84846  20713923.4454                   20713919.6954
 -21617017.89548 -16808547.21946  20723023.4534                   20723021.3834
  -7445245.96947  -5767387.82845  22548634.0864                   22548634.9494
 11  8 11  1 42 30.0000000  0  7G17G10G12G04G02G05G25
 -38342691.80946 -29841125.50043  24149264.1954                   24149263.6524
 -26805330.16848 -20857681.87545  21259376.3284                   21259374.3714
 -24618144.89548 -19147688.45746  20713111.9844                   20713109.6994
 -31677913.30547 -24643011.67244  22976433.0704                   22976432.4774
 -34173338.00448 -26611741.28946  20711179.5944                   20711175.4924
 -21706186.15648 -16878028.94946  20706055.0634                   20706053.2274
  -7553176.10948  -5851489.19945  22528096.3364                   22528096.4534
 11  8 11  1 43  0.0000000  0  7G17G10G12G04G02G05G25
 -38308175.94146 -29814230.00843  24155833.5164                   24155832.3404
 -26788140.79348 -20844287.54745  21262647.5634                   21262645.7274
 -24664785.16048 -19184031.52046  20704236.5394                   20704234.3914
 -31630403.30147 -24605990.91444  22985474.1334                   22985473.2504
 -34187544.65248 -26622811.42246  20708475.9454                   20708472.1094
 -21794818.84048 -16947093.34446  20689189.0234                   20689186.7704
  -7660671.52747  -5935251.80145  22507640.6024                   22507640.9614
 11  8 11  1 43 30.0000000  0  7G17G10G12G04G02G05G25
 -38273452.73046 -29787173.00843  24162440.4064                   24162440.1724
 -26770381.85547 -20830449.41045  21266027.0164                   21266024.6024
 -24710824.66848 -19219906.45346  20695475.7664                   20695473.4884
 -31582866.14847 -24568949.00444  22994519.9844                   22994519.4964
 -34201537.57448 -26633715.00846  20705813.5084                   20705809.4844
 -21882913.01648 -17015738.12946  20672425.0234                   20672423.5124
  -7767728.31647  -6018672.63745  22487267.5164                   22487268.7034
 11  8 11  1 44  0.0000000  0  7G17G10G12G04G02G05G25
 -38238529.33646 -29759959.98043  24169084.8594                   24169085.5554
 -26752062.50447 -20816174.59045  21269512.7504                   21269510.9924
 -24756270.04748 -19255318.43046  20686827.7344                   20686825.5124
 -31535309.91847 -24531892.21144  23003569.6564                   23003569.1094
 -34215324.69148 -26644458.20746  20703189.6334                   20703185.7974
 -21970474.02748 -17083967.46546  20655762.4534                   20655761.3164
  -7874351.21147  -6101755.38345  22466978.5164                   22466978.9924
 11  8 11  1 44 30.0000000  0  8G17G10G29G12G04G02G05G25
 -38203408.86746 -29732593.39843  24175769.5164                   24175769.1024
 -26733187.43747 -20801466.73846  21273104.6094                   21273102.5704
   7708780.02056   6034311.56653  24548881.0084                   24548881.1804
 -24801123.24248 -19290268.96946  20678292.3834                   20678290.1644
 -31487738.68447 -24494823.73844  23012622.2584                   23012621.7584
 -34228910.14148 -26655044.27046  20700604.6484                   20700600.5204
 -22057503.09848 -17151782.29346  20639201.5784                   20639199.9804
  -7980540.83647  -6184500.50445  22446771.2424                   22446771.1884
 11  8 11  1 45  0.0000000  0  8G17G10G29G12G04G02G05G25
 -38168089.14546 -29705071.55143  24182490.5084                   24182490.5664
 -26713756.82847 -20786326.02045  21276801.6414                   21276800.1134
   7593735.68846   5944666.68044  24526988.9614                   24526988.9574
 -24845381.61348 -19324756.00046  20669870.4774                   20669867.9694
 -31440151.43747 -24457742.81644  23021677.6724                   23021677.4454
 -34242293.27748 -26665472.68446  20698057.9534                   20698053.8324
 -22143996.69148 -17219179.87546  20622742.4844                   20622741.0594
  -8086292.76647  -6266904.54345  22426647.1334                   22426648.0664
 11  8 11  1 45 30.0000000  0  8G17G10G29G12G04G02G05G25
 -38132564.71546 -29677390.18043  24189250.8364                   24189250.6524
 -26693767.53147 -20770749.93745  21280605.8134                   21280604.2074
   7478638.73846   5854980.77343  24505086.4454                   24505086.9654
 -24889040.11748 -19358775.60946  20661562.4844                   20661560.0084
 -31392544.09446 -24420646.19944  23030737.0004                   23030736.6254
 -34255469.75848 -26675740.06646  20695550.5164                   20695546.2274
 -22229947.80948 -17286154.74246  20606386.3594                   20606384.5744
  -8191599.29747  -6348961.55145  22406607.6414                   22406607.8404
 11  8 11  1 46  0.0000000  0  8G17G10G29G12G04G02G05G25
 -38096840.00446 -29649552.78143  24196048.9844                   24196048.4734
 -26673225.81247 -20754743.40646  21284515.0004                   21284512.8984
   7363486.04746   5765251.45744  24483173.5084                   24483173.7274
 -24932102.03548 -19392330.34046  20653368.0314                   20653365.5904
 -31344921.78546 -24383537.95744  23039799.5314                   23039798.7624
 -34268444.70748 -26685850.40646  20693081.2344                   20693077.2814
 -22315358.71148 -17352708.66846  20590133.3674                   20590131.3834
  -8296462.21547  -6430672.86345  22386652.7194                   22386653.4694
 11  8 11  1 46 30.0000000  0  8G17G10G29G12G04G02G05G25
 -38060919.56646 -29621562.83644  24202884.1724                   24202883.3094
 -26652138.64547 -20738311.84445  21288527.6484                   21288526.0004
   7248272.82047   5675474.97343  24461249.2734                   24461249.0274
 -24974571.19148 -19425423.18046  20645286.6254                   20645283.5704
 -31297290.26247 -24346422.53144  23048863.6804                   23048862.6054
 -34281223.84048 -26695808.18446  20690649.5944                   20690645.4574
 -22400233.01648 -17418844.45746  20573982.5084                   20573980.4144
  -8400883.92647  -6512040.39845  22366782.2274                   22366782.6604
 11  8 11  1 47  0.0000000  0  8G17G10G29G12G04G02G05G25
 -38024799.08646 -29593417.02343  24209757.6484                   24209757.3324
 -26630503.16047 -20721453.02745  21292644.7974                   21292642.8674
   7133005.04346   5585656.03544  24439314.1414                   24439314.9144
 -25016442.18048 -19458049.91046  20637318.5394                   20637316.2234
 -31249645.62147 -24309296.85943  23057929.7114                   23057929.2384
 -34293803.59448 -26705610.58646  20688255.8834                   20688251.4694
 -22484564.11348 -17484556.95747  20557934.5944                   20557932.5084
  -8504857.20347  -6593058.48845  22346996.5554                   22346997.4734
 11  8 11  1 47 30.0000000  0  8G17G10G29G12G04G02G05G25
 -37988476.55146 -29565113.80943  24216669.7274                   24216669.8364
 -26608320.02348 -20704167.44545  21296865.8594                   21296864.2234
   7017684.50847   5495795.91444  24417369.8054                   24417369.7504
 -25057713.42648 -19490209.32046  20629464.9844                   20629462.4454
 -31201987.72746 -24272160.86744  23066998.6254                   23066997.0594
 -34306183.48048 -26715257.23846  20685899.9224                   20685895.8754
 -22568349.15648 -17549843.97346  20541990.9304                   20541988.9384
  -8608378.24647  -6673724.19545  22327297.3674                   22327297.8714
 11  8 11  1 48  0.0000000  0  8G17G10G29G12G04G02G05G25
 -37951963.03546 -29536661.76243  24223618.4534                   24223617.3914
 -26585602.51247 -20686465.47745  21301188.5314                   21301187.1214
   6902300.67646   5405886.50443  24395412.2504                   24395412.5084
 -25098395.62948 -19521909.73446  20621723.2814                   20621721.0594
 -31154328.02347 -24235023.47344  23076068.4614                   23076067.4844
 -34318375.10548 -26724757.19946  20683579.6564                   20683575.7974
 -22651596.92248 -17614712.32047  20526149.3594                   20526147.4264
  -8711455.53548  -6754044.12145  22307682.4844                   22307682.7114
 11  8 11  1 48 30.0000000  0  8G17G10G29G12G04G02G05G25
 -37915245.40246 -29508050.63343  24230604.8754                   24230604.4884
 -26562339.05148 -20668338.08645  21305616.0234                   21305613.8914
   6786867.99647   5315939.02043  24373447.1414                   24373446.1134
 -25138474.96548 -19553140.38746  20614096.3524                   20614093.8634
 -31106654.68447 -24197875.41443  23085140.6334                   23085139.0274
 -34330366.40648 -26734101.06246  20681298.2894                   20681294.0634
 -22734293.15648 -17679150.91447  20510412.6484                   20510410.8054
  -8814073.50047  -6834006.14145  22288154.6414                   22288155.7194
 11  8 11  1 49  0.0000000  0  8G17G10G29G12G04G02G05G25
 -37878332.36746 -29479287.27343  24237629.5084                   24237629.1294
 -26538540.87947 -20649794.06645  21310144.1644                   21310142.6524
   6671378.12947   5225946.97343  24351470.0234                   24351468.6994
 -25177959.12548 -19583907.26646  20606582.5084                   20606580.7544
 -31058976.80147 -24160723.85244  23094213.4384                   23094212.2074
 -34342167.29348 -26743296.54346  20679052.5314                   20679048.4614
 -22816444.61348 -17743165.00447  20494779.9144                   20494777.9304
  -8916238.43447  -6913615.15245  22268713.1174                   22268713.8094
 11  8 11  1 49 30.0000000  0  8G17G10G29G12G04G02G05G25
 -36265804.68046 -28222772.25043  24544484.2504                   24544483.2034
 -24938790.74647 -19403235.51245  21614566.7424                   21614565.1174
   8131255.80146   6363514.02043  24629275.1724                   24629274.3204
 -23641426.84848 -18386609.38746  20898975.4384                   20898972.7504
 -29435877.06647 -22895970.82844  23403078.9534                   23403077.6724
 -32778357.94948 -25524743.79746  20976635.6024                   20976631.4884
 -21322626.96148 -16579151.21946  20779043.8834                   20779041.5864
  -7442524.44547  -5765266.56645  22549151.2814                   22549152.7234
 11  8 11  1 50  0.0000000  0  8G17G10G29G12G04G02G05G25
 -36228496.86346 -28193701.21543  24551582.9304                   24551582.2194
 -24913925.79347 -19383860.22345  21619298.2584                   21619296.4654
   8015657.26647   6273437.26643  24607277.4224                   24607276.3094
 -23679717.27048 -18416446.06646  20891689.0554                   20891686.3524
 -29388189.87147 -22858811.99243  23412153.2034                   23412152.3094
 -32789776.68048 -25533641.50446  20974462.2814                   20974458.5634
 -21403680.99248 -16642310.18446  20763619.6954                   20763618.0084
  -7543772.75847  -5844161.32845  22529884.8594                   22529885.4964
 11  8 11  1 50 30.0000000  0  8G17G10G29G12G04G02G05G25
 -36190995.46546 -28164479.36743  24558718.3834                   24558718.2974
 -24888534.47347 -19364074.77045  21624130.0704                   21624128.7344
   7900001.68447   6183316.03143  24585268.8984                   24585267.1684
 -23717413.67648 -18445819.89546  20884515.6564                   20884513.0274
 -29340502.89146 -22821653.35244  23421228.0944                   23421227.2734
 -32801009.59848 -25542394.42646  20972324.7504                   20972320.7774
 -21484187.84448 -16705042.77046  20748299.5864                   20748297.4344
  -7644562.86347  -5922699.04345  22510705.0554                   22510706.1174
 11  8 11  1 51  0.0000000  0  8G17G10G29G12G04G02G05G25
 -36153296.69146 -28135103.71942  24565892.4304                   24565892.5164
 -24862615.53947 -19343878.18445  21629062.6954                   21629060.6564
   7784293.38747   6093153.79743  24563250.3134                   24563248.8714
 -23754511.89148 -18474727.58646  20877456.0164                   20877453.4964
 -29292813.45347 -22784492.77744  23430303.9304                   23430302.3054
 -32812053.96948 -25551000.41846  20970223.4534                   20970219.1724
 -21564142.53948 -16767345.10947  20733085.0554                   20733082.8954
  -7744888.82048  -6000875.08645  22491613.4064                   22491614.3364
 11  8 11  1 51 30.0000000  0  8G17G10G29G12G04G02G05G25
 -36115391.55546 -28105567.27043  24573104.9924                   24573105.7854
 -24836161.92247 -19323264.95745  21634096.1484                   21634095.0204
   7668542.15247   6002957.98843  24541223.5004                   24541222.2934
 -23791002.88748 -18503162.12546  20870512.2114                   20870509.4184
 -29245113.39146 -22747323.91444  23439379.7424                   23439379.1134
 -32822901.57848 -25559453.09846  20968158.9144                   20968154.8714
 -21643534.25448 -16829208.75847  20717977.2274                   20717975.0234
  -7844739.23047  -6078680.59045  22472612.7584                   22472613.5044
 11  8 11  1 52  0.0000000  0  8G17G10G29G12G04G02G05G25
 -36077281.58646 -28075871.18442  24580358.6564                   24580357.6294
 -24809177.16447 -19302237.85545  21639231.0704                   21639229.3554
   7552747.62946   5912728.52743  24519188.0704                   24519187.1484
 -23826887.68448 -18531124.30546  20863683.0864                   20863680.5664
 -29197404.75046 -22710148.38744  23448458.2424                   23448458.6414
 -32833554.71148 -25567754.22746  20966131.9224                   20966127.7424
 -21722362.79348 -16890633.58247  20702976.2424                   20702974.3984
  -7944113.08647  -6156114.74645  22453702.5474                   22453703.3794
 11  8 11  1 52 30.0000000  0  8G17G10G29G12G04G02G05G25
 -36038971.64846 -28046019.26643  24587648.4534                   24587647.8324
 -24781668.78147 -19280802.75045  21644465.9844                   21644464.1094
   7436905.37146   5822461.86743  24497143.7664                   24497143.5634
 -23862171.06248 -18558617.85246  20856969.2894                   20856966.1914
 -29149693.56647 -22672970.87544  23457537.5164                   23457536.6684
 -32844019.46148 -25575908.57446  20964140.7584                   20964136.5864
 -21800632.07048 -16951622.59847  20688082.3204                   20688080.4454
  -8043013.30947  -6233179.83645  22434882.3134                   22434882.6374
 11  8 11  1 53  0.0000000  0  8G17G10G29G12G04G02G05G25
 -36000470.68446 -28016018.48042  24594974.6094                   24594974.6094
 -24753647.56247 -19258968.00845  21649798.3204                   21649796.6724
   7321007.22746   5732151.65243  24475089.0004                   24475088.3984
 -23896861.20748 -18585649.14146  20850367.7114                   20850365.2114
 -29101989.25047 -22635798.68444  23466615.6724                   23466614.8404
 -32854305.21148 -25583923.44946  20962183.1564                   20962179.0234
 -21878349.25448 -17012181.41446  20673293.2504                   20673291.1254
  -8141446.07447  -6309880.69545  22416151.2584                   22416151.4774
 11  8 11  1 53 30.0000000  0  8G17G10G29G12G04G02G05G25
 -35961772.59446 -27985864.17243  24602339.0084                   24602338.8284
 -24725109.88347 -19236730.84845  21655229.0474                   21655226.8954
   7205059.87146   5641803.12543  24453025.1024                   24453024.4964
 -23930951.92648 -18612213.35246  20843880.4924                   20843878.2624
 -29054286.68447 -22598627.86344  23475693.0704                   23475692.3794
 -32864406.85548 -25591794.85946  20960261.0944                   20960256.6994
 -21955507.07448 -17072304.35546  20658610.4844                   20658608.1604
  -8239403.17647  -6386210.89145  22397510.6644                   22397510.9144
 11  8 11  1 54  0.0000000  0  7G10G29G12G04G02G05G25
 -24696059.01248 -19214093.78545  21660757.1024                   21660755.1884
   7089063.47346   5551416.35244  24430952.4614                   24430951.5274
 -23964444.72748 -18638311.64146  20837507.1174                   20837504.6524
 -29006587.88746 -22561460.00844  23484770.0554                   23484768.7704
 -32874326.68748 -25599524.60246  20958373.2274                   20958369.0274
 -22032105.22748 -17131991.19546  20644034.3674                   20644032.0784
  -8336883.58248  -6462169.63345  22378960.6484                   22378961.1884
 11  8 11  1 54 30.0000000  0  7G10G29G12G04G02G05G25
 -24666491.16047 -19191053.88345  21666383.4384                   21666381.9144
   6973024.85946   5460996.69144  24408870.3054                   24408870.3444
 -23997332.85948 -18663938.76246  20831248.5314                   20831246.2854
 -28958887.34446 -22524290.79744  23493847.3054                   23493846.9454
 -32884059.43748 -25607108.55946  20956520.8834                   20956516.5554
 -22108136.45348 -17191236.28146  20629566.3054                   20629563.8714
  -8433878.85247  -6537750.35545  22360502.8834                   22360504.0434
 11  8 11  1 55  0.0000000  0  7G10G29G12G04G02G05G25
 -24636408.21147 -19167612.60545  21672108.2894                   21672106.1054
   6856945.25847   5370545.08244  24386781.5704                   24386780.7074
 -24029615.86348 -18689094.35246  20825105.3834                   20825102.8484
 -28911185.44946 -22487120.50844  23502924.7734                   23502924.1374
 -32893605.48848 -25614547.03946  20954704.7894                   20954700.6094
 -22183598.82848 -17250038.09847  20615206.1804                   20615204.1054
  -8530386.23448  -6612950.89845  22342138.3054                   22342139.2304
 11  8 11  1 55 30.0000000  0  7G10G29G12G04G02G05G25
 -24605815.20347 -19143773.86745  21677929.7814                   21677928.1844
   6740822.46147   5280059.84044  24364683.9384                   24364683.6214
 -24061295.98048 -18713780.16446  20819077.1804                   20819074.6524
 -28863485.62946 -22449951.85544  23512001.3134                   23512001.4024
 -32902968.18448 -25621842.63746  20952922.8204                   20952918.7934
 -22258493.80548 -17308397.78546  20600953.9064                   20600951.8754
  -8626406.29347  -6687771.69545  22323866.2814                   22323866.7424
 11  8 11  1 56  0.0000000  0  7G10G29G12G04G02G05G25
 -24574710.84447 -19119536.68745  21683848.8754                   21683846.8834
   6624660.82447   5189544.31644  24342579.0004                   24342578.7544
 -24092370.09848 -18737993.77746  20813163.7974                   20813161.3834
 -28815785.12546 -22412782.66844  23521078.6334                   23521078.7504
 -32912145.27348 -25628993.60946  20951176.7114                   20951172.6524
 -22332816.59847 -17366311.62146  20586810.7114                   20586809.2504
  -8721933.27047  -6762208.28545  22305688.1484                   22305688.7504
 11  8 11  1 56 30.0000000  0  7G10G29G12G04G02G05G25
 -24543100.41048 -19094905.15645  21689863.9144                   21689861.9264
   6508458.66447   5098997.23444  24320466.9384                   24320466.4534
 -24122840.63748 -18761737.07046  20807365.2504                   20807363.0784
 -28768087.52046 -22375615.73044  23530154.9534                   23530154.4534
 -32921140.26248 -25636002.68746  20949465.0234                   20949460.9184
 -22406568.44548 -17423780.55146  20572776.3054                   20572774.2504
  -8816967.61348  -6836260.98045  22287604.0004                   22287604.1604
 11  8 11  1 57  0.0000000  0  7G10G29G12G04G02G05G25
 -24510985.70347 -19069880.69945  21695974.7664                   21695973.4574
   6392217.14547   5008419.45344  24298346.6804                   24298346.0784
 -24152707.27348 -18785009.79346  20801682.2734                   20801679.6764
 -28720393.09446 -22338451.27344  23539230.4614                   23539230.8524
 -32929953.53548 -25642870.17646  20947788.1094                   20947783.8594
 -22479748.13348 -17480803.66047  20558850.6094                   20558848.7304
  -8911506.89848  -6909927.91845  22269613.4534                   22269613.8134
 11  8 11  1 57 30.0000000  0  7G10G29G12G04G02G05G25
 -24478365.05147 -19044461.99245  21702182.4224                   21702180.4224
   6275941.32046   4917814.96544  24276220.3834                   24276219.6524
 -24181965.40648 -18807808.35246  20796114.3834                   20796111.8524
 -28672698.32047 -22301286.55544  23548307.5004                   23548307.0944
 -32938581.59848 -25649593.34046  20946145.9924                   20946141.6994
 -22552350.17248 -17537376.64847  20545034.5634                   20545032.9414
  -9005544.62547  -6983204.03945  22251718.5634                   22251718.8164
 11  8 11  1 58  0.0000000  0  7G10G29G12G04G02G05G25
 -24445241.92247 -19018651.75845  21708485.7504                   21708483.6454
   6159631.39846   4827183.95743  24254086.3674                   24254085.4264
 -24210616.50448 -18830133.89546  20790662.3914                   20790660.0784
 -28625004.80747 -22264122.80043  23557382.4774                   23557382.1374
 -32947026.66848 -25656173.91846  20944538.7894                   20944534.6914
 -22624374.10948 -17593499.16846  20531328.9844                   20531326.7504
  -9099079.58648  -7056088.39545  22233919.1414                   22233920.3484
 11  8 11  1 58 30.0000000  0  7G10G29G12G04G02G05G25
 -24411624.26647 -18992456.17645  21714882.5784                   21714881.4224
   6043282.28946   4736522.41043  24231945.8364                   24231945.7274
 -24238666.09448 -18851990.73046  20785324.4454                   20785322.2384
 -28577319.28146 -22226965.26644  23566458.0864                   23566456.3834
 -32955294.86748 -25662616.67646  20942965.2734                   20942961.6644
 -22695824.77348 -17649174.98846  20517732.5704                   20517730.2704
  -9192115.33248  -7128583.73845  22216215.3914                   22216215.8404
 11  8 11  1 59  0.0000000  0  7G10G29G12G04G02G05G25
 -24377517.34047 -18965879.34045  21721373.1414                   21721371.8014
   5926891.77046   4645828.55943  24209797.8364                   24209797.8484
 -24266117.00048 -18873381.06646  20780100.9844                   20780098.0744
 -28529645.02347 -22189816.52744  23575529.0944                   23575529.1294
 -32963390.21148 -25668924.73046  20941424.8594                   20941420.9964
 -22766703.93748 -17704405.46947  20504244.7194                   20504242.5354
  -9284652.72747  -7200690.76245  22198606.1724                   22198606.7464
 11  8 11  1 59 30.0000000  0  7G10G29G12G04G02G05G25
 -24342926.63747 -18938925.53145  21727955.7814                   21727953.9654
   5810458.24246   4555101.24243  24187641.0864                   24187640.8484
 -24292972.37948 -18894307.34046  20774990.6254                   20774987.8164
 -28481985.64847 -22152679.35543  23584599.1254                   23584597.8634
 -32971316.31648 -25675100.93046  20939916.5784                   20939912.3284
 -22837013.32048 -17759191.97346  20490865.0314                   20490862.9964
  -9376692.46148  -7272409.99645  22181091.3204                   22181091.9844
 11  8 11  2  0  0.0000000  0  7G10G29G12G04G02G05G25
 -24307855.27347 -18911597.19145  21734629.5554                   21734627.5984
   5693981.47346   4464340.21543  24165476.0234                   24165475.2234
 -24319233.00048 -18914770.17646  20769993.2584                   20769990.4654
 -28434342.60947 -22115554.89844  23593665.0784                   23593664.4614
 -32979074.73848 -25681146.46146  20938440.5084                   20938436.4654
 -22906752.60948 -17813534.23847  20477594.1414                   20477592.4024
  -9468233.40648  -7343740.57446  22163671.8134                   22163672.1684
 11  8 11  2  0 30.0000000  0  7G10G29G12G04G02G05G25
 -24272294.28547 -18883887.32045  21741396.4924                   21741394.8204
   5577473.68846   4373554.96943  24143305.2734                   24143304.8524
 -24344888.11348 -18934761.19146  20765111.3134                   20765109.0164
 -28386705.59047 -22078435.14544  23602729.6024                   23602729.1954
 -32986655.04348 -25687053.19546  20936997.8594                   20936993.8094
 -22975909.40648 -17867422.61747  20464434.0784                   20464431.9844
  -9559262.10948  -7414671.99246  22146349.4534                   22146350.0124
 11  8 11  2  1  0.0000000  0  7G10G29G12G04G02G05G25
 -24236250.98447 -18855801.61345  21748255.7274                   21748253.5984
   5460931.23446   4282742.75043  24121128.8674                   24121127.2664
 -24369942.20348 -18954283.84846  20760343.4614                   20760340.9654
 -28339079.52047 -22041323.95344  23611792.9384                   23611792.6564
 -32994062.72748 -25692825.41846  20935588.5634                   20935584.4264
 -23044487.44948 -17920860.00047  20451384.1024                   20451381.9804
  -9649781.10548  -7485206.22746  22129124.6174                   22129124.8284
 11  8 11  2  1 30.0000000  0  7G10G29G12G04G02G05G25
 -24199737.00848 -18827349.17645  21755203.9774                   21755202.1764
   5344345.94246   4191897.06443  24098943.2584                   24098941.4804
 -24394404.37148 -18973345.29746  20755688.6484                   20755686.0234
 -28291474.37147 -22004229.05144  23620851.7504                   23620851.4734
 -33001307.74648 -25698470.91446  20934209.5864                   20934205.7854
 -23112494.74248 -17973852.66847  20438442.8284                   20438440.2344
  -9739797.40248  -7555348.77046  22111994.7274                   22111995.7074
 11  8 11  2  2  0.0000000  0  7G10G29G12G04G02G05G25
 -24162750.37147 -18798528.41445  21762242.6884                   21762240.3794
   5227723.43446   4101022.38344  24076750.3594                   24076749.4534
 -24418270.40648 -18991942.20346  20751146.7814                   20751144.4304
 -28243885.97347 -21967147.18443  23629907.0944                   23629906.8834
 -33008386.28948 -25703986.68046  20932862.8204                   20932858.3134
 -23179925.73048 -18026396.26647  20425610.7664                   20425608.9534
  -9829304.39847  -7625094.46146  22094962.2974                   22094962.8874
 11  8 11  2  2 30.0000000  0  7G10G29G12G04G02G05G25
 -24125288.96148 -18769337.71145  21769371.0394                   21769369.2504
   5111068.68446   4010122.55944  24054551.6334                   24054551.1644
 -24441536.38348 -19010071.53546  20746719.8444                   20746717.3954
 -28196310.68447 -21930075.52043  23638961.3054                   23638960.5204
 -33015295.19548 -25709370.24646  20931547.9614                   20931543.8674
 -23246775.56248 -18078487.02347  20412889.8364                   20412887.8714
  -9918296.00448  -7694438.55146  22078027.7504                   22078028.2934
 11  8 11  2  3  0.0000000  0  7G10G29G12G04G02G05G25
 -24087357.05548 -18739780.37545  21776588.7974                   21776586.9024
   4994381.02347   3919197.14844  24032346.5944                   24032345.7384
 -24464204.71948 -19027735.17246  20742406.3204                   20742403.7274
 -28148751.35947 -21893016.31644  23648011.2734                   23648010.7934
 -33022037.06648 -25714623.68046  20930264.8524                   20930261.2424
 -23313044.95348 -18130125.48847  20400279.2114                   20400277.1254
 -10006772.02048  -7763380.89146  22061191.1334                   22061191.4694
 11  8 11  2  3 30.0000000  0  7G10G29G12G04G02G05G25
 -24048962.55947 -18709862.59445  21783895.4224                   21783893.8444
   4877656.07847   3828242.61344  24010135.1174                   24010133.6644
 -24486280.43748 -19044937.03146  20738205.1254                   20738202.5904
 -28101213.51647 -21855973.85243  23657056.9384                   23657056.3244
 -33028617.28548 -25719751.13346  20929012.8524                   20929008.4924
 -23378738.27748 -18181315.07447  20387778.2734                   20387776.0984
 -10094735.67648  -7831923.97746  22044452.2584                   22044452.4924
 11  8 11  2  4  0.0000000  0  7G10G29G12G04G02G05G25
 -24010103.69548 -18679582.95345  21791290.1254                   21791288.3914
   4760899.33247   3737263.32044  23987917.0084                   23987916.0554
 -24507759.74248 -19061674.14546  20734117.5314                   20734115.3164
 -28053693.44147 -21818945.22743  23666099.6564                   23666099.8794
 -33035032.75448 -25724750.21546  20927791.8444                   20927787.8244
 -23443850.08248 -18232051.52347  20375387.9454                   20375385.7734
 -10182180.52748  -7900062.81646  22027812.5084                   22027811.9884
 11  8 11  2  4 30.0000000  0  7G10G29G12G04G02G05G25
 -23970789.05947 -18648948.16445  21798771.2974                   21798769.1644
   4644105.60947   3646255.23444  23965691.7734                   23965691.1294
 -24528649.13748 -19077951.60246  20730142.3444                   20730140.5594
 -28006197.96547 -21781935.77743  23675138.4454                   23675137.3244
 -33041290.63748 -25729626.50446  20926601.2584                   20926597.0274
 -23508385.48848 -18282338.83647  20363107.1954                   20363104.4884
 -10269110.83648  -7967800.71546  22011269.7584                   22011269.8554
 11  8 11  2  5  0.0000000  0  7G10G29G12G04G02G05G25
 -23931017.38747 -18617957.25045  21806339.6334                   21806337.8594
   4527279.67647   3555222.03144  23943460.7344                   23943459.8874
 -24548944.96148 -19093766.52746  20726280.0864                   20726278.1134
 -27958723.46947 -21744942.65643  23684172.1724                   23684171.4654
 -33047387.37948 -25734377.23046  20925441.0864                   20925437.0664
 -23572339.90248 -18332173.43747  20350936.9924                   20350934.6054
 -10355520.66048  -8035133.03946  21994826.5394                   21994826.8164
 11  8 11  2  5 30.0000000  0  7G10G29G12G04G02G05G25
 -23890803.41448 -18586621.69945  21813992.0554                   21813990.4224
   4410410.79746   3464155.40644  23921220.4384                   23921220.4654
 -24568659.55148 -19109128.55546  20722528.6254                   20722526.1684
 -27911282.72347 -21707975.87143  23693200.2114                   23693199.5314
 -33053335.57848 -25739012.21546  20924309.2194                   20924305.4574
 -23635724.67648 -18381564.14547  20338875.2344                   20338873.3594
 -10441420.20348  -8102067.75046  21978480.2974                   21978480.8054
 11  8 11  2  6  0.0000000  0  7G10G29G12G04G02G05G25
 -23850134.36348 -18554931.53945  21821730.9844                   21821729.3634
   4293514.58246   3373067.45344  23898975.7894                   23898975.9734
 -24587778.39148 -19124026.36346  20718890.4844                   20718888.5634
 -27863861.19947 -21671024.02743  23702223.9064                   23702223.5044
 -33059121.27748 -25743520.58246  20923208.3984                   20923204.1994
 -23698523.89848 -18430498.58647  20326925.0554                   20326922.7274
 -10526792.52048  -8168591.62146  21962234.7274                   21962235.1804
 11  8 11  2  6 30.0000000  0  7G10G29G12G04G02G05G25
 -23809005.34047 -18522882.95745  21829557.6804                   21829555.6994
   4176600.01246   3281965.22344  23876728.4454                   23876727.6134
 -24606294.39548 -19138454.41446  20715367.4144                   20715364.8164
 -27816451.86747 -21634081.70343  23711246.4144                   23711245.3054
 -33064737.61348 -25747896.95746  20922139.2814                   20922135.4304
 -23760729.21548 -18478970.23447  20315087.6724                   20315085.4574
 -10611628.07848  -8234697.25446  21946090.6644                   21946091.0944
 11  8 11  2  7  0.0000000  0  7G10G29G12G04G02G05G25
 -23767436.77748 -18490491.87145  21837467.5084                   21837466.1604
   4059650.37146   3190835.66444  23854473.8754                   23854473.3054
 -24624225.69548 -19152426.87146  20711955.0474                   20711952.5904
 -27769073.19147 -21597163.24643  23720261.4144                   23720261.0004
 -33070203.00048 -25752155.72346  20921099.4384                   20921095.1684
 -23822357.85948 -18526992.53147  20303360.0314                   20303357.9734
 -10695942.80548  -8300397.04746  21930045.9384                   21930047.4024
 11  8 11  2  7 30.0000000  0  7G10G29G12G04G02G05G25
 -23725424.98047 -18457755.42245  21845462.1564                   21845460.9144
   3942672.73846   3099684.29744  23832212.5944                   23832213.2504
 -24641567.05948 -19165939.62546  20708655.2274                   20708652.6564
 -27721719.55546 -21560264.32043  23729271.7034                   23729272.4964
 -33075512.37148 -25756292.91446  20920088.9454                   20920084.8164
 -23883402.85248 -18574560.03547  20291743.3674                   20291741.4884
 -10779729.07848  -8365685.05146  21914102.1334                   21914102.9104
 11  8 11  2  8  0.0000000  0  7G10G29G12G04G02G05G25
 -23682973.24247 -18424676.14845  21853540.7274                   21853538.9414
   3825667.81346   3008511.69544  23809947.9144                   23809947.5744
 -24658319.26648 -19178993.29746  20705467.3754                   20705464.5664
 -27674391.94546 -21523385.71143  23738279.4774                   23738278.7664
 -33080666.53948 -25760309.16846  20919108.3914                   20919104.2034
 -23943864.14548 -18621672.69547  20280238.3134                   20280236.1844
 -10862985.34448  -8430560.04746  21898258.9454                   21898259.2814
 11  8 11  2  8 30.0000000  0  7G10G29G12G04G02G05G25
 -23640078.02047 -18391251.30145  21861703.6254                   21861701.7274
   3708642.44947   2917323.16444  23787678.8754                   23787678.0664
 -24674476.62148 -19191583.45746  20702392.6724                   20702390.2344
 -27627084.89146 -21486523.07443  23747281.3834                   23747281.0904
 -33085660.62548 -25764200.66046  20918157.8054                   20918153.6374
 -24003734.91448 -18668325.21547  20268844.9844                   20268843.2384
 -10945703.69948  -8495015.91046  21882518.2274                   21882518.2774
 11  8 11  2  9  0.0000000  0  7G10G29G12G04G02G05G25
 -23596748.44147 -18357488.01245  21869948.8134                   21869947.0824
   3591591.41047   2826114.63744  23765404.3054                   23765404.4224
 -24690046.17648 -19203715.58246  20699430.0314                   20699427.2814
 -27579805.10546 -21449681.69543  23756278.3054                   23756276.7734
 -33090501.49648 -25767972.76646  20917237.0704                   20917232.5354
 -24063021.02348 -18714522.14847  20257563.3754                   20257560.8484
 -11027888.87948  -8559056.29346  21866879.3054                   21866879.2624
 11  8 11  2  9 30.0000000  0  7G10G29G12G04G02G05G25
 -23552996.72348 -18323395.77745  21878274.6564                   21878272.9534
   3474506.25047   2734879.50844  23743123.8674                   23743123.7114
 -24705038.53548 -19215397.94546  20696577.0234                   20696574.3444
 -27532562.90246 -21412869.60943  23765267.1644                   23765267.4964
 -33095199.58648 -25771633.60946  20916342.8134                   20916338.2034
 -24121731.43048 -18760270.48047  20246390.9224                   20246389.0474
 -11109548.62948  -8622687.25446  21851339.8984                   21851340.1994
 11  8 11  2 10  0.0000000  0  7G10G29G12G04G02G05G25
 -23508817.85547 -18288970.70345  21886681.4774                   21886679.5474
   3357395.97747   2643624.80944  23720838.0784                   23720838.2344
 -24719446.17248 -19226624.68046  20693835.2734                   20693832.9304
 -27485350.97746 -21376081.10543  23774251.6414                   23774252.1174
 -33099747.93048 -25775177.78146  20915477.0704                   20915472.6094
 -24179857.74648 -18805563.68447  20235330.2734                   20235328.0554
 -11190673.61348  -8685901.51646  21835902.0234                   21835902.9384
 11  8 11  2 10 30.0000000  0  7G10G29G12G04G02G05G25
 -23464207.43747 -18254209.35545  21895170.5004                   21895168.8204
   3240268.27047   2552356.48044  23698550.6414                   23698549.1724
 -24733263.01248 -19237391.04746  20691205.8054                   20691203.4064
 -27438162.92646 -21339311.21943  23783232.0634                   23783231.5514
 -33104140.14848 -25778600.28146  20914641.4144                   20914637.3204
 -24237392.55548 -18850395.96547  20224381.0634                   20224379.0784
 -11271255.14548  -8748692.29746  21820568.0314                   21820568.5744
 11  8 11  2 11  0.0000000  0  7G10G29G12G04G02G05G25
 -23419171.85247 -18219116.71145  21903740.3674                   21903738.7894
   3123120.71547   2461072.69144  23676257.6804                   23676257.0204
 -24746493.43748 -19247700.46146  20688688.2894                   20688685.4574
 -27391002.78146 -21302563.06243  23792206.5474                   23792205.8244
 -33108380.60948 -25781904.52046  20913834.9384                   20913830.5164
 -24294339.00448 -18894769.78147  20213544.9694                   20213542.3834
 -11351295.18448  -8811061.13746  21805336.6724                   21805337.2194
 11  8 11  2 11 30.0000000  0  7G10G29G12G04G02G05G25
 -23373721.00447 -18183700.47345  21912389.1644                   21912387.3834
   3005946.93847   2369768.52044  23653960.4384                   23653959.4844
 -24759145.87948 -19257559.50846  20686280.5554                   20686278.0554
 -27343878.65647 -21265842.95744  23801173.6414                   23801172.8094
 -33112477.60548 -25785096.98446  20913054.7504                   20913050.3094
 -24350704.28548 -18938690.75047  20202818.8444                   20202816.8204
 -11430799.52348  -8873012.55146  21790207.6094                   21790208.3164
 11  8 11  2 12  0.0000000  0  7G10G29G12G04G02G05G25
 -21752441.53947 -16920365.83645  22220908.6094                   22220906.6174
   4464169.84847   3506046.14544  23931450.8674                   23931449.1214
 -23195802.46148 -18039369.83646  20983774.7274                   20983772.7234
 -25721374.45347 -20001553.97344  24109925.7274                   24109925.1094
 -31541013.78548 -24560579.71546  21212094.2274                   21212090.4454
 -22831068.16048 -17754558.66847  20491995.8204                   20491993.6914
  -9934345.89548  -7706944.77346  22074973.0004                   22074973.7304
 11  8 11  2 12 30.0000000  0  7G10G29G12G04G02G05G25
 -21706168.11747 -16884308.61745  22229714.2974                   22229712.5274
   4346947.56647   3414704.13744  23909143.8984                   23909142.5634
 -23207299.76648 -18048328.77046  20981587.2974                   20981584.6054
 -25674322.49646 -19964890.16044  24118879.3054                   24118879.1374
 -31544825.23448 -24563549.66446  21211369.0784                   21211364.9454
 -22886268.53948 -17797571.91847  20481491.4064                   20481489.1764
 -10012773.05148  -7768056.81246  22060048.8594                   22060049.3634
 11  8 11  2 13  0.0000000  0  7G10G29G12G04G02G05G25
 -21659480.02347 -16847928.31245  22238599.1484                   22238597.4264
   4229710.13747   3323350.35244  23886834.0704                   23886833.4494
 -23218213.44148 -18056832.93746  20979510.4924                   20979507.7584
 -25627300.11346 -19928249.34444  24127827.7734                   24127827.3874
 -31548487.60248 -24566403.45346  21210672.2504                   21210668.3754
 -22940878.66048 -17840125.23447  20471099.4224                   20471097.2894
 -10090651.92648  -7828741.63346  22045229.1884                   22045229.7584
 11  8 11  2 13 30.0000000  0  7G10G29G12G04G02G05G25
 -21612377.68047 -16811225.19545  22247562.3754                   22247560.6414
   4112461.14146   3231987.57844  23864521.8984                   23864521.8284
 -23228542.00848 -18064881.16846  20977544.9694                   20977542.1254
 -25580305.52047 -19891630.16443  24136770.4534                   24136769.5904
 -31551999.09848 -24569139.66046  21210004.1484                   21210000.1524
 -22994895.75848 -17882216.46147  20460820.3134                   20460818.2274
 -10167978.67648  -7888996.21946  22030514.1254                   22030514.8094
 11  8 11  2 14  0.0000000  0  7G10G29G12G04G02G05G25
 -21564866.76247 -16774203.71545  22256603.1954                   22256600.9344
   3995198.55147   3140614.16844  23842208.0704                   23842207.4804
 -23238289.27748 -18072476.43746  20975690.1094                   20975687.2424
 -25533342.14546 -19855035.33643  24145707.8674                   24145706.7034
 -31555363.41448 -24571761.19146  21209363.9454                   21209359.8014
 -23048322.33648 -17923847.53547  20450653.9384                   20450651.7034
 -10244754.67248  -7948821.66046  22015904.5634                   22015904.7774
 11  8 11  2 14 30.0000000  0  7G10G29G12G04G02G05G25
 -21516961.64147 -16736875.07445  22265719.2584                   22265717.4454
   3877912.29346   3049222.34844  23819888.5314                   23819888.3634
 -23247467.87948 -18079628.59446  20973943.5554                   20973940.9774
 -25486421.56246 -19818473.84843  24154635.4304                   24154635.2704
 -31558592.71148 -24574277.50446  21208749.2114                   21208744.5434
 -23101169.70348 -17965027.27747  20440597.3594                   20440595.0634
 -10320989.80948  -8008225.63746  22001397.2274                   22001397.6644
 11  8 11  2 15  0.0000000  0  7G10G29G12G04G02G05G25
 -21468657.23047 -16699235.28945  22274911.2894                   22274909.3204
   3760610.83647   2957818.69944  23797566.5944                   23797566.3364
 -23256071.15648 -18086332.44546  20972306.5864                   20972303.7974
 -25439537.01846 -19781940.43043  24163557.7894                   24163557.1294
 -31561680.52348 -24576683.58246  21208161.7034                   21208157.3524
 -23153430.24248 -18005749.74647  20430652.2504                   20430650.1564
 -10396675.27048  -8067201.30146  21986994.8284                   21986995.3134
 11  8 11  2 15 30.0000000  0  7G10G29G12G04G02G05G25
 -21419950.68047 -16661282.15245  22284179.9694                   22284177.9924
   3643300.96947   2866408.46944  23775243.5234                   23775243.0824
 -23264094.24648 -18092584.20346  20970779.4614                   20970776.5204
 -25392683.44546 -19745431.16043  24172473.5704                   24172473.8484
 -31564621.75048 -24578975.42246  21207602.2114                   21207597.9614
 -23205097.79748 -18046010.16047  20420820.3054                   20420818.1564
 -10471803.88348  -8125743.06246  21972698.2034                   21972698.4064
 11  8 11  2 16  0.0000000  0  7G10G29G12G04G02G05G25
 -21370842.87147 -16623016.34045  22293524.5864                   22293523.1214
   3525986.07847   2774994.35944  23752919.7894                   23752919.3164
 -23271535.91448 -18098382.90246  20969363.3674                   20969360.8874
 -25345858.93046 -19708944.51243  24181383.4534                   24181383.5204
 -31567414.92248 -24581151.89846  21207070.2114                   21207065.9224
 -23256170.11748 -18085806.75047  20411101.4694                   20411099.4614
 -10546372.14148  -8183848.17646  21958508.5704                   21958508.1884
 11  8 11  2 16 30.0000000  0  7G10G29G12G04G02G05G25
 -21321343.88747 -16584445.71545  22302944.4844                   22302942.8404
   3408659.64547   2683571.23044  23730593.1094                   23730592.8834
 -23278405.09448 -18103735.52046  20968056.2034                   20968053.7194
 -25299071.41446 -19672486.64843  24190286.6414                   24190286.2034
 -31570068.21148 -24583219.36346  21206565.3204                   21206561.2464
 -23306654.56248 -18125145.26647  20401494.7894                   20401492.4414
 -10620386.09848  -8241521.37146  21944424.0474                   21944424.0474
 11  8 11  2 17  0.0000000  0  7G10G29G12G04G02G05G25
 -21271451.94147 -16545568.90245  22312438.0554                   22312436.5984
   3291327.68447   2592143.77344  23708265.5234                   23708264.6134
 -23284698.19148 -18108639.23446  20966858.7344                   20966856.1604
 -25252316.80146 -19636054.49643  24199184.3364                   24199184.9104
 -31572577.85948 -24585174.90646  21206087.6414                   21206083.7814
 -23356546.39848 -18164021.99247  20392000.3834                   20391998.4734
 -10693839.67648  -8298757.91846  21930446.5234                   21930446.6844
 11  8 11  2 17 30.0000000  0  7G10G29G12G04G02G05G25
 -21221171.82047 -16506389.60245  22322005.7974                   22322004.3634
   3173989.80547   2500711.70344  23685936.9384                   23685936.4184
 -23290417.19548 -18113095.61346  20965770.2344                   20965767.7154
 -25205597.12946 -19599649.55143  24208074.9694                   24208074.6724
 -31574945.63348 -24587019.89546  21205637.2584                   21205633.3834
 -23405846.94548 -18202437.99247  20382619.1094                   20382616.8554
 -10766733.11348  -8355557.99246  21916574.8594                   21916575.4454
 11  8 11  2 18  0.0000000  0  7G10G29G12G04G02G05G25
 -21170516.16047 -16466917.69945  22331645.4774                   22331643.9694
   3056636.91447   2409267.94144  23663605.3524                   23663604.1804
 -23295574.16448 -18117114.03146  20964789.1954                   20964786.6334
 -25158922.77046 -19563279.88343  24216955.9614                   24216956.3554
 -31577182.68748 -24588763.02746  21205211.4614                   21205207.3014
 -23454566.32048 -18240401.12947  20373348.0554                   20373345.7384
 -10839075.29348  -8411928.51246  21902808.4454                   21902809.0984
 11  8 11  2 18 30.0000000  0  7G10G29G12G04G02G05G25
 -21119489.18747 -16427156.44545  22341355.8914                   22341353.8554
   2939268.94547   2317812.46144  23641270.5474                   23641269.5314
 -23300171.41448 -18120696.30546  20963914.0234                   20963911.8874
 -25112295.64545 -19526947.06242  24225829.7814                   24225829.1294
 -31579291.19548 -24590406.00846  21204810.2974                   21204805.7344
 -23502705.62148 -18277912.25447  20364187.2344                   20364185.3204
 -10910866.20748  -8467869.47346  21889147.0554                   21889147.9104
 11  8 11  2 19  0.0000000  0  7G10G29G12G04G02G05G25
 -21068089.99247 -16387105.16045  22351136.6564                   22351134.9694
   2821890.46947   2226348.75844  23618934.2424                   23618933.6094
 -23304206.53148 -18123840.56646  20963146.6644                   20963143.6604
 -25065712.62146 -19490648.55942  24234693.8284                   24234693.5354
 -31581268.16848 -24591946.48846  21204434.1254                   21204429.8164
 -23550261.62948 -18314968.85947  20355137.8754                   20355135.4384
 -10982101.08248  -8523377.16846  21875591.9774                   21875592.5314
 11  8 11  2 19 30.0000000  0  7G10G29G12G04G02G05G25
 -21016319.90247 -16346764.85944  22360988.2504                   22360986.5824
   2704504.39547   2134879.13344  23596595.8284                   23596594.6174
 -23307678.78548 -18126546.23046  20962485.6564                   20962483.3404
 -25019172.38746 -19454383.44943  24243549.7894                   24243549.8874
 -31583112.64148 -24593383.70346  21204083.2274                   21204078.9184
 -23597232.63748 -18351569.64147  20346199.5704                   20346197.3954
 -11052777.07048  -8578449.36346  21862142.8204                   21862143.1684
 11  8 11  2 20  0.0000000  0  7G10G29G12G04G02G05G25
 -20964173.89847 -16306131.63345  22370911.2114                   22370909.5594
   2587120.02747   2043410.82844  23574258.6414                   23574256.9414
 -23310581.75048 -18128808.28546  20961933.1644                   20961931.0274
 -24972667.64546 -19418146.02343  24252400.2344                   24252399.3754
 -31584817.45348 -24594712.10246  21203759.0944                   21203754.5864
 -23643610.52048 -18387708.22747  20337374.0784                   20337371.6454
 -11122884.90648  -8633078.84446  21848801.4534                   21848802.0514
 11  8 11  2 20 30.0000000  0  7G10G29G12G04G02G05G25
 -20911660.90647 -16265212.42645  22380904.1884                   22380902.6524
   2469732.37147   1951940.00044  23551920.8984                   23551919.9534
 -23312922.90248 -18130632.56646  20961487.7814                   20961485.4534
 -24926204.67246 -19381941.14543  24261241.4924                   24261240.8134
 -31586389.53548 -24595937.07446  21203459.6564                   21203455.5204
 -23689401.55148 -18423389.53947  20328660.2664                   20328658.1804
 -11192429.60948  -8687269.52746  21835568.0474                   21835568.0044
 11  8 11  2 21  0.0000000  0  7G10G29G12G04G02G05G25
 -20858785.30947 -16224010.69545  22390966.3984                   22390964.7464
   2352341.14547   1860466.41844  23529581.4924                   23529581.1524
 -23314704.69948 -18132020.98046  20961148.9064                   20961146.0904
 -24879785.33646 -19345770.21943  24270074.9144                   24270074.0004
 -31587830.52348 -24597059.89146  21203185.6094                   21203180.9344
 -23734607.20748 -18458614.71147  20320058.0864                   20320055.8714
 -11261411.24248  -8741021.44546  21822440.9774                   21822441.5664
 11  8 11  2 21 30.0000000  0  7G10G29G12G04G02G05G25
 -20805552.24247 -16182530.39145  22401096.5554                   22401093.9534
   2234945.41446   1768989.30144  23507241.8054                   23507241.0984
 -23315930.48848 -18132976.15646  20960915.6094                   20960912.7504
 -24833412.26246 -19309635.36743  24278898.8444                   24278898.5554
 -31589143.63748 -24598083.06246  21202935.2664                   21202930.6844
 -23779229.82048 -18493385.55147  20311566.5864                   20311564.1954
 -11329831.08248  -8794335.60546  21809421.1024                   21809421.5864
 11  8 11  2 22  0.0000000  0  7G10G29G12G04G02G05G25
 -20751958.62147 -16140769.14145  22411294.7504                   22411292.8714
   2117552.27747   1677514.21544  23484902.7664                   23484902.0944
 -23316596.12548 -18133494.83646  20960788.4454                   20960786.2894
 -24787080.10246 -19273532.35543  24287715.1954                   24287715.4384
 -31590323.48848 -24599002.40246  21202711.0474                   21202706.5634
 -23823263.72748 -18527697.67647  20303187.0164                   20303184.8634
 -11397682.10248  -8847206.53146  21796509.6174                   21796510.1214
 11  8 11  2 22 30.0000000  0  7G10G29G12G04G02G05G25
 -20697995.79347 -16098720.21144  22421563.1174                   22421561.3914
   2000174.19946   1586050.85544  23462566.0164                   23462565.6884
 -23316691.75048 -18133569.35546  20960770.3364                   20960768.2814
 -24740777.87146 -19237452.69143  24296526.8914                   24296526.2154
 -31591359.52348 -24599809.67246  21202513.4304                   21202509.0744
 -23866697.83248 -18561542.41847  20294921.7274                   20294919.7934
 -11464951.86748  -8899624.51246  21783708.4694                   21783708.9344
 11  8 11  2 23  0.0000000  0  7G10G29G12G04G02G05G25
 -20643679.19947 -16056395.61345  22431899.4144                   22431897.6914
   1882800.19946   1494590.66444  23440230.6094                   23440229.8754
 -23316230.83248 -18133210.19946  20960858.3134                   20960856.0044
 -24694518.15246 -19201406.19543  24305329.9144                   24305329.7114
 -31592264.70348 -24600514.98046  21202341.3054                   21202337.4104
 -23909544.57448 -18594929.46947  20286768.2504                   20286765.8754
 -11531651.59848  -8951598.33646  21771016.1094                   21771016.4614
 11  8 11  2 23 30.0000000  0  7G10G29G12G04G02G05G25
 -20589005.69147 -16013792.89544  22442303.2734                   22442301.5434
   1765437.30547   1403139.11344  23417897.8284                   23417896.6914
 -23315209.03948 -18132414.00446  20961052.7114                   20961050.3874
 -24648295.38746 -19165388.48043  24314125.5084                   24314125.1174
 -31593033.65248 -24601114.14546  21202195.1414                   21202190.8364
 -23951798.15648 -18627854.31647  20278727.6174                   20278725.3164
 -11597774.43448  -9003122.61346  21758433.1564                   21758433.4264
 11  8 11  2 24  0.0000000  0  8G26G10G29G12G04G02G05G25
  10840920.87156   8473327.22752  24786955.8444                   24786956.4224
 -20533992.35247 -15970925.38344  22452772.6804                   22452770.4884
   1648073.10247   1311686.56645  23395563.6174                   23395563.6294
 -23313641.88348 -18131192.83646  20961350.9844                   20961348.3954
 -24602124.28946 -19129411.00043  24322911.9064                   24322911.9414
 -31593681.09847 -24601618.62146  21202071.6954                   21202067.7894
 -23993473.28948 -18660328.42647  20270797.4384                   20270795.0434
 -11663333.50048  -9054207.59846  21745957.5784                   21745957.7504
 11  8 11  2 24 30.0000000  0  8G26G10G29G12G04G02G05G25
  10713082.79345   8373713.19142  24762628.3524                   24762630.2274
 -20478634.92247 -15927789.73845  22463306.1414                   22463305.0594
   1530715.68447   1220239.31645  23373231.6094                   23373230.5984
 -23311523.25448 -18129541.95746  20961753.9924                   20961752.2154
 -24555997.76246 -19093468.25043  24331689.1954                   24331689.4304
 -31594200.61748 -24602023.41846  21201972.6644                   21201968.5784
 -24034562.78948 -18692346.20347  20262978.3524                   20262976.0124
 -11728320.34048  -9104846.69946  21733591.2974                   21733591.3284
 11  8 11  2 25  0.0000000  0  8G26G10G29G12G04G02G05G25
  10585124.36746   8274005.54342  24738279.5704                   24738279.7734
 -20422943.23047 -15884393.62944  22473904.3914                   22473902.2424
   1413359.48847   1128792.94145  23350899.8284                   23350898.5944
 -23308861.49248 -18127467.86346  20962260.6644                   20962258.1254
 -24509923.35546 -19057566.14143  24340456.9534                   24340456.6414
 -31594599.88748 -24602334.50846  21201896.7664                   21201892.6604
 -24075073.80948 -18723913.20347  20255268.6954                   20255266.6334
 -11792741.16848  -9155044.72346  21721332.3364                   21721332.5554
 11  8 11  2 25 30.0000000  0  8G26G10G29G12G04G02G05G25
  10457056.47745   8174212.50043  24713907.8984                   24713908.9344
 -20366912.27347 -15840733.15244  22484566.4534                   22484565.0514
   1296013.50047   1037354.55944  23328569.5004                   23328568.5314
 -23305650.96548 -18124966.15246  20962871.5474                   20962869.0474
 -24463893.34846 -19021698.59043  24349216.6334                   24349216.0664
 -31594871.61748 -24602546.23046  21201844.8594                   21201841.0514
 -24114998.81248 -18755023.57847  20247671.7274                   20247669.4064
 -11856587.08648  -9204794.77046  21709182.4924                   21709183.5124
 11  8 11  2 26  0.0000000  0  8G26G10G29G12G04G02G05G25
  10328880.50046   8074335.17243  24689516.8054                   24689518.4734
 -20310546.53547 -15796811.81244  22495292.7664                   22495291.5044
   1178677.85547    945924.24244  23306241.0704                   23306239.8284
 -23301894.44548 -18122038.99646  20963586.4144                   20963584.2274
 -24417909.24647 -18985866.81643  24357966.7274                   24357966.7384
 -31595017.89548 -24602660.18446  21201817.4224                   21201812.9104
 -24154339.57048 -18785678.68747  20240185.3674                   20240183.2114
 -11919858.55548  -9254097.19546  21697142.8134                   21697143.1764
 11  8 11  2 26 30.0000000  0  8G26G10G29G12G04G02G05G25
  10200596.88746   7974373.98043  24665105.7114                   24665106.7734
 -20253851.25447 -15752633.71545  22506081.3754                   22506079.7664
   1061351.23447    854500.91044  23283913.8134                   23283913.3164
 -23297595.79348 -18118689.38346  20964404.2894                   20964402.1334
 -24371974.26647 -18950073.35243  24366708.4844                   24366707.9024
 -31595041.54348 -24602678.59446  21201812.7114                   21201808.0234
 -24193099.16048 -18815880.94947  20232809.9694                   20232807.4924
 -11982557.26248  -9302953.31646  21685211.5634                   21685212.0474
 11  8 11  2 27  0.0000000  0  8G26G10G29G12G04G02G05G25
  10072208.57446   7874331.19543  24640674.0314                   24640674.7034
 -20196829.12147 -15708200.89144  22516932.5634                   22516930.9104
    944035.20347    763085.85545  23261589.7974                   23261589.0634
 -23292756.39148 -18114918.42646  20965325.3524                   20965322.8094
 -24326088.69547 -18914318.35243  24375440.0084                   24375439.6134
 -31594943.10948 -24602601.87146  21201831.6334                   21201826.9184
 -24231277.67648 -18845630.42647  20225544.6334                   20225542.4224
 -12044682.22748  -9351362.36746  21673388.8594                   21673390.2194
 11  8 11  2 27 30.0000000  0  8G26G10G29G12G04G02G05G25
   9943711.64546   7774203.80543  24616222.7034                   24616222.4384
 -20139489.92247 -15663521.01245  22527843.6254                   22527841.5164
    826724.22747    671674.72344  23239266.3204                   23239265.0634
 -23287384.59048 -18110732.60546  20966347.9224                   20966345.3714
 -24280259.39846 -18878607.19143  24384160.5084                   24384160.1684
 -31594730.20348 -24602435.94546  21201871.9844                   21201867.5044
 -24268882.55148 -18874932.91047  20218388.3914                   20218386.3134
 -12106239.36748  -9399328.94546  21661675.2974                   21661675.7934
 11  8 11  2 28  0.0000000  0  8G26G10G29G12G04G02G05G25
   9815110.83246   7673995.49643  24591750.1724                   24591750.1844
 -20081835.00847 -15618595.13344  22538815.2034                   22538812.9884
    709421.14147    580269.71544  23216944.1334                   23216943.0944
 -23281480.69548 -18106132.17646  20967471.3284                   20967468.8324
 -24234485.12947 -18842938.94943  24392871.7114                   24392870.8444
 -31594401.63348 -24602179.90246  21201934.5234                   21201930.1564
 -24305912.60248 -18903787.48047  20211342.0234                   20211339.4344
 -12167226.35248  -9446851.25846  21650069.7114                   21650070.6454
 11  8 11  2 28 30.0000000  0  8G26G10G29G12G04G02G05G25
   9686417.10946   7573714.78543  24567260.1954                   24567260.1684
 -20023858.93047 -15573418.94544  22549847.3914                   22549845.8984
    592135.48847    488878.27744  23194625.4064                   23194624.3984
 -23275037.92248 -18101111.83246  20968697.2114                   20968694.9264
 -24188758.01246 -18807307.43043  24401572.1884                   24401571.9304
 -31593949.89148 -24601827.87546  21202020.6804                   21202016.4104
 -24342359.96548 -18932188.01247  20204406.2114                   20204404.1054
 -12227634.06248  -9493922.18046  21638574.6724                   21638575.1954
 11  8 11  2 29  0.0000000  0  8G26G10G29G12G04G02G05G25
   9557629.53946   7473360.95743  24542752.9614                   24542752.8634
 -19965568.99247 -15527998.23844  22560939.2194                   22560937.7664
    474864.71947    397498.49644  23172308.6094                   23172308.9384
 -23268062.35548 -18095676.32046  20970024.4454                   20970022.1024
 -24143082.32046 -18771715.98042  24410264.5554                   24410264.4804
 -31593379.69148 -24601383.55146  21202129.2504                   21202124.9844
 -24378229.44148 -18960138.24647  20197580.3674                   20197577.9344
 -12287465.87548  -9540544.34846  21627188.9064                   21627189.4494
 11  8 11  2 29 30.0000000  0  8G26G10G29G12G04G02G05G25
   9428762.53946   7372945.26243  24518230.3594                   24518230.4574
 -19906956.49647 -15482326.17244  22572093.1804                   22572091.5704
    357621.84047    306140.43044  23149998.4384                   23149998.4654
 -23260543.93448 -18089817.80546  20971455.1334                   20971452.5044
 -24097446.90646 -18736155.97742  24418948.1024                   24418948.7234
 -31592680.04348 -24600838.36746  21202262.5394                   21202258.2624
 -24413509.85548 -18987629.46147  20190866.8524                   20190864.4964
 -12346709.52748  -9586708.20746  21615915.1334                   21615916.0234
 11  8 11  2 30  0.0000000  0  8G26G10G29G12G04G02G05G25
   9299807.75847   7272461.14543  24493690.7894                   24493691.1954
 -19848035.42247 -15436413.63744  22583305.3674                   22583303.8134
    240396.63747    214796.15244  23127691.0164                   23127691.0634
 -23252495.70748 -18083546.46546  20972986.7504                   20972984.6454
 -24051863.35246 -18700636.28542  24427623.1174                   24427624.1684
 -31591862.69148 -24600201.47346  21202417.7114                   21202413.3714
 -24448213.11748 -19014670.96147  20184263.1174                   20184260.7464
 -12405375.57048  -9632421.98846  21604752.0784                   21604752.0314
 11  8 11  2 30 30.0000000  0  8G26G10G29G12G04G02G05G25
   9170764.73847   7171908.28143  24469134.1644                   24469134.6294
 -19788812.18047 -15390265.68444  22594575.2114                   22594574.1684
    123187.53946    123464.41044  23105386.9844                   23105386.4924
 -23243922.71548 -18076866.21146  20974618.3134                   20974616.0944
 -24006335.22746 -18665159.80542  24436287.1174                   24436286.9064
 -31590931.58248 -24599475.92246  21202594.9614                   21202590.8054
 -24482342.84848 -19041265.55147  20177768.1804                   20177765.8834
 -12463466.61748  -9677687.71146  21593697.2424                   21593697.6214
 11  8 11  2 31  0.0000000  0  8G26G10G29G12G04G02G05G25
   9041643.68847   7071294.56343  24444563.0864                   24444562.7194
 -19729282.39547 -15343878.85244  22605904.0474                   22605902.2384
      6002.70346     32151.57044  23083087.6254                   23083087.0234
 -23234819.74248 -18069772.98846  20976350.3204                   20976348.2304
 -23960855.70746 -18629721.18742  24444941.2664                   24444942.2704
 -31589880.20748 -24598656.66846  21202794.7114                   21202790.8484
 -24515892.87948 -19067408.42247  20171384.0474                   20171381.8284
 -12520974.89848  -9722499.33246  21582753.8204                   21582754.2624
 11  8 11  2 31 30.0000000  0  8G26G10G29G12G04G02G05G25
   8912444.90246   6970620.28943  24419977.2034                   24419977.2114
 -19669452.11747 -15297257.88344  22617289.3284                   22617287.8134
   -111159.09446    -59143.30944  23060792.2114                   23060791.8984
 -23225191.44148 -18062270.43446  20978182.4534                   20978180.2304
 -23915427.789 6                  24453586.023
 -31588711.83648 -24597746.24246  21203017.2034                   21203013.3914
 -24548866.39848 -19093102.06647  20165109.1564                   20165107.1294
 -12577902.57448  -9766858.53946  21571920.6484                   21571920.8914
 11  8 11  2 32  0.0000000  0  8G26G10G29G12G04G02G05G25
   8783172.40246   6869888.61743  24395377.8444                   24395378.4614
 -19609322.66847 -15250403.77744  22628731.2194                   22628729.6844
   -228295.00847   -150418.01245  23038502.4224                   23038501.7464
 -23215037.67648 -18054358.40646  20980114.8984                   20980112.3954
 -23870050.348 6                  24462220.422
 -31587425.93748 -24596744.24246  21203261.8524                   21203258.1994
 -24581263.06648 -19118346.21547  20158944.4454                   20158942.4024
 -12634247.73048  -9810763.83246  21561198.6804                   21561199.4694
 11  8 11  2 32 30.0000000  0  8G26G10G29G12G04G02G05G25
   8653836.11346   6769107.16843  24370765.7034                   24370766.4064
 -19548890.19147 -15203313.55144  22640231.9304                   22640229.5744
   -345396.83647   -241666.17645  23016218.5634                   23016217.3794
 -23204354.08248 -18046033.54346  20982147.9224                   20982145.5434
 -23824716.937 6                  24470847.000
 -31586015.89847 -24595645.51646  21203530.3444                   21203526.2304
 -24613076.45748 -19143135.85947  20152890.4384                   20152888.3794
 -12690002.99248  -9854209.47346  21550588.7424                   21550589.3554
 11  8 11  2 33  0.0000000  0  8G26G10G29G12G04G02G05G25
   8524426.31646   6668268.49643  24346140.0004                   24346139.5554
 -19488170.68747 -15155999.67644  22651786.2194                   22651784.4924
   -462476.59047   -332897.13745  22993939.0784                   22993938.3754
 -23193155.27348 -18037307.21146  20984279.1484                   20984276.5664
 -23779440.820 6                  24479464.219
 -31584495.37147 -24594460.70746  21203819.6954                   21203815.0084
 -24644320.47748 -19167481.84847  20146945.1094                   20146943.0394
 -12745180.72348  -9897205.07846  21540089.1024                   21540089.2464
 11  8 11  2 33 30.0000000  0  8G26G10G29G12G04G02G05G25
   8394951.69546   6567379.29743  24321501.9384                   24321501.6374
 -19427161.25847 -15108459.87944  22663395.3284                   22663394.1844
   -579526.44547   -424104.77045  22971664.8834                   22971664.6174
 -23181437.14148 -18028176.20346  20986508.7194                   20986506.2424
 -23734216.19546 -18596122.87952  24488069.0864                   24488068.8754
 -31582858.82847 -24593185.47746  21204131.0314                   21204126.4964
 -24674989.81248 -19191380.02747  20141108.9064                   20141106.3874
 -12799774.50848  -9939745.67646  21529699.6564                   21529700.6174
 11  8 11  2 34  0.0000000  0  8G26G10G29G12G04G02G05G25
   8265424.54746   6466449.17643  24296853.0234                   24296853.8134
 -19365855.61747 -15060689.25844  22675061.6334                   22675059.9344
   -696536.04347   -515281.02045  22949399.0084                   22949398.6804
 -23169192.72748 -18018635.11746  20988838.8284                   20988836.3484
 -23689034.35246 -18560916.23442  24496667.0314                   24496666.5634
 -31581097.69948 -24591813.17646  21204466.4144                   21204462.1414
 -24705076.28948 -19214824.02047  20135383.4144                   20135381.2194
 -12853774.78548  -9981823.79746  21519424.0394                   21519424.4104
 11  8 11  2 34 30.0000000  0  8G26G10G29G12G04G02G05G25
   8135837.98446   6365472.72343  24272193.8834                   24272194.5474
 -19304266.57847 -15012697.80544  22686781.1884                   22686779.8244
   -813513.64847   -606432.32845  22927138.1724                   22927138.5514
 -23156433.70748 -18008693.02346  20991266.8674                   20991264.0744
 -23643905.44146 -18525750.85543  24505255.8364                   24505253.8594
 -31579222.56648 -24590352.03546  21204822.7114                   21204818.6414
 -24734590.22748 -19237821.87147  20129767.3054                   20129764.9614
 -12907190.98048 -10023446.78546  21509259.3834                   21509259.6724
 11  8 11  2 35  0.0000000  0  8G26G10G29G12G04G02G05G25
   9581622.07846   7492057.85543  24547317.8054                   24547317.9144
 -17666976.43047 -13736887.31244  22998347.2344                   22998345.5124
    644968.84847    530047.63345  23204678.7344                   23204678.2304
 -21567739.76248 -16770749.69546  21293584.9844                   21293582.8284
 -22023408.31246 -17263025.74242  24813625.0004                   24813624.7234
 -30001811.25448 -23361200.36746  21504994.3914                   21504990.4024
 -23188108.88748 -18032771.46547  20424052.7664                   20424050.5354
 -11384598.04748  -8837010.71146  21798998.7734                   21798999.3554
 11  8 11  2 35 30.0000000  0  8G26G10G29G12G04G02G05G25
   9451930.06346   7390999.23043  24522637.3134                   24522638.1844
 -17604825.10547 -13688457.72344  23010174.5314                   23010172.5084
    528063.84847    438952.93045  23182432.7504                   23182432.2344
 -21553953.19148 -16760006.92246  21296208.5944                   21296206.0594
 -21978381.40246 -17227939.85943  24822194.0784                   24822192.2304
 -29999705.29748 -23359559.36346  21505394.9304                   21505390.7814
 -23216476.44148 -18054876.03547  20418654.3834                   20418652.6094
 -11436840.31648  -8877718.95746  21789057.4844                   21789058.1094
 11  8 11  2 36  0.0000000  0  7G26G10G29G12G02G05G25
   9322186.96446   7289900.83742  24497948.3984                   24497948.9264
 -17542399.95347 -13639814.74644  23022053.2734                   23022051.5664
    411194.44147    347885.94545  23160193.0554                   23160192.2384
 -21539658.69148 -16748868.36346  21298928.6644                   21298926.5004
 -29997487.75048 -23357831.41046  21505817.0314                   21505812.7774
 -23244275.12548 -18076537.33647  20413364.8204                   20413362.4884
 -11488498.08248  -8917971.73446  21779227.2894                   21779227.6484
 11  8 11  2 36 30.0000000  0  7G26G10G29G12G02G05G25
   9192394.09846   7188763.63743  24473249.4304                   24473249.6994
 -17479705.94547 -13590962.25044  23033984.3594                   23033981.8594
    294360.00447    256846.19945  23137959.7424                   23137959.1374
 -21524860.00448 -16737336.92646  21301745.0084                   21301742.6294
 -29995160.84848 -23356018.23046  21506259.4064                   21506255.2704
 -23271507.47348 -18097757.33647  20408182.7664                   20408180.3674
 -11539572.87948  -8957770.27746  21769508.0394                   21769508.7544
 11  8 11  2 37  0.0000000  0  7G26G10G29G12G02G05G25
   9062549.70746   7087586.24643  24448541.0474                   24448540.8914
 -17416750.59047 -13541906.14144  23045963.5554                   23045962.7344
    177557.31347    165831.21545  23115733.2974                   23115732.3834
 -21509564.52748 -16725418.38346  21304655.5234                   21304653.2814
 -29992729.83648 -23354123.94946  21506722.6484                   21506718.5824
 -23298179.29348 -18118540.55147  20403106.8134                   20403104.5634
 -11590068.99248  -8997117.87946  21759899.1174                   21759899.5084
 11  8 11  2 37 30.0000000  0  7G26G10G29G12G02G05G25
   8932674.44546   6986384.81643  24423826.5234                   24423826.6134
 -17353519.03147 -13492634.80544  23057996.1564                   23057994.9804
     60805.56647     74855.94145  23093516.3284                   23093514.5554
 -21493756.19148 -16713100.20346  21307663.5004                   21307661.6804
 -29990177.44148 -23352135.06246  21507208.2274                   21507204.1724
 -23324273.82048 -18138873.93047  20398141.3364                   20398138.7624
 -11639968.57048  -9036000.65246  21750403.4144                   21750403.7734
 11  8 11  2 38  0.0000000  0  7G26G10G29G12G02G05G25
   8802773.26246   6885163.19543  24399107.1094                   24399107.6644
 -17290012.48047 -13443149.20344  23070081.5234                   23070079.9454
    -55892.11747    -16077.25045  23071309.2814                   23071307.7194
 -21477435.32048 -16700382.65646  21310769.7734                   21310767.0744
 -29987502.59448 -23350050.77746  21507717.3364                   21507713.1724
 -23349790.21948 -18158756.82047  20393285.7274                   20393283.2464
 -11689269.48848  -9074416.94946  21741021.2664                   21741022.3674
 11  8 11  2 38 30.0000000  0  7G26G10G29G12G02G05G25
   8672843.81646   6783919.55143  24374382.6024                   24374382.3754
 -17226239.55947 -13393456.01644  23082217.0704                   23082215.7274
   -172539.52047   -106971.25045  23049111.4224                   23049110.3794
 -21460609.70348 -16687271.79346  21313971.2894                   21313968.9184
 -29984711.24648 -23347875.68746  21508248.4924                   21508244.2584
 -23374735.08648 -18178194.35547  20388539.0634                   20388536.8484
 -11737977.14848  -9112370.95746  21731753.0314                   21731753.8834
 11  8 11  2 39  0.0000000  0  7G26G10G29G12G02G05G25
   8542888.56646   6682655.78943  24349653.3834                   24349652.9494
 -17162203.85247 -13343558.07844  23094402.8594                   23094401.8164
   -289135.77747   -197825.40645  23026924.4144                   23026923.6374
 -21443281.74648 -16673769.49646  21317268.8674                   21317266.5784
 -29981804.71148 -23345610.85946  21508801.4144                   21508797.1644
 -23399110.14548 -18197187.89147  20383900.2194                   20383898.3364
 -11786091.99648  -9149863.03146  21722597.5634                   21722597.6414
 11  8 11  2 39 30.0000000  0  7G26G10G29G12G02G05G25
   8412910.44546   6581374.21944  24324918.1484                   24324918.4614
 -17097908.29347 -13293457.65644  23106638.0234                   23106636.1914
   -405679.55547   -288638.63745  23004746.4844                   23004745.4224
 -21425454.18748 -16659877.90246  21320661.2424                   21320658.9494
 -29978783.34448 -23343256.55146  21509376.6174                   21509372.2734
 -23422916.57048 -18215738.33247  20379370.3834                   20379367.6604
 -11833613.74648  -9186892.96146  21713554.1334                   21713554.0824
 11  8 11  2 40  0.0000000  0  7G26G10G29G12G02G05G25
   8282917.66846   6480081.20744  24300181.1724                   24300180.8484
 -17033351.01247 -13243153.25844  23118922.2974                   23118920.6454
   -522164.27347   -379405.89145  22982580.1564                   22982578.7304
 -21407124.09848 -16645594.71946  21324149.2424                   21324147.2034
 -29975642.42248 -23340809.05946  21509974.2974                   21509969.9924
 -23446150.22748 -18233842.46147  20374949.0634                   20374946.7504
 -11880537.38748  -9223456.82846  21704624.8524                   21704625.0944
 11  8 11  2 40 30.0000000  0  7G26G10G29G12G02G05G25
   8152900.78146   6378769.43043  24275440.0314                   24275439.6684
 -16968547.39847 -13192656.93444  23131254.8834                   23131252.5514
   -638601.12147   -470135.85945  22960422.7344                   22960421.9774
 -21388306.19548 -16630931.43046  21327730.6644                   21327727.6134
 -29972395.21948 -23338278.77046  21510592.0944                   21510587.9264
 -23468824.97748 -18251511.07847  20370634.2424                   20370631.7154
 -11926875.38748  -9259564.35946  21695806.9614                   21695807.5124
 11  8 11  2 41  0.0000000  0  7G26G10G29G12G02G05G25
   8022866.39146   6277443.99643  24250694.9224                   24250695.2384
 -16903497.09446 -13141968.39544  23143633.1334                   23143631.1414
   -754985.25047   -560824.73045  22938275.5084                   22938274.8094
 -21368999.06648 -16615886.91046  21331404.6334                   21331402.0234
 -29969038.80148 -23335663.35946  21511231.0084                   21511226.0904
 -23490938.32848 -18268742.23847  20366425.9384                   20366424.1094
 -11972624.26248  -9295212.83246  21687101.1174                   21687101.7894
 11  8 11  2 41 30.0000000  0  7G26G10G29G12G02G05G25
   7892822.23446   6176110.97343  24225948.4924                   24225948.3634
 -16838198.10947 -13091086.08244  23156059.2504                   23156057.8984
   -871309.80147   -651467.18445  22916139.4774                   22916138.5554
 -21349200.05148 -16600459.11346  21335172.0394                   21335169.6374
 -29965568.85948 -23332959.50446  21511890.9144                   21511886.7504
 -23512486.84048 -18285533.26647  20362325.3984                   20362323.7074
 -12017778.92648  -9330398.27346  21678508.4614                   21678508.9224
 11  8 11  2 42  0.0000000  0  7G26G10G29G12G02G05G25
   7762775.80146   6074776.10243  24201201.1414                   24201201.3204
 -16772649.39846 -13040009.13744  23168532.4774                   23168530.4534
   -987569.42247   -742059.06645  22894015.7734                   22894015.1844
 -21328907.69948 -16584646.89546  21339033.3834                   21339031.4964
 -29961981.68748 -23330164.31246  21512573.4844                   21512569.3204
 -23533467.56248 -18301881.85247  20358332.9384                   20358331.0204
 -12062335.48848  -9365117.68046  21670029.8054                   21670030.4264
 11  8 11  2 42 30.0000000  0  7G26G10G29G12G02G05G25
   7632715.20946   5973430.27743  24176451.4694                   24176451.4494
 -16706868.54347 -12988751.32844  23181050.4614                   23181048.6564
  -1103777.40247   -832610.68045  22871902.4384                   22871901.7624
 -21308139.19148 -16568463.64546  21342985.6254                   21342982.9264
 -29958292.67248 -23327289.74646  21513275.4614                   21513271.4774
 -23553896.33248 -18317800.35247  20354445.4774                   20354443.2234
 -12106308.75448  -9399382.55946  21661661.6884                   21661662.0314
 11  8 11  2 43  0.0000000  0  7G26G10G29G12G02G05G25
   7502646.96946   5872078.48843  24151700.4534                   24151700.4184
 -16640855.09846 -12937312.25044  23193612.0474                   23193610.4804
  -1219928.92247   -923118.32445  22849800.0004                   22849798.3754
 -21286893.41448 -16551908.50446  21347028.6564                   21347026.5704
 -29954499.02048 -23324333.65246  21513996.9694                   21513993.3204
 -23573771.35548 -18333287.35247  20350663.3204                   20350660.8094
 -12149695.47348  -9433190.40246  21653405.6484                   21653406.0084
 11  8 11  2 43 30.0000000  0  7G26G10G29G12G02G05G25
   7372583.30146   5770730.25043  24126949.9694                   24126949.8204
 -16574603.30546 -12885687.46943  23206219.1804                   23206217.6374
  -1336013.37147  -1013573.67645  22827709.4924                   22827708.3164
 -21265163.84448 -16534976.37946  21351163.7114                   21351161.0784
 -29950592.09448 -23321289.31646  21514740.9844                   21514736.8094
 -23593085.04748 -18348336.94147  20346988.1564                   20346985.5784
 -12192486.85248  -9466534.34046  21645262.9304                   21645263.3524
 11  8 11  2 44  0.0000000  0  7G26G10G29G12G02G05G25
   7242525.78146   5669386.78943  24102200.9924                   24102200.8754
 -16508117.52347 -12833880.35544  23218871.4694                   23218869.4184
  -1452030.88347  -1103976.88345  22805631.7974                   22805630.9924
 -21242954.08248 -16517670.07846  21355389.8834                   21355387.3484
 -29946573.72748 -23318158.11346  21515505.4774                   21515501.3484
 -23611839.91048 -18362951.08247  20343419.2344                   20343416.8164
 -12234684.20348  -9499415.39846  21637232.7344                   21637233.3014
 11  8 11  2 44 30.0000000  0  7G26G10G29G12G02G05G25
   7112471.53146   5568045.86743  24077452.0084                   24077452.0824
 -16441406.89147 -12781898.01244  23231566.0234                   23231563.6804
  -1567985.95347  -1194331.45745  22783566.5944                   22783565.8054
 -21220272.80948 -16499996.36746  21359705.7424                   21359703.8634
 -29942450.57848 -23314945.28146  21516290.1024                   21516286.3404
 -23630043.35248 -18377135.54747  20339955.0944                   20339952.8054
 -12276293.93448  -9531838.56646  21629314.1094                   21629315.4264
 11  8 11  2 45  0.0000000  0  7G26G10G29G12G02G05G25
   6982428.37546   5466713.64843  24052705.9064                   24052705.0474
 -16374469.39147 -12729738.92244  23244303.2664                   23244301.4574
  -1683871.99247  -1284632.23445  22761513.5634                   22761513.3914
 -21197117.37148 -16481953.18446  21364112.6954                   21364110.2814
 -29938218.37548 -23311647.47746  21517095.7504                   21517091.4734
 -23647691.89548 -18390887.61747  20336596.3054                   20336594.3364
 -12317311.30948  -9563800.15646  21621509.6094                   21621510.0234
 11  8 11  2 45 30.0000000  0  7G26G10G29G12G02G05G25
   6852400.64547   5365393.38743  24027963.2194                   24027962.2384
 -16307307.23447 -12677404.74644  23257083.4694                   23257081.5314
  -1799686.83647  -1374877.51645  22739474.9454                   22739474.2344
 -21173489.32447 -16463541.73046  21368608.5784                   21368606.6174
 -29933876.77748 -23308264.39146  21517921.7424                   21517917.5984
 -23664785.95748 -18404207.63347  20333343.9614                   20333341.5044
 -12357735.71548  -9595299.68446  21613816.7664                   21613817.3594
 11  8 11  2 46  0.0000000  0  7G26G10G29G12G02G05G25
   6722383.18846   5264081.12943  24003220.6644                   24003220.4884
 -16239931.18047 -12624903.88744  23269905.7194                   23269903.1374
  -1915436.90647  -1465072.33645  22717448.9064                   22717447.4384
 -21149399.71948 -16444770.61746  21373192.4384                   21373191.0634
 -29929434.33648 -23304802.75446  21518767.2974                   21518763.5434
 -23681335.52348 -18417103.35547  20330194.4144                   20330191.8754
 -12397575.54748  -9626343.70746  21606235.4774                   21606235.9344
 11  8 11  2 46 30.0000000  0  7G26G10G29G12G02G05G25
   6592383.57847   5162782.76643  23978483.1804                   23978482.5394
 -16172340.09447 -12572235.48843  23282768.1884                   23282765.5634
  -2031115.82447  -1555211.69945  22695435.6334                   22695434.5984
 -21124846.30948 -16425638.10546  21377865.0164                   21377862.6644
 -29924887.03148 -23301259.39846  21519632.7344                   21519628.2854
 -23697337.22748 -18429572.17647  20327149.4774                   20327147.1414
 -12436826.57448  -9656928.91846  21598766.1484                   21598766.9144
 11  8 11  2 47  0.0000000  0  7G26G10G29G12G02G05G25
   6462402.19546   5061498.58243  23953748.0704                   23953748.2114
 -16104540.10247 -12519404.32844  23295669.7664                   23295668.1804
  -2146725.52747  -1645297.14145  22673435.6564                   22673434.6884
 -21099834.22348 -16406148.18746  21382624.9614                   21382622.3754
 -29920238.28548 -23297637.01246  21520517.3284                   21520513.0704
 -23712795.65648 -18441617.66847  20324208.0234                   20324205.4494
 -12475492.10248  -9687057.89846  21591408.7344                   21591409.3634
 11  8 11  2 47 30.0000000  0  7G26G10G29G12G02G05G25
   6332449.45347   4960236.75843  23929019.2424                   23929018.1054
 -16036526.72347 -12466406.88744  23308611.4454                   23308610.5704
  -2262256.64547  -1735321.35945  22651450.5634                   22651449.4534
 -21074358.68048 -16386297.12946  21387472.4774                   21387470.4104
 -29915481.05548 -23293930.09446  21521422.6094                   21521418.3014
 -23727704.83648 -18453235.17647  20321370.6804                   20321368.1454
 -12513565.14548  -9716725.18746  21584163.5784                   21584164.3554
 11  8 11  2 48  0.0000000  0  7G26G10G29G12G02G05G25
   6202521.51247   4858994.23843  23904294.0704                   23904293.8634
 -15968310.06246 -12413251.05144  23321593.0864                   23321591.1254
  -2377714.89147  -1825288.78945  22629479.9224                   22629478.7774
 -21048429.94148 -16366092.93446  21392406.5394                   21392403.9734
 -29910622.85548 -23290144.48046  21522347.0944                   21522342.7154
 -23742073.12548 -18464431.21547  20318636.3674                   20318633.8014
 -12551053.05548  -9745936.52346  21577029.4844                   21577029.8284
 11  8 11  2 48 30.0000000  0  7G26G10G29G12G02G05G25
   6072628.21546   4757778.71543  23879575.8284                   23879576.1954
 -15899886.05147 -12359933.64844  23334613.6484                   23334612.2704
  -2493092.14147  -1915193.08645  22607524.2664                   22607523.4344
 -21022043.14548 -16345531.80146  21397428.1094                   21397425.5204
 -29905657.58248 -23286275.44546  21523291.6254                   21523287.6724
 -23755895.89148 -18475202.16047  20316005.7894                   20316003.6374
 -12587949.53548  -9774687.00446  21570008.5864                   21570008.8164
 11  8 11  2 49  0.0000000  0  7G26G10G29G12G02G05G25
   5942768.64846   4656589.50443  23854864.9384                   23854864.5824
 -15831262.07846 -12306460.45744  23347671.9534                   23347670.1294
  -2608390.80547  -2005036.17645  22585583.4384                   22585582.0824
 -20995205.64147 -16324619.47346  21402535.0474                   21402532.4494
 -29900590.03148 -23282326.69946  21524256.0234                   21524251.8594
 -23769178.57448 -18485552.28147  20313478.3364                   20313475.9344
 -12624259.25448  -9802980.26246  21563099.6094                   21563099.2734
 11  8 11  2 49 30.0000000  0  7G26G10G29G12G02G05G25
   5812950.60947   4555432.64143  23830161.9064                   23830160.6804
 -15762436.39147 -12252830.09444  23360769.8444                   23360767.7854
  -2723604.65647  -2094813.14145  22563659.2734                   22563658.6484
 -20967915.14148 -16303354.15246  21407728.3594                   21407726.0554
 -29895415.68048 -23278294.73446  21525240.7734                   21525236.6994
 -23781918.19548 -18495479.23847  20311053.5634                   20311051.2464
 -12659978.03148  -9830813.05946  21556301.8134                   21556301.8794
 11  8 11  2 50  0.0000000  0  7G26G10G29G12G02G05G25
   5683174.83647   4454308.73843  23805466.3594                   23805465.3444
 -15693414.53947 -12199046.84844  23373903.2814                   23373902.1884
  -2838734.57047  -2184524.71145  22541750.8754                   22541749.6054
 -20940176.93748 -16281739.98446  21413006.8054                   21413004.4184
 -29890137.72348 -23274182.03146  21526245.2814                   21526241.0944
 -23794118.69548 -18504986.09447  20308732.4534                   20308729.9144
 -12695108.84848  -9858187.70746  21549616.5314                   21549616.7974
 11  8 11  2 50 30.0000000  0  7G26G10G29G12G02G05G25
   5553449.41447   4353224.08243  23780780.4304                   23780779.3674
 -15624194.46547 -12145109.16044  23387075.9844                   23387074.3554
  -2953773.96547  -2274165.74645  22519859.3834                   22519858.3834
 -20911988.58648 -16259775.04746  21418370.4454                   21418368.4454
 -29884751.58248 -23269985.05146  21527269.8364                   21527265.9184
 -23805776.69948 -18514070.22747  20306513.8594                   20306511.1214
 -12729647.34848  -9885100.79746  21543044.6954                   21543044.8244
 11  8 11  2 51  0.0000000  0  7G26G10G29G12G02G05G25
   5423769.30546   4252174.70743  23756102.5704                   23756102.0164
 -15554787.55147 -12091025.88744  23400283.6564                   23400282.0864
  -3068729.89847  -2363741.70745  22497983.9304                   22497982.5554
 -20883360.71948 -16237467.63346  21423818.6804                   21423815.8794
 -29879265.83648 -23265710.46146  21528313.8204                   21528310.1374
 -23816902.39848 -18522739.58647  20304396.8754                   20304394.1644
 -12763602.35948  -9911559.23046  21536582.9454                   21536582.9734
 11  8 11  2 51 30.0000000  0  7G26G10G29G12G02G05G25
   5294145.64847   4151169.34444  23731435.9924                   23731435.1484
 -15485188.66847 -12036793.03544  23413528.1174                   23413526.7664
  -3183592.17247  -2453244.68745  22476126.2814                   22476125.5434
 -20854288.56248 -16214814.01646  21429350.6804                   21429348.4064
 -29873673.12948 -23261352.51246  21529377.9614                   21529374.3204
 -23827489.32048 -18530989.10247  20302382.1024                   20302379.2344
 -12796966.41048  -9937557.17646  21530233.8134                   21530234.1414
 11  8 11  2 52  0.0000000  0  7G26G10G29G12G02G05G25
   5164578.85947   4050208.30543  23706780.3674                   23706779.8324
 -15415403.52047 -11982415.03144  23426807.7734                   23426806.3054
  -3298362.07447  -2542675.68745  22454286.3674                   22454284.6844
 -20824777.57448 -16191818.45346  21434966.4924                   21434964.3444
 -29867976.73048 -23256913.75446  21530461.9304                   21530457.7544
 -23837542.12148 -18538822.44147  20300468.9144                   20300466.3554
 -12829742.93448  -9963097.30146  21523996.6334                   21523996.6844
 11  8 11  2 52 30.0000000  0  7G26G10G29G12G02G05G25
   5035072.64147   3949294.44544  23682135.7504                   23682135.7544
 -15345434.46147 -11927893.72344  23440122.4454                   23440120.6914
  -3413037.78547  -2632033.29745  22432464.2504                   22432463.0234
 -20794829.76648 -16168482.50846  21440665.5634                   21440662.8634
 -29862176.51248 -23252394.09846  21531566.1024                   21531561.7854
 -23847062.01248 -18546240.51647  20298657.3364                   20298654.6954
 -12861932.00848  -9988179.68046  21517871.3914                   21517871.5394
 11  8 11  2 53  0.0000000  0  7G26G10G29G12G02G05G25
   4905630.52747   3848430.55144  23657504.2424                   23657503.5944
 -15275283.99647 -11873231.05543  23453471.0004                   23453470.3404
  -3527617.37147  -2721316.00445  22410660.4144                   22410658.9694
 -20764447.64548 -16144808.14146  21446446.5004                   21446444.5044
 -29856272.38348 -23247793.46146  21532689.7584                   21532684.9774
 -23856050.28948 -18553244.35947  20296946.8834                   20296944.4734
 -12893534.13348 -10012804.71146  21511857.5084                   21511857.8874
 11  8 11  2 53 30.0000000  0  7G26G10G29G12G02G05G25
   4776253.40246   3747617.30144  23632884.3674                   23632883.5664
 -15204957.76247 -11818431.44943  23466854.2274                   23466852.3954
  -3642101.56647  -2810524.39845  22388874.8134                   22388873.4104
 -20733636.29348 -16120799.30546  21452310.1484                   21452307.8834
 -29850267.50448 -23243114.32046  21533832.4534                   21533828.0204
 -23864511.28148 -18559837.31647  20295337.2114                   20295333.8674
 -12924552.40248 -10036974.77046  21505955.3054                   21505955.5594
 11  8 11  2 54  0.0000000  0  7G26G10G29G12G02G05G25
   4646939.19146   3646853.04744  23608276.4844                   23608275.6914
 -15134464.28147 -11763501.48043  23480268.8054                   23480266.8674
  -3756493.90247  -2899661.21145  22367106.2584                   22367105.2934
 -20702403.44547 -16096462.03946  21458253.8444                   21458250.8984
 -29844167.41048 -23238360.99646  21534993.1804                   21534989.0594
 -23872451.95348 -18566024.84047  20293825.7194                   20293822.9224
 -12954992.87548 -10060694.61346  21500162.3914                   21500162.7734
 11  8 11  2 54 30.0000000  0  7G26G10G29G12G02G05G25
   4517698.69546   3546146.23844  23583683.0554                   23583682.2194
 -15063798.80947 -11708437.50443  23493715.9694                   23493714.0274
  -3870785.30147  -2988719.36745  22345357.4224                   22345356.0704
 -20670744.98848 -16071793.13746  21464277.9774                   21464275.6724
 -29837965.04348 -23233527.96146  21536173.2194                   21536168.9064
 -23879866.48848 -18571802.38347  20292414.8204                   20292412.3324
 -12984848.74648 -10083958.92246  21494481.1254                   21494481.0314
 11  8 11  2 55  0.0000000  0  8G26G10G29G12G15G02G05G25
   4388534.31347   3445498.75043  23559102.9454                   23559102.7814
 -14992964.82447 -11653242.17643  23507194.9304                   23507192.8714
  -3984974.78947  -3077698.12945  22323627.8594                   22323626.6024
 -20638664.36348 -16046795.26246  21470382.7194                   21470380.5434
  12416368.97756   9705592.91053  24499369.9454                   24499371.8324
 -29831661.66847 -23228616.23846  21537372.6724                   21537368.6604
 -23886757.90648 -18577172.30546  20291103.6804                   20291100.7624
 -13014121.55148 -10106768.89846  21488910.8284                   21488910.9304
 11  8 11  2 55 30.0000000  0  8G26G10G29G12G15G02G05G25
   4259450.43047   3344913.93044  23534539.4844                   23534538.5554
 -14921964.30546 -11597917.12543  23520705.9924                   23520704.2814
  -4099059.51647  -3166595.22745  22301918.5394                   22301916.7034
 -20606163.10948 -16021469.61746  21476567.6254                   21476565.5234
  12288526.33646   9605975.44543  24475042.9534                   24475043.8484
 -29825256.34048 -23223625.06646  21538591.8054                   21538587.8834
 -23893126.50448 -18582134.83647  20289891.7034                   20289888.9884
 -13042810.92248 -10129124.25046  21483451.0634                   21483451.7234
 11  8 11  2 56  0.0000000  0  8G26G10G29G12G15G02G05G25
   4130443.35547   3244389.00044  23509990.4924                   23509989.6374
 -14850807.18047 -11542470.02343  23534246.7814                   23534245.3404
  -4213044.80547  -3255414.82045  22280227.0314                   22280226.4654
 -20573250.92647 -15995823.77346  21482830.5234                   21482828.2234
  12160562.72746   9506263.69943  24450692.2974                   24450692.2464
 -29818756.55548 -23218560.28946  21539828.4454                   21539824.4304
 -23898981.27048 -18586696.97347  20288777.4384                   20288774.5824
 -13070924.84048 -10151031.19546  21478101.3204                   21478101.7194
 11  8 11  2 56 30.0000000  0  8G26G10G29G12G15G02G05G25
   4001509.68447   3143921.25044  23485455.4534                   23485454.5084
 -14779502.60947 -11486908.08643  23547815.7894                   23547814.7814
  -4326935.75847  -3344160.93745  22258554.6094                   22258552.6954
 -20539937.54748 -15969865.31646  21489170.1804                   21489167.7584
  12032474.21146   9406454.66043  24426318.3674                   24426318.2974
 -29812169.18048 -23213427.26246  21541081.8914                   21541077.9884
 -23904330.84048 -18590865.44947  20287759.2734                   20287756.4804
 -13098470.64548 -10172495.46946  21472859.6804                   21472859.8754
 11  8 11  2 57  0.0000000  0  8G26G10G29G12G15G02G05G25
   3872661.43847   3043520.05944  23460936.6884                   23460935.3834
 -14708044.99247 -11431226.80943  23561413.6884                   23561412.1564
  -4440721.67247  -3432825.20345  22236901.7814                   22236900.7234
 -20506216.84448 -15943589.46146  21495586.8674                   21495584.4574
  11904271.75446   9306556.80944  24401922.1644                   24401921.9264
 -29805486.30948 -23208219.80946  21542353.5634                   21542349.4614
 -23909168.58648 -18594635.10547  20286838.9454                   20286836.0434
 -13125440.60548 -10193511.03546  21467727.6644                   21467727.3524
 11  8 11  2 57 30.0000000  0  8G26G10G29G12G15G02G05G25
   3743909.74647   2943194.12543  23436435.7034                   23436434.1374
 -14636429.49247 -11375422.56643  23575041.7974                   23575040.2234
  -4554393.20747  -3521400.32845  22215270.7664                   22215269.4734
 -20472084.04348 -15916992.50446  21502081.7974                   21502079.6804
  11775965.39147   9206577.96144  24377505.4844                   24377505.7504
 -29798700.11747 -23202931.85946  21543644.9694                   21543640.6844
 -23913487.95748 -18598000.83647  20286016.9224                   20286014.0474
 -13151827.82848 -10214072.52046  21462706.1724                   21462706.5944
 11  8 11  2 58  0.0000000  0  8G26G10G29G12G15G02G05G25
   3615251.36347   2842940.85543  23411951.9924                   23411950.9024
 -14564665.71147 -11319502.75043  23588698.3594                   23588696.3244
  -4667955.35547  -3609890.25445  22193660.6334                   22193658.8364
 -20437548.48048 -15890081.68446  21508654.2424                   21508651.5634
  11647551.32847   9106515.18444  24353069.1724                   24353069.3404
 -29791817.47347 -23197568.75046  21544954.4304                   21544950.5234
 -23917297.55148 -18600969.33646  20285292.1174                   20285289.0084
 -13177639.74648 -10234185.70746  21457794.3834                   21457794.3054
 11  8 11  2 58 30.0000000  0  8G26G10G29G12G15G02G05G25
   5062113.59847   3970366.00444  23687281.3134                   23687279.8834
 -12917339.10547 -10035871.62543  23902173.7584                   23902172.5704
  -3205982.89847  -2470690.87145  22471865.0084                   22471862.9654
 -18827194.09848 -14635260.10546  21815094.0164                   21815091.8984
  13094455.23047  10233972.90644  24628406.0944                   24628405.8914
 -28209419.43747 -21964531.30946  21846075.2114                   21846070.3094
 -22345179.76648 -17375942.48446  20584455.8984                   20584453.2194
 -11627456.88348  -9026251.02046  21752783.8914                   21752784.5434
 11  8 11  2 59  0.0000000  0  8G26G10G29G12G15G02G05G25
   4933657.48047   3870270.39144  23662836.7734                   23662835.7424
 -12845281.48446  -9979722.89543  23915885.5474                   23915885.0234
  -3319314.73047  -2559001.32045  22450298.6724                   22450297.0164
 -18791855.83648 -14607723.82446  21821818.7504                   21821816.5124
  12965837.51247  10133751.42644  24603930.0474                   24603930.0594
 -28202339.45347 -21959014.39846  21847422.3834                   21847418.0474
 -22347970.30148 -17378116.91047  20583924.7274                   20583922.4804
 -11652115.32448  -9045465.40246  21748091.8444                   21748092.6254
 11  8 11  2 59 30.0000000  0  8G26G10G29G12G15G02G05G25
   4805300.45347   3770251.97744  23638411.1724                   23638409.7504
 -12773088.32047  -9923468.50443  23929623.6484                   23929622.7504
  -3432536.14547  -2647225.72345  22428753.3134                   22428751.1484
 -18756127.82847 -14579883.82446  21828617.1884                   21828615.0554
  12837114.50846  10033447.93844  24579434.4304                   24579434.3834
 -28195168.44147 -21953426.58646  21848786.6804                   21848782.5474
 -22350261.25448 -17379902.05947  20583489.0474                   20583486.0864
 -11676205.73048  -9064237.15646  21743507.2194                   21743508.1484
 11  8 11  3  0  0.0000000  0  8G26G10G29G12G15G02G05G25
   4677055.84447   3670321.17244  23614007.4924                   23614006.4024
 -12700752.21547  -9867102.75843  23943389.2664                   23943388.3094
  -3545635.41447  -2735354.94945  22407230.5234                   22407228.8554
 -18720002.66047 -14551734.36746  21835491.6884                   21835489.1564
  12708299.00047   9933072.31644  24554922.6564                   24554922.0234
 -28187896.37148 -21947760.03545  21850170.4924                   21850166.1094
 -22352044.79748 -17381291.81647  20583149.5314                   20583147.0744
 -11699718.93748  -9082559.14846  21739033.1884                   21739033.7624
 11  8 11  3  0 30.0000000  0  8G26G10G29G12G15G02G05G25
   4548925.48047   3570479.40643  23589624.1334                   23589623.6804
 -12628277.63746  -9810629.06243  23957180.4454                   23957179.2154
  -3658612.55547  -2823388.99645  22385731.8054                   22385729.9884
 -18683484.84848 -14523278.95346  21842441.1334                   21842438.5554
  12579391.27347   9832624.85543  24530392.4384                   24530392.0594
 -28180525.52348 -21942016.50446  21851573.0234                   21851569.2974
 -22353324.31248 -17382288.82046  20582906.1024                   20582903.2234
 -11722657.68448  -9100433.50846  21734668.2034                   21734668.8014
 11  8 11  3  1  0.0000000  0  8G26G10G29G12G15G02G05G25
   4420911.13747   3470728.03944  23565263.9304                   23565262.8754
 -12555668.97746  -9754050.87543  23970997.5164                   23970996.1914
  -3771466.44947  -2911326.98045  22364256.2504                   22364255.5944
 -18646579.20747 -14494521.33646  21849463.7814                   21849461.4064
  12450392.42246   9732106.39543  24505844.8914                   24505844.4924
 -28173057.59448 -21936197.32845  21852994.5004                   21852989.7774
 -22354103.42248 -17382895.91046  20582758.0314                   20582755.0784
 -11745024.66448  -9117862.33246  21730411.8914                   21730412.1724
 11  8 11  3  1 30.0000000  0  8G26G10G29G12G15G02G05G25
   4293021.82847   3371074.09844  23540927.9064                   23540926.6804
 -12482923.59046  -9697366.14143  23984840.7194                   23984838.8364
  -3884189.72347  -2999163.18745  22342805.4304                   22342804.5514
 -18609282.27048 -14465458.80546  21856561.4304                   21856559.7074
  12321310.77346   9631523.42243  24481280.2664                   24481279.9344
 -28165487.09048 -21930298.20745  21854435.4064                   21854430.4184
 -22354378.09848 -17383109.93046  20582705.8444                   20582703.0474
 -11766814.95748  -9134841.79346  21726265.4534                   21726265.5044
 11  8 11  3  2  0.0000000  0  8G26G10G29G12G15G02G05G25
   4165253.92647   3271514.77344  23516614.2734                   23516613.0944
 -12410050.96146  -9640582.29343  23998707.1024                   23998706.0944
  -3996788.03947  -3086902.01645  22321378.4534                   22321376.8794
 -18571604.59448 -14436099.59446  21863731.3984                   21863729.2464
  12192141.43846   9530872.12543  24456700.0164                   24456699.6684
 -28157821.49648 -21924325.00445  21855893.9844                   21855889.2304
 -22354157.57448 -17382938.08646  20582747.7974                   20582745.0164
 -11788037.03548  -9151378.48046  21722226.9844                   21722227.2074
 11  8 11  3  2 30.0000000  0  8G26G10G29G12G15G02G05G25
   4037613.28147   3172054.59844  23492324.2344                   23492323.4304
 -12337051.66446  -9583699.71943  24012599.0474                   24012597.3014
  -4109257.01647  -3174540.08645  22299976.5634                   22299974.7854
 -18533546.70348 -14406444.11346  21870973.3134                   21870971.3284
  12062889.28046   9430156.32543  24432104.2034                   24432103.0984
 -28150058.68747 -21918276.04346  21857371.4454                   21857366.2774
 -22353441.47348 -17382380.07046  20582883.8834                   20582881.2114
 -11808689.49248  -9167471.31246  21718296.9064                   21718297.2274
 11  8 11  3  3  0.0000000  0  8G26G10G29G12G15G02G05G25
   3910108.88747   3072700.60244  23468061.1334                   23468060.5434
 -12263923.02746  -9526716.34843  24026515.3524                   24026513.2664
  -4221589.41847  -3262071.71545  22278600.2114                   22278598.8444
 -18495105.84447 -14376490.21546  21878288.8204                   21878286.2304
  11933562.59846   9329382.39543  24407494.2734                   24407492.8324
 -28142193.19148 -21912147.08645  21858868.0084                   21858863.1414
 -22352226.55148 -17381433.37546  20583114.8204                   20583111.9104
 -11828767.95348  -9183116.86746  21714476.0944                   21714476.3834
 11  8 11  3  3 30.0000000  0  8G26G10G29G12G15G02G05G25
   3782739.00047   2973451.43444  23443823.5864                   23443822.9844
 -12190672.96546  -9469638.37143  24040453.3524                   24040452.1484
  -4333788.42647  -3349499.43445  22257249.6334                   22257247.6334
 -18456290.04747 -14346244.15246  21885674.6884                   21885673.0204
  11804158.37146   9228548.04743  24382870.2974                   24382869.3754
 -28134230.17647 -21905942.12945  21860383.2664                   21860378.2774
 -22350519.64848 -17380103.30146  20583439.9774                   20583437.0274
 -11848278.66848  -9198320.02746  21710763.3204                   21710763.7544
 11  8 11  3  4  0.0000000  0  8G26G10G29G12G15G02G05G25
   3655501.71147   2874305.56344  23419610.9774                   23419610.3524
 -12117309.02346  -9412471.67243  24054414.6884                   24054413.3634
  -4445857.41047  -3436825.83645  22235923.6484                   22235921.4264
 -18417106.95747 -14315711.90246  21893131.1564                   21893129.1844
  11674674.06346   9127651.28143  24358229.5864                   24358229.4654
 -28126175.38348 -21899665.68046  21861915.5944                   21861911.4454
 -22348328.44548 -17378395.85947  20583856.4774                   20583853.6844
 -11867228.16848  -9213085.86746  21707157.1884                   21707157.5044
 11  8 11  3  4 30.0000000  0  8G26G10G29G12G15G02G05G25
   3528405.03947   2775269.26244  23395425.9144                   23395424.3834
 -12043829.62946  -9355215.02043  24068397.3284                   24068395.5084
  -4557790.05547  -3524046.02745  22214623.1804                   22214621.5004
 -18377555.99647 -14284892.98046  21900657.3524                   21900655.3914
  11545116.42646   9026697.39143  24333574.7584                   24333574.5984
 -28118024.37947 -21893314.23045  21863467.4774                   21863463.0124
 -22345650.03948 -17376308.78546  20584366.6414                   20584363.4064
 -11885612.99648  -9227411.72346  21703658.7734                   21703659.0904
 11  8 11  3  5  0.0000000  0  8G26G10G29G12G15G02G05G25
   3401449.09847   2676342.64144  23371266.4694                   23371265.0314
 -11970241.04746  -9297873.22743  24082400.4064                   24082398.7934
  -4669587.68047  -3611161.02345  22193349.4454                   22193347.6454
 -18337643.21147 -14253792.12146  21908252.1334                   21908250.6054
  11415484.93446   8925685.93443  24308907.0314                   24308906.5474
 -28109780.86748 -21886890.70745  21865035.4774                   21865031.3914
 -22342489.92648 -17373846.34847  20584967.7664                   20584964.7774
 -11903437.84448  -9241301.21946  21700266.7814                   21700267.0514
 11  8 11  3  5 30.0000000  0  8G26G10G29G12G15G02G05G25
   3274641.32447   2577531.43844  23347135.8134                   23347134.7464
 -11896541.86746  -9240445.22343  24096424.7814                   24096423.1604
  -4781244.39848  -3698166.21146  22172101.8594                   22172099.8324
 -18297367.45347 -14222408.42646  21915917.0004                   21915915.1174
  11285785.99646   8824621.88343  24284225.8054                   24284225.3594
 -28101441.12948 -21880392.20345  21866622.3754                   21866618.9494
 -22338846.67648 -17371007.45746  20585661.1644                   20585658.0084
 -11920700.03148  -9254752.26646  21696981.7584                   21696982.0434
 11  8 11  3  6  0.0000000  0  8G26G10G29G12G15G02G05G25
   3147989.50047   2478841.77744  23323034.6644                   23323033.7664
 -11822730.64146  -9182929.97743  24110471.6804                   24110469.1484
  -4892753.88348  -3785056.68746  22150882.4534                   22150879.6484
 -18256727.08247 -14190740.63746  21923650.7274                   21923648.9534
  11156026.55947   8723510.76243  24259533.5314                   24259533.0784
 -28093000.92247 -21873815.42645  21868228.4384                   21868224.5864
 -22334717.55148 -17367789.94946  20586446.8134                   20586444.0594
 -11937396.46148  -9267762.47346  21693804.9534                   21693804.8714
 11  8 11  3  6 30.0000000  0  8G26G10G29G12G15G02G05G25
   3021488.73847   2380269.80144  23298962.6954                   23298961.6024
 -11748818.27046  -9125335.89543  24124535.5704                   24124534.3284
  -5004122.42648  -3871837.32846  22129689.0554                   22129687.3324
 -18215733.63347 -14158797.69546  21931451.3524                   21931449.4494
  11026200.73846   8622347.89144  24234828.6954                   24234827.5634
 -28084468.45347 -21867166.74245  21869852.3914                   21869848.5474
 -22330113.00048 -17364201.97746  20587323.2344                   20587319.8594
 -11953536.71948  -9280339.29746  21690733.5784                   21690733.1844
 11  8 11  3  7  0.0000000  0  8G26G10G29G12G15G02G05G25
   2895146.76647   2281821.57044  23274920.2814                   23274919.1994
 -11674802.79746  -9067661.48443  24138620.7274                   24138618.6374
  -5115344.82047  -3958504.10246  22108524.4924                   22108522.6454
 -18174385.94947 -14126578.74246  21939319.9144                   21939317.4654
  10896315.41847   8521138.70344  24210112.2114                   24210111.2234
 -28075840.07447 -21860443.32445  21871494.2504                   21871490.0164
 -22325031.14848 -17360242.07846  20588290.0704                   20588287.2304
 -11969118.03948  -9292480.57846  21687768.4924                   21687768.7734
 11  8 11  3  7 30.0000000  0  8G26G10G29G12G15G02G05G25
   2768972.07447   2183503.69144  23250909.9454                   23250908.2814
 -11600682.33646  -9009905.44543  24152725.7664                   24152723.6414
  -5226413.19947  -4045050.86346  22087388.6024                   22087386.7344
 -18132681.95747 -14094082.12946  21947255.5704                   21947253.1414
  10766378.20347   8419889.02744  24185385.7424                   24185385.2854
 -28067110.76648 -21853641.23845  21873155.2974                   21873151.2734
 -22319468.82448 -17355907.78946  20589349.0394                   20589345.7854
 -11984136.43748  -9304183.23046  21684910.2194                   21684910.0514
 11  8 11  3  8  0.0000000  0  8G26G10G29G12G15G02G05G25
   2642960.44547   2085312.84444  23226930.7034                   23226928.9534
 -11526467.16046  -8952075.40643  24166848.3134                   24166846.6604
  -5337333.29347  -4131482.07845  22066281.2814                   22066278.9184
 -18090632.44547 -14061316.29346  21955257.2274                   21955255.1844
  10636383.93447   8318594.91444  24160648.5084                   24160648.3324
 -28058288.43048 -21846766.68045  21874834.3364                   21874829.8524
 -22313436.28948 -17351207.10246  20590496.5554                   20590493.5904
 -11998601.36348  -9315454.60946  21682158.0394                   21682158.1954
 11  8 11  3  8 30.0000000  0  8G26G10G29G12G15G02G05G25
   2517125.56647   1987259.75844  23202985.1954                   23202984.0164
 -11452149.50046  -8894165.43443  24180989.8054                   24180988.4454
  -5448093.13347  -4217788.43045  22045204.0234                   22045202.5864
 -18048230.09448 -14028275.51646  21963326.3364                   21963324.1094
  10506345.35546   8217266.27344  24135902.4384                   24135902.0084
 -28049362.90248 -21839811.69945  21876532.6484                   21876527.8204
 -22306925.37948 -17346133.66046  20591735.7734                   20591732.9654
 -12012503.85548  -9326287.70346  21679512.4774                   21679512.5434
 11  8 11  3  9  0.0000000  0  8G26G10G29G12G15G02G05G25
   2391462.89847   1889340.84844  23179071.8444                   23179071.2934
 -11377740.11746  -8836184.09043  24195150.1954                   24195148.7854
  -5558698.68047  -4303974.55146  22024156.7894                   22024154.6994
 -18005485.68448 -13994968.21146  21971460.2814                   21971458.4574
  10376257.18846   8115899.00044  24111147.8984                   24111147.5394
 -28040342.45348 -21832782.76645  21878249.2974                   21878244.5864
 -22299946.18448 -17340695.32446  20593063.4454                   20593060.8914
 -12025853.19548  -9336689.78946  21676972.0084                   21676971.7504
 11  8 11  3  9 30.0000000  0  8G26G10G29G12G15G02G05G25
   2265975.61747   1791558.60244  23155192.6954                   23155191.3554
 -11303242.07446  -8778133.73843  24209326.1094                   24209324.4964
  -5669148.46147  -4390039.30146  22003138.4614                   22003137.4964
 -17962402.89148 -13961397.21946  21979658.6884                   21979656.5554
  10246121.41846   8014494.62144  24086384.2424                   24086382.5234
 -28031227.62547 -21825680.28945  21879983.7034                   21879979.1684
 -22292501.25048 -17334894.06646  20594480.3914                   20594477.5864
 -12038651.44948  -9346662.46146  21674536.7034                   21674536.5314
 11  8 11  3 10  0.0000000  0  8G26G10G29G12G15G02G05G25
   2140671.01247   1693918.69944  23131347.8834                   23131346.9224
 -11228653.94146  -8720013.00443  24223519.1414                   24223518.9304
  -5779436.82047  -4475978.26245  21982151.7894                   21982150.0784
 -17918980.65648 -13927561.72746  21987922.1334                   21987919.4654
  10115944.44146   7913058.13744  24061611.8594                   24061611.1764
 -28022014.64548 -21818501.33245  21881736.9064                   21881732.5394
 -22284588.98848 -17328728.66447  20595986.1724                   20595983.0594
 -12050896.26648  -9356203.87946  21672206.3444                   21672206.6174
 11  8 11  3 10 30.0000000  0  8G26G10G29G12G15G02G05G25
   2015549.85547   1596421.76244  23107537.6954                   23107537.0124
 -11153981.50846  -8661826.66043  24237730.2734                   24237728.4024
  -5889564.28547  -4561791.85546  21961194.6884                   21961192.9454
 -17875225.27748 -13893466.64546  21996248.2814                   21996245.9964
   9985726.37546   7811589.68044  24036832.0084                   24036831.5944
 -28012706.24248 -21811247.99245  21883508.2974                   21883503.8054
 -22276214.32048 -17322202.93446  20597579.5234                   20597576.9104
 -12062591.77048  -9365317.25846  21669981.0864                   21669981.0514
 11  8 11  3 11  0.0000000  0  8G26G10G29G12G15G02G05G25
   1890623.32047   1499076.46144  23083765.4694                   23083764.5904
 -11079219.41046  -8603570.43443  24251956.6024                   24251955.0904
  -5999521.27348  -4647472.59446  21940270.9224                   21940269.2234
 -17831131.89148 -13859108.18046  22004638.8594                   22004636.8324
   9855477.26646   7710096.98044  24012046.0314                   24012045.8954
 -28003294.96948 -21803914.51245  21885298.8674                   21885294.2114
 -22267371.90648 -17315312.73846  20599262.0084                   20599259.0234
 -12073731.85248  -9373997.85246  21667861.0314                   21667861.0704
 11  8 11  3 11 30.0000000  0  8G26G10G29G12G15G02G05G25
   1765889.84047   1401881.62144  23060029.1094                   23060028.2274
 -11004375.52046  -8545250.50043  24266199.0164                   24266196.5554
  -6109310.88747  -4733022.91446  21919378.7504                   21919376.8834
 -17786708.39848 -13824492.47746  22013091.9844                   22013090.3054
   9725195.08246   7608578.56343  23987253.3984                   23987253.9734
 -27993786.00848 -21796504.91845  21887108.5474                   21887104.0274
 -22258068.93748 -17308063.66046  20601032.5394                   20601029.5234
 -12084323.06248  -9382250.74246  21665845.7344                   21665845.9104
 11  8 11  3 12  0.0000000  0  8G26G10G29G12G15G02G05G25
   1641353.96547   1304840.73444  23036330.6414                   23036329.8874
 -10929451.26246  -8486867.96543  24280456.2664                   24280455.0664
  -6218929.96948  -4818440.35246  21898518.6334                   21898516.5904
 -17741957.25848 -13789621.47345  22021607.9534                   22021606.0744
   9594883.12147   7507036.90643  23962456.4924                   23962455.8674
 -27984178.60948 -21789018.61345  21888936.9384                   21888931.8634
 -22248306.82048 -17300456.81646  20602890.2114                   20602887.4884
 -12094366.00048  -9390076.41046  21663934.7974                   21663934.6684
 11  8 11  3 12 30.0000000  0  8G26G10G29G12G15G02G05G25
   1517015.07847   1207953.35244  23012670.1564                   23012668.6294
 -10854453.58246  -8428428.19143  24294728.0164                   24294726.4694
  -6328380.84848  -4903726.71146  21877690.9454                   21877689.2034
 -17696885.59448 -13754500.70345  22030184.8054                   22030182.8364
   9464539.89546   7405470.89844  23937652.8984                   23937652.2584
 -27974476.99248 -21781458.89845  21890782.9454                   21890778.4224
 -22238091.72748 -17292497.00046  20604834.3284                   20604831.2464
 -12103866.46548  -9397479.37546  21662126.6334                   21662126.8914
 11  8 11  3 13  0.0000000  0  8G26G10G29G12G15G02G05G25
   1392879.47747   1111224.37544  22989047.5084                   22989046.6884
 -10779382.04746  -8369930.92242  24309012.8594                   24309012.6844
  -6437658.93048  -4988878.42246  21856896.3444                   21856893.8634
 -17651493.73048 -13719130.44145  22038823.0004                   22038820.2234
   9334170.84846   7303884.73843  23912844.7274                   23912843.6214
 -27964678.46948 -21773823.65645  21892647.2894                   21892642.9144
 -22227423.29748 -17284183.93046  20606864.1094                   20606861.5164
 -12112823.32048  -9404458.73446  21660422.3444                   21660422.8754
 11  8 11  3 13 30.0000000  0  8G26G10G29G12G15G02G05G25
   1268951.54747   1014657.23044  22965464.5004                   22965464.0274
 -10704238.39146  -8311377.37143  24323313.4454                   24323312.3594
  -6546760.64848  -5073892.71146  21836134.2034                   21836132.8284
 -17605783.67648 -13683512.23445  22047521.3834                   22047519.1254
   9203779.52746   7202281.23444  23888031.8594                   23888030.7894
 -27954781.93448 -21766112.06245  21894530.6804                   21894526.8874
 -22216302.72348 -17275518.53146  20608980.3914                   20608977.6524
 -12121237.12548  -9411014.94946  21658821.4144                   21658821.7424
 11  8 11  3 14  0.0000000  0  9G26G10G29G12G15G02G05G25G21
   1145238.69147    918257.68844  22941923.1884                   22941921.9694
 -10629021.14846  -8252766.49243  24337626.2114                   24337624.0704
  -6655680.54748  -5158765.31646  21815407.6094                   21815406.0944
 -17559754.43048 -13647645.29745  22056280.3284                   22056278.2194
   9073372.78546   7100665.68044  23863216.5704                   23863214.7894
 -27944783.83647 -21758321.30545  21896433.4694                   21896428.7934
 -22204728.46948 -17266499.61346  20611182.8674                   20611179.9454
 -12129105.73448  -9417146.33246  21657323.6254                   21657323.8714
  14045528.16456  10966352.60552  25116640.2974                   25116639.7544
 11  8 11  3 14 30.0000000  0  9G26G10G29G12G15G02G05G25G21
   1021740.41847    822025.30544  22918422.2194                   22918420.9064
 -10553737.28946  -8194103.73042  24351952.0394                   24351950.6054
  -6764420.59448  -5243497.79346  21794715.2194                   21794713.3754
 -17513413.17248 -13611535.22745  22065098.9064                   22065096.6844
   8942949.07846   6999036.90244  23838397.5314                   23838395.6454
 -27934688.24247 -21750454.59445  21898354.3364                   21898350.2194
 -22192707.05948 -17257132.26646  20613470.3834                   20613467.1024
 -12136434.96148  -9422857.41446  21655928.7664                   21655929.1844
  13954393.41446  10895338.64143  25099298.0004                   25099297.7234
 11  8 11  3 15  0.0000000  0  9G26G10G29G12G15G02G05G25G21
    898447.25447    725952.75844  22894960.8134                   22894959.3244
 -10478401.99646  -8135400.91042  24366287.7274                   24366286.4264
  -6872991.96948  -5328098.81646  21774054.6724                   21774052.5664
 -17466776.63348 -13575195.07445  22073973.2814                   22073971.4844
   8812497.85547   6897386.67244  23813573.2114                   23813571.7074
 -27924508.35948 -21742522.21145  21900291.5084                   21900287.2464
 -22180253.82048 -17247428.42646  20615840.3984                   20615837.3284
 -12143239.55148  -9428159.69146  21654634.0784                   21654634.4184
  13863262.79746  10824327.83243  25081955.8754                   25081956.4734
 11  8 11  3 15 30.0000000  0  9G26G10G29G12G15G02G05G25G21
    775364.92247    630044.51644  22871538.2584                   22871537.4304
 -10403015.54746  -8076658.20343  24380634.1884                   24380631.7814
  -6981390.10248  -5412564.85246  21753427.1484                   21753425.4494
 -17419845.29348 -13538625.21545  22082904.0944                   22082902.0704
   8682024.34447   6795719.07444  23788744.8134                   23788743.5204
 -27914241.71148 -21734522.20745  21902245.2194                   21902240.8954
 -22167368.61348 -17237387.98846  20618291.9774                   20618289.7034
 -12149518.85548  -9433052.64546  21653439.2034                   21653439.4184
  13772138.14546  10753321.74643  25064616.2034                   25064615.9574
 11  8 11  3 16  0.0000000  0  9G26G10G29G12G15G02G05G25G21
    652510.53547    534313.88344  22848159.3444                   22848158.5234
 -10327567.20746  -8017867.28543  24394991.2734                   24394988.9574
  -7089599.52048  -5496883.86346  21732835.6254                   21732833.8634
 -17372608.80148 -13501817.57445  22091893.0704                   22091891.0004
   8551544.55547   6694046.59444  23763915.0554                   23763914.0984
 -27903875.17247 -21726444.36745  21904218.2584                   21904213.5314
 -22154040.51248 -17227002.43746  20620828.4064                   20620825.5434
 -12155261.21948  -9437527.19546  21652346.4064                   21652347.0554
  13681032.22746  10682330.21143  25047278.5004                   25047279.2274
 11  8 11  3 16 30.0000000  0  9G26G10G29G12G15G02G05G25G21
    529880.90247    438758.39844  22824824.5314                   22824822.6414
 -10252065.62946  -7959034.91043  24409358.9614                   24409357.0274
  -7197624.66847  -5581059.24246  21712279.1024                   21712276.7664
 -17325076.76648 -13464779.63345  22100937.9774                   22100935.8524
   8421054.72747   6592366.31644  23739083.9304                   23739082.8364
 -27893415.18448 -21718293.70345  21906208.3054                   21906203.6684
 -22140278.19548 -17216278.53946  20623446.9774                   20623444.6884
 -12160474.91848  -9441589.80946  21651354.3364                   21651354.5944
  13589937.60546  10611347.46543  25029944.2504                   25029943.7384
 11  8 11  3 17  0.0000000  0  9G26G10G29G12G15G02G05G25G21
    407486.37947    343386.09044  22801533.7034                   22801531.1414
 -10176506.87546  -7900157.97743  24423737.0944                   24423735.2854
  -7305456.79347  -5665084.21946  21691759.6094                   21691757.4024
 -17277245.61348 -13427508.63345  22110039.9304                   22110038.1254
   8290564.18847   6490685.46944  23714252.7034                   23714250.9414
 -27882855.29747 -21710065.20345  21908217.8284                   21908213.4654
 -22126077.52048 -17205213.05946  20626149.3524                   20626146.7074
 -12165155.16048  -9445236.75846  21650463.5944                   21650463.8444
  13498860.03946  10540378.01243  25012612.9844                   25012612.1484
 11  8 11  3 17 30.0000000  0  9G26G10G29G12G15G02G05G25G21
    285321.95347    248193.07444  22778286.3134                   22778284.5744
 -10100902.01246  -7841245.14543  24438123.7664                   24438122.1524
  -7413102.29347  -5748963.78946  21671274.9064                   21671272.7544
 -17229127.13748 -13390013.73845  22119196.2424                   22119194.8714
   8160067.07447   6388999.52044  23689418.9694                   23689419.0594
 -27872204.04347 -21701765.52045  21910244.6954                   21910240.2234
 -22111449.42248 -17193814.53546  20628933.3444                   20628930.6294
 -12169312.25848  -9448476.05146  21649672.5234                   21649673.2934
  13407790.65646  10469414.99243  24995283.0004                   24995281.7464
 11  8 11  3 18  0.0000000  0  9G26G10G29G12G15G02G05G25G21
    163405.85247    153193.56344  22755086.3054                   22755084.6724
 -10025239.09446  -7782287.02343  24452522.3754                   24452520.7274
  -7520544.76248  -5832685.14546  21650829.1804                   21650827.3364
 -17180709.87947 -13352286.02045  22128409.6724                   22128407.8284
   8029580.78147   6287321.98844  23664588.4384                   23664587.8284
 -27861446.69548 -21693383.17245  21912291.6024                   21912287.1954
 -22096381.64148 -17182073.39146  20631800.1484                   20631797.7034
 -12172933.48848  -9451297.79746  21648983.5784                   21648983.7774
  13316743.23446  10398469.02043  24977956.6174                   24977956.1804
 11  8 11  3 18 30.0000000  0  9G26G10G29G12G15G02G05G25G21
     41727.97747     58379.69944  22731932.0554                   22731930.1954
  -9949533.87546  -7723295.96942  24466927.4224                   24466926.2274
  -7627795.68048  -5916257.24646  21630420.0864                   21630418.1174
 -17132010.38748 -13314338.38346  22137677.4384                   22137675.7344
   7899094.50847   6185644.45344  23639758.1884                   23639756.4804
 -27850596.85547 -21684928.74245  21914356.0394                   21914351.7194
 -22080889.68048 -17170001.71546  20634748.4534                   20634745.4614
 -12176034.21948  -9453713.94946  21648393.8444                   21648393.8204
  13225703.42646  10327529.04743  24960633.1804                   24960631.5514
 11  8 11  3 19  0.0000000  0  9G26G10G29G12G15G02G05G25G21
    -79711.00447    -36248.00844  22708822.5084                   22708821.0634
  -9873791.56246  -7664275.96543  24481341.3364                   24481340.2304
  -7734855.34447  -5999680.32046  21610047.2194                   21610045.2464
 -17083034.71548 -13276175.54745  22146997.2894                   22146995.4224
   7768608.34446   6083966.99244  23614926.6724                   23614925.8714
 -27839657.24248 -21676404.36745  21916438.2274                   21916433.7974
 -22064979.02348 -17157603.78146  20637776.1724                   20637772.9924
 -12178619.07448  -9455728.12546  21647901.4064                   21647902.1094
  13134668.00846  10256592.46143  24943308.7034                   24943308.9064
 11  8 11  3 19 30.0000000  0  8G26G29G12G15G02G05G25G21
   -200893.71147   -130676.05144  22685762.1254                   22685761.3594
  -7841707.93048  -6082942.03546  21589714.0474                   21589712.0084
 -17033772.18447 -13237789.16445  22156371.2974                   22156369.5904
   7638138.67246   5982302.40644  23590099.7814                   23590097.9574
 -27828614.43048 -21667799.56245  21918539.3984                   21918534.9414
 -22048638.52748 -17144870.91046  20640885.5864                   20640882.2424
 -12180676.23848  -9457331.12946  21647510.3914                   21647510.3874
  13043650.31346  10185669.69142  24925988.4614                   24925988.6254
 11  8 11  3 20  0.0000000  0  8G26G29G12G15G02G05G25G21
   -321819.78547   -224904.11744  22662750.7424                   22662749.5904
  -7948355.05148  -6166043.65246  21569419.5634                   21569417.6844
 -16984228.80148 -13199183.95345  22165799.6484                   22165797.1844
   7507684.98846   5880650.25444  23565274.9774                   23565274.3284
 -27817471.49247 -21659116.75045  21920660.1414                   21920655.3594
 -22031873.70748 -17131807.41046  20644075.8914                   20644073.2854
 -12182210.96148  -9458527.00846  21647217.6884                   21647218.0394
  12952645.94146  10114757.29743  24908671.0864                   24908671.0124
 11  8 11  3 20 30.0000000  0  8G26G29G12G15G02G05G25G21
   -442482.79747   -318927.20744  22639789.3754                   22639787.7584
  -8054791.63748  -6248981.23046  21549164.8984                   21549163.0984
 -16934405.55548 -13160360.67245  22175280.6094                   22175278.5554
   7377252.93047   5779014.96144  23540454.7194                   23540453.6374
 -27806225.55548 -21650353.68745  21922799.8984                   21922795.5084
 -22014684.03948 -17118412.85946  20647346.8054                   20647343.6724
 -12183222.20348  -9459315.00446  21647025.2504                   21647026.1564
  12861657.08246  10043856.97343  24891356.8204                   24891356.1374
 11  8 11  3 21  0.0000000  0  8G26G29G12G15G02G05G25G21
   -562873.98047   -412738.47745  22616879.8754                   22616877.8324
  -8161010.16048  -6331748.87146  21528952.6564                   21528950.3834
 -16884299.99647 -13121317.39845  22184815.0704                   22184813.6604
   7246850.75847   5677402.93844  23515639.7814                   23515638.8054
 -27794871.36348 -21641506.27345  21924960.5474                   21924955.9224
 -21997066.45748 -17104684.85946  20650699.2344                   20650696.6724
 -12183706.65248  -9459692.51246  21646933.5234                   21646933.4804
  12770688.51246   9972972.49243  24874046.4224                   24874044.7074
 11  8 11  3 21 30.0000000  0  8G26G29G12G15G02G05G25G21
   -682995.82047   -506339.87144  22594020.8054                   22594019.7934
  -8267014.64548  -6414349.74246  21508780.5474                   21508778.7734
 -16833921.64547 -13082061.58245  22194401.8984                   22194400.2814
   7116474.90247   5575811.40644  23490829.9774                   23490829.0634
 -27783414.85247 -21632579.12545  21927140.7274                   21927136.5204
 -21979029.60248 -17090630.16446  20654131.9774                   20654128.9024
 -12183672.48048  -9459665.88346  21646940.2034                   21646940.1094
  12679733.45346   9902098.52743  24856737.8834                   24856736.7154
 11  8 11  3 22  0.0000000  0  8G26G29G12G15G02G05G25G21
    772582.09447    627876.73445  22871008.3284                   22871007.0164
  -6797376.19948  -5269176.91446  21788443.2274                   21788441.3634
 -15207852.27747 -11814994.56245  22503832.4694                   22503830.6914
   8561555.43047   6701848.26644  23765819.9534                   23765818.4614
 -26196433.71947 -20395970.46545  22229132.8914                   22229128.7814
 -20385153.75448 -15848648.98446  20957436.0864                   20957433.5204
 -10607698.77048  -8231634.43446  21946837.6644                   21946838.0634
  14164216.99246  11058839.05143  25139225.2584                   25139223.2624
 11  8 11  3 22 30.0000000  0  8G26G29G12G15G02G05G25G21
    653016.14847    534708.50044  22848255.1094                   22848254.1134
  -6902939.01248  -5351433.61746  21768355.6564                   21768353.6334
 -15156930.60947 -11775315.36345  22513522.7114                   22513520.7464
   8431247.62547   6600309.75844  23741023.0164                   23741021.3094
 -26184766.12548 -20386878.83645  22231353.4694                   22231349.0904
 -20366279.30548 -15833941.61746  20961028.0234                   20961024.9844
 -10606626.61748  -8230799.00446  21947041.7194                   21947042.0554
  14073293.54346  10987989.74243  25121922.9844                   25121921.1954
 11  8 11  3 23  0.0000000  0  8G26G29G12G15G02G05G25G21
    533723.43847    441753.15244  22825554.9064                   22825553.2464
  -7008288.28148  -5433523.91846  21748308.1254                   21748305.8794
 -15105751.85547 -11735435.84045  22523261.3364                   22523259.9614
   8300967.77047   6498793.05544  23716231.5784                   23716229.9734
 -26173003.04348 -20377712.81245  22233592.0004                   22233587.8204
 -20346999.60548 -15818918.47746  20964697.0004                   20964693.7624
 -10605048.68448  -8229569.44546  21947342.3204                   21947342.3134
  13982374.84646  10917144.12443  25104621.6804                   25104620.6564
 11  8 11  3 23 30.0000000  0  8G26G29G12G15G02G05G25G21
    414717.43847    349021.25445  22802909.0084                   22802907.5904
  -7113411.85248  -5515438.37946  21728303.7274                   21728301.6644
 -15054309.91447 -11695351.23045  22533050.6564                   22533048.4494
   8170728.66047   6397308.07444  23691448.1334                   23691445.9224
 -26161134.65248 -20368464.73445  22235849.9454                   22235846.0784
 -20327307.33248 -15803573.84446  20968444.2974                   20968441.4654
 -10602957.02048  -8227939.59046  21947740.3674                   21947740.5744
  13891469.93446  10846309.16843  25087323.6484                   25087321.6054
 11  8 11  3 24  0.0000000  0  8G26G29G12G15G02G05G25G21
    296000.23847    256514.38744  22780317.7974                   22780316.2424
  -7218308.87948  -5597176.29346  21708342.5314                   21708340.6844
 -15002609.16847 -11655064.94545  22542889.2504                   22542887.2854
   8040531.37547   6295855.70744  23666671.8524                   23666669.9344
 -26149162.25047 -20359135.59445  22238128.9064                   22238124.1214
 -20307206.47348 -15787910.84046  20972269.1484                   20972266.2974
 -10600355.27048  -8225912.24246  21948235.3674                   21948235.9694
  13800576.98046  10775483.68043  25070027.1254                   25070024.7544
 11  8 11  3 24 30.0000000  0  8G26G29G12G15G02G05G25G21
    177565.48847    164227.60544  22757780.3284                   22757779.0084
  -7322987.06648  -5678743.68446  21688422.9694                   21688420.8014
 -14950662.61347 -11614587.14145  22552774.3984                   22552772.2154
   7910369.42647   6194430.87544  23641903.3524                   23641901.3954
 -26137095.48047 -20349732.93445  22240425.0234                   22240420.6764
 -20286709.04348 -15771938.81646  20976169.8524                   20976167.2854
 -10597255.37948  -8223496.75446  21948825.0554                   21948825.7194
  13709685.10546  10704658.94143  25052729.6484                   25052729.2154
 11  8 11  3 25  0.0000000  0  8G26G29G12G15G02G05G25G21
     59418.60947     72165.15244  22735297.3444                   22735296.0204
  -7427442.34448  -5760137.37546  21668545.7114                   21668543.9774
 -14898471.36347 -11573918.63745  22562705.8444                   22562703.8204
   7780247.45347   6093037.20344  23617141.1644                   23617139.5984
 -26124932.62948 -20340255.39845  22242739.5004                   22242735.0044
 -20265815.84448 -15755658.40246  20980145.5314                   20980142.9884
 -10593657.47348  -8220693.18746  21949509.6024                   21949510.0314
  13618796.06646  10633836.38343  25035434.4534                   25035433.2344
 11  8 11  3 25 30.0000000  0  8G26G29G12G15G02G05G25G21
    -58428.36747    -19663.60944  22712871.3984                   22712870.3754
  -7531664.28548  -5841349.25046  21648712.8594                   21648710.9024
 -14846030.36347 -11533055.54345  22572685.2974                   22572683.1994
   7650176.72347   5991683.49244  23592389.6414                   23592388.3164
 -26112665.07448 -20330696.27045  22245073.7664                   22245069.5824
 -20244521.25048 -15739065.21546  20984198.0164                   20984194.9654
 -10589555.34848  -8217496.72746  21950290.8834                   21950291.0664
  13527917.75046  10563022.20743  25018140.5314                   25018139.5274
 11  8 11  3 26  0.0000000  0  8G26G29G12G15G02G05G25G21
   -175977.63747   -111260.41844  22690503.1094                   22690502.0044
  -7635656.66048  -5922382.23046  21628924.1334                   21628921.7544
 -14793348.21147 -11492004.52745  22582710.4064                   22582708.4344
   7520153.98447   5890367.18844  23567647.5314                   23567645.7154
 -26100298.52048 -20321060.00445  22247427.3754                   22247422.9734
 -20222832.77348 -15722165.10246  20988325.0864                   20988322.3364
 -10584956.87548  -8213913.49646  21951165.6724                   21951165.8794
  13437043.11346  10492210.94943  25000847.8594                   25000846.9614
 11  8 11  3 26 30.0000000  0  8G26G29G12G15G02G05G25G21
   -293227.31647   -202623.77744  22668191.5864                   22668190.0124
  -7739418.68748  -6003235.73446  21609178.6414                   21609176.4654
 -14740430.14847 -11450769.69945  22592780.3834                   22592778.2584
   7390180.72346   5789089.43044  23542913.8444                   23542912.9884
 -26087834.50848 -20311347.80145  22249799.1954                   22249794.9184
 -20200754.85248 -15704961.53546  20992526.1174                   20992523.2544
 -10579866.01648  -8209946.60946  21952134.4924                   21952134.5124
  13346169.90646  10421400.78143  24983555.5474                   24983553.8244
 11  8 11  3 27  0.0000000  0  8G26G29G12G15G02G05G25G21
   -410174.26247   -293751.20744  22645936.8284                   22645936.3554
  -7842948.28548  -6083908.10546  21589477.5004                   21589475.2774
 -14687279.65647 -11409353.74645  22602894.5554                   22602892.1414
   7260259.30946   5687852.06344  23518190.4064                   23518189.2504
 -26075273.30147 -20301559.85945  22252188.8444                   22252184.8094
 -20178290.40648 -15687456.77346  20996801.1724                   20996798.5044
 -10574285.21148  -8205597.92646  21953196.2504                   21953196.2704
  13255297.32846  10350591.07443  24966262.2504                   24966262.2974
 11  8 11  3 27 30.0000000  0  8G26G29G12G15G02G05G25G21
   -526804.24647   -384631.68745  22623742.8834                   22623741.6954
  -7946233.19148  -6164389.80946  21569823.0004                   21569820.9414
 -14633889.14847 -11367750.77745  22613054.7664                   22613052.3914
   7130403.03947   5586665.46144  23493479.7734                   23493477.9804
 -26062604.48848 -20291688.06245  22254600.4384                   22254596.4494
 -20155431.50448 -15669644.63746  21001150.8754                   21001148.1994
 -10568206.18048  -8200861.02346  21954353.3204                   21954353.1884
  13164435.14146  10279789.43443  24948972.1024                   24948971.6294
 11  8 11  3 28  0.0000000  0  8G26G29G12G15G02G05G25G21
   -643122.12947   -475268.95745  22601608.4844                   22601606.9804
  -8049279.10548  -6244685.28546  21550213.6174                   21550211.7814
 -14580270.44547 -11325969.99245  22623257.6884                   22623255.4654
   7000606.71947   5485525.52744  23468780.1804                   23468778.9964
 -26049836.18048 -20281738.75045  22257030.1884                   22257025.5314
 -20132188.66448 -15651533.32046  21005573.7424                   21005570.8674
 -10561639.32848  -8195744.00446  21955602.9454                   21955602.5204
  13073574.84446  10208989.30143  24931681.8364                   24931681.7344
 11  8 11  3 28 30.0000000  0  8G26G29G12G15G02G05G25G21
   -759122.78947   -565659.04345  22579533.8984                   22579532.5784
  -8152082.68048  -6324791.91446  21530651.1804                   21530648.7114
 -14526425.29747 -11284012.74245  22633503.8674                   22633502.0784
   6870874.63347   5384435.63344  23444092.8914                   23444091.4494
 -26036966.70347 -20271710.59845  22259478.5864                   22259474.3794
 -20108563.15648 -15633123.82046  21010069.4224                   21010066.9844
 -10554585.58648  -8190247.57046  21956945.0634                   21956944.8524
  12982716.65246  10138190.78943  24914392.2274                   24914390.7274
 11  8 11  3 29  0.0000000  0  8G26G29G12G15G02G05G25G21
   -874800.37547   -655797.37945  22557521.0704                   22557519.1024
  -8254639.12148  -6404705.98846  21511135.3834                   21511132.8984
 -14472354.09047 -11241879.35245  22643793.2034                   22643791.5274
   6741211.93447   5283399.78944  23419418.4694                   23419417.1884
 -26023993.67248 -20261601.75445  22261947.5634                   22261943.3634
 -20084554.93748 -15614416.09446  21014638.5164                   21014635.7034
 -10547044.72348  -8184371.58246  21958379.9304                   21958379.9184
  12891862.63746  10067395.58643  24897103.0164                   24897101.6454
 11  8 11  3 29 30.0000000  0  8G26G29G12G15G02G05G25G21
   -990155.82447   -745684.69945  22535570.0554                   22535568.7114
  -8356950.94148  -6484429.44546  21491666.2194                   21491663.5274
 -14418064.50847 -11199575.79745  22654124.5864                   22654122.4574
   6611617.36747   5182417.03544  23394758.2734                   23394756.3134
 -26010921.45348 -20251415.64545  22264435.5004                   22264430.6884
 -20060170.89848 -15595415.52046  21019278.1804                   21019275.5004
 -10539023.47348  -8178121.25446  21959906.6094                   21959907.1764
  12801008.04746   9996599.90643  24879813.9454                   24879812.9734
 11  8 11  3 30  0.0000000  0  8G26G29G12G15G02G05G25G21
  -1105185.65247   -835318.28545  22513680.6724                   22513678.9574
  -8459015.72348  -6563960.40246  21472243.7664                   21472241.5664
 -14363559.98047 -11157104.74245  22664496.1724                   22664493.8634
   6482093.37547   5081489.28145  23370110.6724                   23370109.0394
 -25997749.96147 -20241152.14545  22266941.4384                   22266936.9844
 -20035413.70348 -15576124.18446  21023989.2504                   21023986.3404
 -10530524.33648  -8171498.54346  21961523.3444                   21961524.3444
  12710151.71546   9925802.88743  24862524.7974                   24862523.5164
 11  8 11  3 30 30.0000000  0  8G26G29G12G15G02G05G25G21
  -1219876.18447   -924687.50445  22491855.9304                   22491854.3634
  -8560821.56248  -6643289.59846  21452870.5864                   21452868.1994
 -14308832.93047 -11114460.30145  22674910.4304                   22674908.0234
   6352653.00047   4980626.66445  23345479.0634                   23345477.6214
 -25984469.02747 -20230803.35245  22269468.3444                   22269464.2814
 -20010275.67648 -15556536.08246  21028773.3594                   21028770.3954
 -10521539.52748  -8164497.37546  21963233.8444                   21963233.9454
  12619303.16846   9855011.90643  24845236.2814                   24845235.5634
 11  8 11  3 31  0.0000000  0  8G26G29G12G15G02G05G25G21
  -1334236.29347  -1013799.23845  22470093.4384                   22470092.0084
  -8662378.25848  -6722424.66446  21433545.0944                   21433542.4024
 -14253900.57847 -11071655.89145  22685363.8524                   22685361.5514
   6223287.36347   4879822.28144  23320861.4384                   23320859.3204
 -25971090.63348 -20220378.63745  22272014.4534                   22272010.3204
 -19984771.96548 -15536663.01646  21033626.5944                   21033623.8244
 -10512083.65648  -8157129.17246  21965032.7274                   21965032.9264
  12528449.46146   9784216.87943  24827948.1024                   24827945.8484
 11  8 11  3 31 30.0000000  0  8G26G29G12G15G02G05G25G21
  -1448249.43747  -1102640.60945  22448397.6174                   22448396.1564
  -8763670.82448  -6801353.90646  21414269.6094                   21414267.0004
 -14198752.07847 -11028683.04345  22695858.1644                   22695856.4104
   6094011.86747   4779088.12944  23296260.7814                   23296259.2464
 -25957601.83248 -20209867.89545  22274581.6644                   22274577.5594
 -19958891.98848 -15516496.76646  21038551.2584                   21038548.3524
 -10502146.26248  -8149385.73846  21966924.0944                   21966924.6294
  12437603.12146   9713427.62943  24810660.6094                   24810658.5864
 11  8 11  3 32  0.0000000  0  8G26G29G12G15G02G05G25G21
  -1561926.97347  -1191220.47745  22426765.2114                   22426763.6884
  -8864711.66848  -6880087.01646  21395042.3444                   21395040.3364
 -14143405.28947 -10985555.68445  22706390.7734                   22706388.4104
   5964814.59847   4678414.94144  23271675.7034                   23271673.9104
 -25944017.38747 -20199282.60945  22277166.7424                   22277162.7274
 -19932652.85948 -15496050.64546  21043544.1174                   21043541.1024
 -10491744.34447  -8141280.34046  21968903.2814                   21968903.4774
  12346748.59846   9642632.03943  24793370.4694                   24793369.5354
 11  8 11  3 32 30.0000000  0  8G26G29G12G15G02G05G25G21
  -1675256.29347  -1279528.98445  22405199.2194                   22405198.0554
  -8965489.66848  -6958615.30146  21375864.6414                   21375862.1524
 -14087854.41447 -10942269.28145  22716961.2344                   22716958.9184
   5835707.66847   4577812.16444  23247106.9304                   23247105.9924
 -25930328.02347 -20188615.59845  22279771.5234                   22279767.4384
 -19906048.12148 -15475319.64146  21048606.8834                   21048603.7114
 -10480871.27048  -8132807.81646  21970972.3754                   21970972.6254
  12255894.34046   9571836.62943  24776081.4614                   24776080.0704
 11  8 11  3 33  0.0000000  0  8G26G29G12G15G02G05G25G21
  -1788236.02747  -1367565.10545  22383699.9924                   22383698.2544
  -9066004.77748  -7036938.75046  21356737.3444                   21356735.1954
 -14032105.15647 -10898828.29745  22727569.8674                   22727567.2304
   5706691.48847   4477280.14144  23222556.2584                   23222554.7034
 -25916535.91447 -20177868.50045  22282396.1094                   22282391.7234
 -19879082.83248 -15454307.68746  21053738.3204                   21053734.7384
 -10469531.79348  -8123971.85246  21973130.4304                   21973130.5824
  12165037.32046   9501039.03543  24758792.2974                   24758790.4804
 11  8 11  3 33 30.0000000  0  8G26G29G12G15G02G05G25G21
  -1900860.87547  -1455324.69945  22362268.6334                   22362266.6914
  -9166252.86348  -7115054.12146  21337660.8754                   21337658.7504
 -13976158.57447 -10855233.55945  22738216.3444                   22738214.0864
   5577771.36347   4376822.97344  23198023.2344                   23198021.8014
 -25902639.04348 -20167039.81645  22285040.4454                   22285036.5354
 -19851757.30148 -15433015.02746  21058938.3204                   21058935.0514
 -10457726.32448  -8114772.78146  21975376.5554                   21975377.7154
  12074179.11346   9430240.54343  24741503.0634                   24741500.9264
 11  8 11  3 34  0.0000000  0  8G26G29G12G15G02G05G25G21
  -2013124.98047  -1542803.20345  22340905.2034                   22340903.9064
  -9266229.48048  -7192957.98046  21318635.5864                   21318633.5554
 -13920015.52347 -10811485.73045  22748900.2424                   22748898.0204
   5448952.38347   4276444.62944  23173509.9694                   23173508.2074
 -25888634.81247 -20156127.41445  22287705.7424                   22287701.1374
 -19824072.12148 -15411442.12146  21064206.4304                   21064203.3284
 -10445455.02748  -8105210.72346  21977711.4844                   21977712.2584
  11983321.34046   9359442.37143  24724212.9304                   24724210.9654
 11  8 11  3 34 30.0000000  0  8G26G29G12G15G02G05G25G21
  -2125031.43047  -1630002.99645  22319609.6564                   22319608.8014
  -9365938.96948  -7270653.67246  21299661.7344                   21299659.7774
 -13863685.97747 -10767592.58645  22759618.9384                   22759617.4344
   5320230.70347   4176142.11344  23149015.2424                   23149013.3794
 -25874529.96948 -20145136.64145  22290389.5394                   22290385.5164
 -19796036.40648 -15389596.09446  21069541.4844                   21069538.1994
 -10432727.09848  -8095292.85246  21980133.7734                   21980134.3014
  11892456.53546   9288638.75843  24706921.4534                   24706920.3054
 11  8 11  3 35  0.0000000  0  8G26G29G12G15G02G05G25G21
  -2236576.49247  -1716921.17645  22298383.7194                   22298382.3634
  -9465378.64148  -7348139.12146  21280739.0634                   21280736.7234
 -13807172.80547 -10723556.32445  22770373.1954                   22770371.0984
   5191609.89147   4075918.15644  23124538.7344                   23124537.8914
 -25860323.64848 -20134066.78545  22293093.0784                   22293088.5944
 -19767652.23048 -15367478.54346  21074942.5234                   21074939.6454
 -10419544.41448  -8085020.62946  21982642.5784                   21982642.6564
  11801584.76246   9217829.62943  24689629.2114                   24689627.5354
 11  8 11  3 35 30.0000000  0  8G26G29G12G15G02G05G25G21
  -2347749.36747  -1803549.36345  22277228.0864                   22277226.5984
  -9564539.52348  -7425407.33246  21261869.2114                   21261866.9884
 -13750472.04747 -10679373.91845  22781162.6884                   22781161.4024
   5063099.60547   3975780.30144  23100084.4844                   23100082.3834
 -25846008.60948 -20122912.22345  22295817.1644                   22295812.7854
 -19738914.82848 -15345085.75846  21080411.2814                   21080407.9414
 -10405902.62948  -8074390.65246  21985238.1334                   21985238.9304
  11710712.48446   9147020.16443  24672337.0314                   24672335.3984
 11  8 11  3 36  0.0000000  0  8G26G29G12G15G02G05G25G21
  -2458556.01248  -1889892.16045  22256142.0784                   22256140.8204
  -9663428.07448  -7502463.33246  21243051.8204                   21243049.1764
 -13693596.02047 -10635054.94945  22791986.1094                   22791984.1454
   4934694.05547   3875724.06344  23075649.7584                   23075647.6564
 -25831593.98448 -20111680.04745  22298560.2974                   22298556.0314
 -19709835.89848 -15322426.86346  21085944.3674                   21085941.8204
 -10391813.25448  -8063411.91046  21987919.2894                   21987919.5124
  11619829.86346   9076202.62543  24655042.5394                   24655040.9774
 11  8 11  3 36 30.0000000  0  8G26G29G12G15G02G05G25G21
  -2568992.25047  -1975946.32845  22235126.7584                   22235125.5354
  -9762041.74248  -7579305.12946  21224285.7114                   21224283.1604
 -13636547.52747 -10590601.57445  22802841.7814                   22802840.2894
   4806396.24247   3775751.80144  23051235.4694                   23051233.6174
 -25817079.19548 -20100369.83645  22301322.4384                   22301318.0124
 -19680417.83648 -15299503.69146  21091542.7424                   21091539.9144
 -10377278.45748  -8052086.08646  21990685.2814                   21990685.4024
  11528936.79346   9005376.95343  24637745.4694                   24637744.2114
 11  8 11  3 37  0.0000000  0  8G26G29G12G15G02G05G25G21
  -2679043.79348  -2061700.72745  22214185.2664                   22214183.2194
  -9860367.34048  -7655922.46146  21205575.1174                   21205572.9494
 -13579318.59847 -10546007.62145  22813732.6954                   22813730.5904
   4678220.40647   3675874.58645  23026844.6884                   23026842.7034
 -25802452.82047 -20088972.66045  22304105.4844                   22304101.0274
 -19650652.29748 -15276309.77746  21097206.8984                   21097203.7814
 -10362289.81248  -8040406.62546  21993537.8444                   21993538.0824
  11438043.66246   8934551.22343  24620449.8674                   24620448.0354
 11  8 11  3 37 30.0000000  0  8G26G29G12G15G02G05G25G21
  -2788713.47348  -2147157.57445  22193315.3754                   22193314.1174
  -9958409.30948  -7732318.78146  21186918.2974                   21186915.9064
 -13521918.77747 -10501280.48845  22824655.1094                   22824652.8364
   4550162.75447   3576089.48445  23002476.0474                   23002474.1524
 -25787721.35248 -20077493.59445  22306908.1174                   22306904.7424
 -19620548.09048 -15252851.95746  21102935.8364                   21102932.7304
 -10346856.14548  -8028380.37546  21996474.4064                   21996474.8484
  11347143.28546   8863719.84443  24603152.0634                   24603149.9024
 11  8 11  3 38  0.0000000  0  8G26G29G12G15G02G05G25G21
  -2897997.09448  -2232313.59045  22172519.0004                   22172517.5944
 -10056164.36348  -7808491.52346  21168316.2274                   21168313.6644
 -13464350.85247 -10456422.37145  22835609.9694                   22835608.1454
   4422227.56347   3476399.74645  22978130.9774                   22978128.2704
 -25772883.73847 -20065931.82845  22309732.0164                   22309728.0594
 -19590106.85248 -15229131.51646  21108728.6484                   21108725.4614
 -10330979.22348  -8016008.73846  21999496.0704                   21999495.8954
  11256236.30546   8792883.30543  24585852.4144                   24585851.1214
 11  8 11  3 38 30.0000000  0  8G26G29G12G15G02G05G25G21
  -3006893.17248  -2317167.61745  22151797.0234                   22151795.0234
 -10153632.16848  -7884440.42246  21149768.6484                   21149765.8674
 -13406619.81647 -10411437.16845  22846596.1804                   22846594.0634
   4294415.41847   3376805.90645  22953808.7734                   22953806.7734
 -25757941.89547 -20054288.84045  22312575.4694                   22312571.4774
 -19559333.22348 -15205152.09846  21114584.8054                   21114581.6334
 -10314663.75448  -8003295.37146  22002600.4614                   22002600.6254
  11165319.89846   8722039.42643  24568551.9454                   24568549.7544
 11  8 11  3 39  0.0000000  0  8G26G29G12G15G02G05G25G21
  -3115396.87947  -2401715.93445  22131149.3364                   22131148.1524
 -10250809.01248  -7960162.61346  21131276.2584                   21131274.1214
 -13348727.29747 -10366326.12545  22857612.4924                   22857610.6604
   4166731.21547   3277311.76245  22929511.1644                   22929509.4224
 -25742894.02747 -20042563.23045  22315439.6564                   22315434.9804
 -19528228.10548 -15180914.34846  21120503.2344                   21120500.5234
 -10297910.67648  -7990241.00446  22005788.4774                   22005788.6254
  11074395.13746   8651189.05543  24551249.2274                   24551247.2814
 11  8 11  3 39 30.0000000  0  8G26G29G12G15G02G05G25G21
  -3223503.44948  -2485954.77745  22110577.4844                   22110576.2894
 -10347691.48448  -8035655.40246  21112840.1334                   21112837.6954
 -13290675.01647 -10321090.59845  22868659.4534                   22868657.2704
   4039178.60547   3177920.16045  22905238.9304                   22905236.7734
 -25727738.67247 -20030753.85945  22318323.1254                   22318319.1214
 -19496793.03148 -15156419.48446  21126485.0944                   21126482.7234
 -10280721.61748  -7976846.92246  22009059.4064                   22009060.0314
  10983462.25846   8580332.32443  24533945.6174                   24533943.7624
 11  8 11  3 40  0.0000000  0  9G26G18G29G12G15G02G05G25G21
  -3331210.10948  -2569881.98445  22090081.5784                   22090079.9774
  15574127.51656  12165123.37153  24603899.1094                   24603898.2304
 -10444278.18748  -8110917.75446  21094460.0944                   21094458.0514
 -13232467.31247 -10275733.95745  22879736.8754                   22879734.2974
   3911760.14147   3078633.08645  22880991.9064                   22880990.3324
 -25712476.46547 -20018861.23845  22321227.4384                   22321223.2304
 -19465031.43048 -15131670.18746  21132529.2424                   21132526.6334
 -10263099.75848  -7963115.58646  22012412.7034                   22012413.2774
  10892520.29746   8509468.55543  24516639.7424                   24516637.7774
 11  8 11  3 40 30.0000000  0  9G26G18G29G12G15G02G05G25G21
  -3438514.01247  -2653495.37145  22069662.3204                   22069660.5594
  15451206.05546  12069340.57443  24580507.5234                   24580506.3324
 -10540567.31648  -8185948.23846  21076137.4144                   21076134.5354
 -13174107.82447 -10230259.03945  22890841.3984                   22890839.4414
   3784478.34047   2979452.48045  22856770.4844                   22856769.5744
 -25697107.44147 -20006885.37545  22324151.6484                   22324147.5864
 -19432946.23848 -15106668.74646  21138635.0474                   21138631.9384
 -10245048.27047  -7949049.48046  22015848.0084                   22015848.2544
  10801568.06646   8438596.74643  24499331.9774                   24499329.5664
 11  8 11  3 41  0.0000000  0  9G26G18G29G12G15G02G05G25G21
  -3545420.59847  -2736799.15645  22049318.8284                   22049316.9654
  15328441.01246  11973679.65243  24557146.0474                   24557144.9534
 -10636565.45348  -8260751.96546  21057869.4774                   21057866.9534
 -13115608.43447 -10184675.11745  22901973.6254                   22901971.7974
   3657327.35547   2880373.82445  22832574.4844                   22832573.0824
 -25681640.29347 -19994833.03145  22327095.5704                   22327091.1454
 -19400548.62948 -15081423.86746  21144799.9304                   21144797.3554
 -10226578.68048  -7934657.56246  22019362.9144                   22019362.8914
  10710596.28147   8367709.70343  24482020.6484                   24482018.6764
 11  8 11  3 41 30.0000000  0  9G26G18G29G12G15G02G05G25G21
  -3651921.49647  -2819786.82445  22029052.2974                   22029050.3714
  15205838.44546  11878145.38743  24533814.9844                   24533814.7114
 -10732265.52748  -8335323.43446  21039657.9454                   21039655.7504
 -13056967.32847 -10138980.75445  22913133.3524                   22913130.9064
   3530315.12947   2781403.29345  22808405.6884                   22808403.7114
 -25666069.96547 -19982700.28945  22330057.9064                   22330053.5784
 -19367836.45348 -15055933.87146  21151024.9384                   21151022.3204
 -10207688.74248  -7919938.11746  22022957.4534                   22022957.2734
  10619609.44147   8296810.94143  24464706.3674                   24464704.5164
 11  8 11  3 42  0.0000000  0  9G26G18G29G12G15G02G05G25G21
  -3758012.56647  -2902455.15645  22008863.6884                   22008861.8874
  15083400.01646  11782738.92643  24510516.3754                   24510515.5044
 -10827664.46948  -8409660.25046  21021504.3524                   21021502.2704
 -12998187.03147 -10093177.94545  22924317.7814                   22924315.8634
   3403445.18847   2682543.63745  22784262.5554                   22784260.6884
 -25650395.73847 -19970486.60245  22333041.0554                   22333036.1094
 -19334811.55948 -15030200.21546  21157309.6884                   21157306.5944
 -10188380.45348  -7904892.68446  22026631.4304                   22026631.3364
  10528607.62546   8225900.48843  24447388.9144                   24447387.1334
